<?xml version='1.0' encoding='UTF-8'?><gpx version="1.1" creator="JPX - https://github.com/jenetics/jpx" xmlns="http://www.topografix.com/GPX/1/1"><trk><trkseg><trkpt lat="43.74714956450288" lon="11.181460936079544"><ele>51.0</ele><time>2026-03-28T15:25:03Z</time></trkpt><trkpt lat="43.74708543076143" lon="11.181373511687822"><ele>51.0</ele><time>2026-03-28T15:25:04Z</time></trkpt><trkpt lat="43.74701036423315" lon="11.181261738961757"><ele>51.0</ele><time>2026-03-28T15:25:05Z</time></trkpt><trkpt lat="43.74691114829249" lon="11.18113366758157"><ele>51.0</ele><time>2026-03-28T15:25:06Z</time></trkpt><trkpt lat="43.74682191277748" lon="11.181006826755338"><ele>51.0</ele><time>2026-03-28T15:25:07Z</time></trkpt><trkpt lat="43.7467430754255" lon="11.180873644182252"><ele>51.0</ele><time>2026-03-28T15:25:08Z</time></trkpt><trkpt lat="43.74664277673655" lon="11.180723790096568"><ele>51.0</ele><time>2026-03-28T15:25:09Z</time></trkpt><trkpt lat="43.74654616547596" lon="11.18058155210319"><ele>51.0</ele><time>2026-03-28T15:25:10Z</time></trkpt><trkpt lat="43.74643512220069" lon="11.180393072140005"><ele>51.0</ele><time>2026-03-28T15:25:11Z</time></trkpt><trkpt lat="43.74632949071758" lon="11.180179699376362"><ele>51.0</ele><time>2026-03-28T15:25:12Z</time></trkpt><trkpt lat="43.74623506096509" lon="11.180013356161519"><ele>51.0</ele><time>2026-03-28T15:25:13Z</time></trkpt><trkpt lat="43.746150403253715" lon="11.179864464374784"><ele>51.33333333333333</ele><time>2026-03-28T15:25:13.998Z</time></trkpt><trkpt lat="43.74604508565849" lon="11.179696000712873"><ele>51.666666666666664</ele><time>2026-03-28T15:25:14.998Z</time></trkpt><trkpt lat="43.745926889117804" lon="11.17949630599137"><ele>52.0</ele><time>2026-03-28T15:25:15.998Z</time></trkpt><trkpt lat="43.74577432269593" lon="11.17929256990677"><ele>52.0</ele><time>2026-03-28T15:25:16.998Z</time></trkpt><trkpt lat="43.74558676150561" lon="11.179094226246166"><ele>52.0</ele><time>2026-03-28T15:25:17.998Z</time></trkpt><trkpt lat="43.74538143096773" lon="11.17892197230497"><ele>53.5</ele><time>2026-03-28T15:25:18.998Z</time></trkpt><trkpt lat="43.74515084885798" lon="11.178737015598617"><ele>55.0</ele><time>2026-03-28T15:25:19.998Z</time></trkpt><trkpt lat="43.7449406376111" lon="11.178562098587422"><ele>55.0</ele><time>2026-03-28T15:25:20.998Z</time></trkpt><trkpt lat="43.74478104369486" lon="11.178324385994504"><ele>55.0</ele><time>2026-03-28T15:25:21.998Z</time></trkpt><trkpt lat="43.744648386933314" lon="11.178099707139323"><ele>55.0</ele><time>2026-03-28T15:25:22.998Z</time></trkpt><trkpt lat="43.7445419539909" lon="11.177898068934857"><ele>56.0</ele><time>2026-03-28T15:25:23.998Z</time></trkpt><trkpt lat="43.74444430336084" lon="11.177701624968739"><ele>57.0</ele><time>2026-03-28T15:25:24.998Z</time></trkpt><trkpt lat="43.744343750475934" lon="11.177499530716533"><ele>58.0</ele><time>2026-03-28T15:25:25.998Z</time></trkpt><trkpt lat="43.74424802835682" lon="11.177307984292511"><ele>59.0</ele><time>2026-03-28T15:25:26.998Z</time></trkpt><trkpt lat="43.74414331649378" lon="11.177096242997518"><ele>60.0</ele><time>2026-03-28T15:25:27.998Z</time></trkpt><trkpt lat="43.74401729103099" lon="11.176879106729814"><ele>61.0</ele><time>2026-03-28T15:25:28.998Z</time></trkpt><trkpt lat="43.74391558896042" lon="11.176654213240587"><ele>60.33333333333333</ele><time>2026-03-28T15:25:29.998Z</time></trkpt><trkpt lat="43.743785476033544" lon="11.176453396718514"><ele>59.66666666666667</ele><time>2026-03-28T15:25:30.998Z</time></trkpt><trkpt lat="43.74363939701119" lon="11.176270136466691"><ele>59.0</ele><time>2026-03-28T15:25:31.998Z</time></trkpt><trkpt lat="43.74347533402458" lon="11.176133832298026"><ele>61.0</ele><time>2026-03-28T15:25:32.998Z</time></trkpt><trkpt lat="43.74327573584908" lon="11.176062390006068"><ele>63.0</ele><time>2026-03-28T15:25:33.998Z</time></trkpt><trkpt lat="43.74307660188079" lon="11.175982948152322"><ele>65.0</ele><time>2026-03-28T15:25:34.998Z</time></trkpt><trkpt lat="43.74288101774303" lon="11.175910413509413"><ele>65.0</ele><time>2026-03-28T15:25:35.998Z</time></trkpt><trkpt lat="43.74267371809947" lon="11.175843764036065"><ele>65.0</ele><time>2026-03-28T15:25:36.999Z</time></trkpt><trkpt lat="43.74246661875784" lon="11.175761474678582"><ele>65.0</ele><time>2026-03-28T15:25:37.999Z</time></trkpt><trkpt lat="43.742260582583675" lon="11.175630384512443"><ele>65.0</ele><time>2026-03-28T15:25:38.999Z</time></trkpt><trkpt lat="43.742043141156394" lon="11.175507260883828"><ele>65.0</ele><time>2026-03-28T15:25:39.999Z</time></trkpt><trkpt lat="43.741834089113404" lon="11.17537518910952"><ele>67.5</ele><time>2026-03-28T15:25:40.999Z</time></trkpt><trkpt lat="43.741626707825475" lon="11.175246208934361"><ele>70.0</ele><time>2026-03-28T15:25:41.999Z</time></trkpt><trkpt lat="43.7414341462843" lon="11.175053914150851"><ele>70.0</ele><time>2026-03-28T15:25:42.999Z</time></trkpt><trkpt lat="43.74121406407935" lon="11.174883882414694"><ele>70.0</ele><time>2026-03-28T15:25:43.999Z</time></trkpt><trkpt lat="43.741000838881014" lon="11.174693113740668"><ele>70.5</ele><time>2026-03-28T15:25:44.999Z</time></trkpt><trkpt lat="43.74080174125219" lon="11.174521434509785"><ele>71.0</ele><time>2026-03-28T15:25:45.999Z</time></trkpt><trkpt lat="43.74060736960897" lon="11.174365203315144"><ele>71.0</ele><time>2026-03-28T15:25:46.999Z</time></trkpt><trkpt lat="43.74041105871187" lon="11.174225259380478"><ele>71.0</ele><time>2026-03-28T15:25:47.999Z</time></trkpt><trkpt lat="43.7401932642387" lon="11.174093315107882"><ele>70.0</ele><time>2026-03-28T15:25:48.999Z</time></trkpt><trkpt lat="43.73996333324508" lon="11.173963876782269"><ele>69.0</ele><time>2026-03-28T15:25:49.999Z</time></trkpt><trkpt lat="43.739759509969495" lon="11.173832934512562"><ele>69.0</ele><time>2026-03-28T15:25:50.999Z</time></trkpt><trkpt lat="43.739574572313444" lon="11.173693967427726"><ele>69.0</ele><time>2026-03-28T15:25:51.999Z</time></trkpt><trkpt lat="43.73940737395613" lon="11.173569298479972"><ele>69.0</ele><time>2026-03-28T15:25:52.999Z</time></trkpt><trkpt lat="43.739272382179706" lon="11.173448533019151"><ele>69.4</ele><time>2026-03-28T15:25:53.999Z</time></trkpt><trkpt lat="43.73916780329333" lon="11.17336577554201"><ele>69.80000000000001</ele><time>2026-03-28T15:25:54.999Z</time></trkpt><trkpt lat="43.739087743632325" lon="11.173320609696885"><ele>70.19999999999999</ele><time>2026-03-28T15:25:55.999Z</time></trkpt><trkpt lat="43.739007264618714" lon="11.173261984622108"><ele>70.6</ele><time>2026-03-28T15:25:59.999Z</time></trkpt><trkpt lat="43.738911382749635" lon="11.173268756417821"><ele>71.0</ele><time>2026-03-28T15:26:00.999Z</time></trkpt><trkpt lat="43.7388197168194" lon="11.173227403837833"><ele>71.0</ele><time>2026-03-28T15:26:01.999Z</time></trkpt><trkpt lat="43.738703346114306" lon="11.173193604717902"><ele>71.0</ele><time>2026-03-28T15:26:02.999Z</time></trkpt><trkpt lat="43.73857771684117" lon="11.173153701578556"><ele>71.0</ele><time>2026-03-28T15:26:03.999Z</time></trkpt><trkpt lat="43.738439850169414" lon="11.173106571066292"><ele>71.0</ele><time>2026-03-28T15:26:04.999Z</time></trkpt><trkpt lat="43.73829578527613" lon="11.173058634629673"><ele>72.33333333333334</ele><time>2026-03-28T15:26:05.999Z</time></trkpt><trkpt lat="43.73813330093052" lon="11.173014635172576"><ele>73.66666666666667</ele><time>2026-03-28T15:26:06.999Z</time></trkpt><trkpt lat="43.73796212014585" lon="11.172977614963333"><ele>75.0</ele><time>2026-03-28T15:26:07.999Z</time></trkpt><trkpt lat="43.737782197153805" lon="11.17295030584712"><ele>75.5</ele><time>2026-03-28T15:26:08.999Z</time></trkpt><trkpt lat="43.7376282988623" lon="11.17292022515975"><ele>76.0</ele><time>2026-03-28T15:26:09.999Z</time></trkpt><trkpt lat="43.737494848125316" lon="11.172879802458205"><ele>76.5</ele><time>2026-03-28T15:26:10.999Z</time></trkpt><trkpt lat="43.73736111582146" lon="11.172801951619174"><ele>77.0</ele><time>2026-03-28T15:26:11.999Z</time></trkpt><trkpt lat="43.737222157501975" lon="11.172733867050997"><ele>77.0</ele><time>2026-03-28T15:26:12.999Z</time></trkpt><trkpt lat="43.73706360887133" lon="11.172693142911498"><ele>77.0</ele><time>2026-03-28T15:26:13.999Z</time></trkpt><trkpt lat="43.736909405088696" lon="11.172670489021195"><ele>77.0</ele><time>2026-03-28T15:26:14.999Z</time></trkpt><trkpt lat="43.73673374165371" lon="11.17266709048068"><ele>78.66666666666667</ele><time>2026-03-28T15:26:15.999Z</time></trkpt><trkpt lat="43.736540975338855" lon="11.172672156604957"><ele>80.33333333333333</ele><time>2026-03-28T15:26:16.999Z</time></trkpt><trkpt lat="43.73636645943106" lon="11.1726372554732"><ele>82.0</ele><time>2026-03-28T15:26:17.999Z</time></trkpt><trkpt lat="43.73619489847884" lon="11.172588802938815"><ele>83.66666666666666</ele><time>2026-03-28T15:26:18.999Z</time></trkpt><trkpt lat="43.73601909506133" lon="11.172499330149883"><ele>85.33333333333333</ele><time>2026-03-28T15:26:19.999Z</time></trkpt><trkpt lat="43.7358466427827" lon="11.172403583648817"><ele>87.0</ele><time>2026-03-28T15:26:20.999Z</time></trkpt><trkpt lat="43.73569448102779" lon="11.172279721688154"><ele>87.0</ele><time>2026-03-28T15:26:21.999Z</time></trkpt><trkpt lat="43.735555940358395" lon="11.17214287253319"><ele>87.0</ele><time>2026-03-28T15:26:22.999Z</time></trkpt><trkpt lat="43.73542568098669" lon="11.172035918343324"><ele>87.0</ele><time>2026-03-28T15:26:23.999Z</time></trkpt><trkpt lat="43.73531021942342" lon="11.171932873421373"><ele>89.66666666666667</ele><time>2026-03-28T15:26:24.999Z</time></trkpt><trkpt lat="43.73517281852216" lon="11.171860679092456"><ele>92.33333333333334</ele><time>2026-03-28T15:26:25.999Z</time></trkpt><trkpt lat="43.7350148762623" lon="11.17183218018023"><ele>95.0</ele><time>2026-03-28T15:26:26.999Z</time></trkpt><trkpt lat="43.73484527731481" lon="11.171814619216503"><ele>95.0</ele><time>2026-03-28T15:26:27.999Z</time></trkpt><trkpt lat="43.73467632594912" lon="11.171760695466103"><ele>95.0</ele><time>2026-03-28T15:26:28.999Z</time></trkpt><trkpt lat="43.73450521753832" lon="11.171727338528601"><ele>95.0</ele><time>2026-03-28T15:26:29.999Z</time></trkpt><trkpt lat="43.73437272215619" lon="11.171661058890102"><ele>96.33333333333334</ele><time>2026-03-28T15:26:30.999Z</time></trkpt><trkpt lat="43.734252469810905" lon="11.171570385889215"><ele>97.66666666666667</ele><time>2026-03-28T15:26:31.999Z</time></trkpt><trkpt lat="43.734112049877794" lon="11.171454664123045"><ele>99.0</ele><time>2026-03-28T15:26:32.999Z</time></trkpt><trkpt lat="43.73395556542992" lon="11.171323925017795"><ele>99.0</ele><time>2026-03-28T15:26:33.999Z</time></trkpt><trkpt lat="43.73380079589893" lon="11.171221764519357"><ele>99.0</ele><time>2026-03-28T15:26:34.999Z</time></trkpt><trkpt lat="43.73366121007565" lon="11.171099893337239"><ele>99.0</ele><time>2026-03-28T15:26:35.999Z</time></trkpt><trkpt lat="43.73352439897883" lon="11.170982214204042"><ele>101.75</ele><time>2026-03-28T15:26:36.999Z</time></trkpt><trkpt lat="43.733401910073944" lon="11.170893024345293"><ele>104.5</ele><time>2026-03-28T15:26:37.999Z</time></trkpt><trkpt lat="43.73328953289406" lon="11.170825648423294"><ele>107.25</ele><time>2026-03-28T15:26:38.999Z</time></trkpt><trkpt lat="43.733207824594835" lon="11.170711023921998"><ele>110.0</ele><time>2026-03-28T15:26:39.999Z</time></trkpt><trkpt lat="43.73311605571987" lon="11.17062018028276"><ele>110.0</ele><time>2026-03-28T15:26:40.999Z</time></trkpt><trkpt lat="43.73304800982253" lon="11.170453392077498"><ele>110.0</ele><time>2026-03-28T15:26:41.999Z</time></trkpt><trkpt lat="43.73295063321626" lon="11.17028893502831"><ele>110.0</ele><time>2026-03-28T15:26:42.999Z</time></trkpt><trkpt lat="43.732865567839596" lon="11.170099358600122"><ele>110.0</ele><time>2026-03-28T15:26:43.999Z</time></trkpt><trkpt lat="43.73276889359392" lon="11.169897890542178"><ele>110.0</ele><time>2026-03-28T15:26:44.999Z</time></trkpt><trkpt lat="43.73266241725773" lon="11.169689454107408"><ele>110.0</ele><time>2026-03-28T15:26:45.999Z</time></trkpt><trkpt lat="43.732541805783605" lon="11.169476982158644"><ele>115.0</ele><time>2026-03-28T15:26:46.999Z</time></trkpt><trkpt lat="43.73241614902219" lon="11.169267578901799"><ele>120.0</ele><time>2026-03-28T15:26:47.999Z</time></trkpt><trkpt lat="43.7322834549285" lon="11.169051790936775"><ele>125.0</ele><time>2026-03-28T15:26:48.999Z</time></trkpt><trkpt lat="43.73216471276894" lon="11.168815271853504"><ele>126.0</ele><time>2026-03-28T15:26:49.999Z</time></trkpt><trkpt lat="43.732030029114284" lon="11.168587954497228"><ele>127.0</ele><time>2026-03-28T15:26:50.999Z</time></trkpt><trkpt lat="43.731916541103175" lon="11.168404730363825"><ele>128.0</ele><time>2026-03-28T15:26:51.999Z</time></trkpt><trkpt lat="43.73182526560091" lon="11.168261503664443"><ele>134.0</ele><time>2026-03-28T15:26:52.999Z</time></trkpt><trkpt lat="43.73170909748691" lon="11.168142318375656"><ele>140.0</ele><time>2026-03-28T15:26:53.999Z</time></trkpt><trkpt lat="43.73158068157602" lon="11.168017937129074"><ele>146.0</ele><time>2026-03-28T15:26:54.999Z</time></trkpt><trkpt lat="43.731432750725304" lon="11.167889595865015"><ele>146.0</ele><time>2026-03-28T15:26:55.999Z</time></trkpt><trkpt lat="43.731321700493055" lon="11.167752469057254"><ele>146.0</ele><time>2026-03-28T15:26:56.999Z</time></trkpt><trkpt lat="43.7312657425988" lon="11.167633046249254"><ele>146.0</ele><time>2026-03-28T15:26:57.999Z</time></trkpt><trkpt lat="43.73121598108542" lon="11.16751405769767"><ele>146.0</ele><time>2026-03-28T15:26:58.999Z</time></trkpt><trkpt lat="43.73113637845245" lon="11.167384757550325"><ele>150.0</ele><time>2026-03-28T15:26:59.999Z</time></trkpt><trkpt lat="43.731050486758505" lon="11.167252118793142"><ele>154.0</ele><time>2026-03-28T15:27:00.999Z</time></trkpt><trkpt lat="43.730932073554655" lon="11.167093980356555"><ele>158.0</ele><time>2026-03-28T15:27:01.999Z</time></trkpt><trkpt lat="43.730819504949146" lon="11.16690197500993"><ele>158.0</ele><time>2026-03-28T15:27:02.999Z</time></trkpt><trkpt lat="43.73068933935969" lon="11.166715953807577"><ele>158.0</ele><time>2026-03-28T15:27:03.999Z</time></trkpt><trkpt lat="43.730540484020445" lon="11.166537219540677"><ele>158.0</ele><time>2026-03-28T15:27:04.999Z</time></trkpt><trkpt lat="43.730414514685464" lon="11.16632880571285"><ele>157.0</ele><time>2026-03-28T15:27:05.999Z</time></trkpt><trkpt lat="43.73029403429197" lon="11.166159092641312"><ele>156.0</ele><time>2026-03-28T15:27:06.999Z</time></trkpt><trkpt lat="43.73019423951438" lon="11.166034645650418"><ele>155.0</ele><time>2026-03-28T15:27:07.999Z</time></trkpt><trkpt lat="43.730079382401186" lon="11.165948109348223"><ele>154.0</ele><time>2026-03-28T15:27:08.999Z</time></trkpt><trkpt lat="43.72994614889082" lon="11.165858963672859"><ele>158.33333333333334</ele><time>2026-03-28T15:27:09.999Z</time></trkpt><trkpt lat="43.7298047449057" lon="11.165769696151704"><ele>162.66666666666666</ele><time>2026-03-28T15:27:10.999Z</time></trkpt><trkpt lat="43.729677307633274" lon="11.165648976616763"><ele>167.0</ele><time>2026-03-28T15:27:11.999Z</time></trkpt><trkpt lat="43.72953940850078" lon="11.165525094369446"><ele>167.0</ele><time>2026-03-28T15:27:12.999Z</time></trkpt><trkpt lat="43.72941537408896" lon="11.165450950863576"><ele>167.0</ele><time>2026-03-28T15:27:13.999Z</time></trkpt><trkpt lat="43.729318404088616" lon="11.165400582087903"><ele>167.0</ele><time>2026-03-28T15:27:14.999Z</time></trkpt><trkpt lat="43.72919699650353" lon="11.165397542248828"><ele>167.0</ele><time>2026-03-28T15:27:15.999Z</time></trkpt><trkpt lat="43.7290572512301" lon="11.165436251523005"><ele>171.5</ele><time>2026-03-28T15:27:16.999Z</time></trkpt><trkpt lat="43.7289071924014" lon="11.165481693923471"><ele>176.0</ele><time>2026-03-28T15:27:17.999Z</time></trkpt><trkpt lat="43.728778745175035" lon="11.16544124978602"><ele>180.5</ele><time>2026-03-28T15:27:18.999Z</time></trkpt><trkpt lat="43.72863608934248" lon="11.165408131475834"><ele>185.0</ele><time>2026-03-28T15:27:19.996Z</time></trkpt><trkpt lat="43.72848753317224" lon="11.165371640274026"><ele>187.5</ele><time>2026-03-28T15:27:20.996Z</time></trkpt><trkpt lat="43.728357794102095" lon="11.165318460445192"><ele>190.0</ele><time>2026-03-28T15:27:21.996Z</time></trkpt><trkpt lat="43.728229246708615" lon="11.165255570960909"><ele>192.5</ele><time>2026-03-28T15:27:22.996Z</time></trkpt><trkpt lat="43.728127698166375" lon="11.165137431329061"><ele>195.0</ele><time>2026-03-28T15:27:23.996Z</time></trkpt><trkpt lat="43.72801726915839" lon="11.165004862497733"><ele>195.0</ele><time>2026-03-28T15:27:24.996Z</time></trkpt><trkpt lat="43.72790457359764" lon="11.164881119773451"><ele>195.0</ele><time>2026-03-28T15:27:25.996Z</time></trkpt><trkpt lat="43.72779497772869" lon="11.164805617516466"><ele>195.0</ele><time>2026-03-28T15:27:26.996Z</time></trkpt><trkpt lat="43.72767352076255" lon="11.164730449183034"><ele>195.0</ele><time>2026-03-28T15:27:27.996Z</time></trkpt><trkpt lat="43.7275439884713" lon="11.164678706230418"><ele>197.66666666666666</ele><time>2026-03-28T15:27:28.996Z</time></trkpt><trkpt lat="43.72744026220578" lon="11.164627590544024"><ele>200.33333333333331</ele><time>2026-03-28T15:27:29.996Z</time></trkpt><trkpt lat="43.7273718171323" lon="11.164576400900419"><ele>203.0</ele><time>2026-03-28T15:27:30.997Z</time></trkpt><trkpt lat="43.72736992808604" lon="11.164451991784256"><ele>205.66666666666666</ele><time>2026-03-28T15:27:32.997Z</time></trkpt><trkpt lat="43.72743374733851" lon="11.164402827876721"><ele>208.33333333333331</ele><time>2026-03-28T15:27:33.997Z</time></trkpt><trkpt lat="43.727530125311056" lon="11.164402779327183"><ele>211.0</ele><time>2026-03-28T15:27:34.997Z</time></trkpt><trkpt lat="43.72762668860792" lon="11.164335499901595"><ele>211.0</ele><time>2026-03-28T15:27:35.997Z</time></trkpt><trkpt lat="43.72772506677979" lon="11.164262540802325"><ele>211.0</ele><time>2026-03-28T15:27:36.997Z</time></trkpt><trkpt lat="43.72779716531684" lon="11.164139119885746"><ele>211.0</ele><time>2026-03-28T15:27:37.997Z</time></trkpt><trkpt lat="43.72784879970373" lon="11.163987753711018"><ele>211.0</ele><time>2026-03-28T15:27:38.997Z</time></trkpt><trkpt lat="43.72788216206553" lon="11.16386116620065"><ele>211.0</ele><time>2026-03-28T15:27:39.997Z</time></trkpt><trkpt lat="43.727883026284225" lon="11.163740127621818"><ele>210.4</ele><time>2026-03-28T15:27:40.998Z</time></trkpt><trkpt lat="43.727846933864505" lon="11.16362785475273"><ele>209.8</ele><time>2026-03-28T15:27:41.998Z</time></trkpt><trkpt lat="43.72778468669171" lon="11.163504427078454"><ele>209.20000000000002</ele><time>2026-03-28T15:27:42.998Z</time></trkpt><trkpt lat="43.727721992831384" lon="11.163378610851627"><ele>208.60000000000002</ele><time>2026-03-28T15:27:43.998Z</time></trkpt><trkpt lat="43.727676851882585" lon="11.163220473895871"><ele>208.0</ele><time>2026-03-28T15:27:44.998Z</time></trkpt><trkpt lat="43.727618499516055" lon="11.163065465738448"><ele>215.0</ele><time>2026-03-28T15:27:45.998Z</time></trkpt><trkpt lat="43.72758414098275" lon="11.162877790760879"><ele>222.0</ele><time>2026-03-28T15:27:46.998Z</time></trkpt><trkpt lat="43.72755458071365" lon="11.162680916208704"><ele>229.0</ele><time>2026-03-28T15:27:47.998Z</time></trkpt><trkpt lat="43.72752545847664" lon="11.162480735548549"><ele>236.0</ele><time>2026-03-28T15:27:48.998Z</time></trkpt><trkpt lat="43.727499185116486" lon="11.162317745040037"><ele>236.33333333333334</ele><time>2026-03-28T15:27:49.998Z</time></trkpt><trkpt lat="43.72747824310979" lon="11.162181909592123"><ele>236.66666666666669</ele><time>2026-03-28T15:27:50.998Z</time></trkpt><trkpt lat="43.727475692067976" lon="11.16208285596103"><ele>237.0</ele><time>2026-03-28T15:27:51.998Z</time></trkpt><trkpt lat="43.7275126137987" lon="11.16200153959365"><ele>237.33333333333331</ele><time>2026-03-28T15:27:52.998Z</time></trkpt><trkpt lat="43.72757900363959" lon="11.161944429601599"><ele>237.66666666666666</ele><time>2026-03-28T15:27:53.998Z</time></trkpt><trkpt lat="43.72759638368337" lon="11.16185958946128"><ele>238.0</ele><time>2026-03-28T15:27:54.998Z</time></trkpt><trkpt lat="43.72752693924077" lon="11.16171281338752"><ele>238.0</ele><time>2026-03-28T15:27:56.999Z</time></trkpt><trkpt lat="43.7274484747499" lon="11.161697098622165"><ele>238.0</ele><time>2026-03-28T15:27:57.999Z</time></trkpt><trkpt lat="43.72738270343549" lon="11.161664746092537"><ele>238.0</ele><time>2026-03-28T15:27:58.999Z</time></trkpt><trkpt lat="43.727282517141035" lon="11.16172680586522"><ele>238.0</ele><time>2026-03-28T15:27:59.999Z</time></trkpt><trkpt lat="43.72722167637445" lon="11.161855766120246"><ele>238.0</ele><time>2026-03-28T15:28:00.999Z</time></trkpt><trkpt lat="43.72716995583988" lon="11.161967813601171"><ele>238.0</ele><time>2026-03-28T15:28:01.999Z</time></trkpt><trkpt lat="43.72710638570469" lon="11.162116419084468"><ele>238.0</ele><time>2026-03-28T15:28:02.999Z</time></trkpt><trkpt lat="43.72705172141283" lon="11.16224907934112"><ele>238.0</ele><time>2026-03-28T15:28:03.999Z</time></trkpt><trkpt lat="43.72699758841241" lon="11.162359257732225"><ele>238.0</ele><time>2026-03-28T15:28:04.999Z</time></trkpt><trkpt lat="43.72692335655744" lon="11.162451556657784"><ele>238.0</ele><time>2026-03-28T15:28:05.999Z</time></trkpt><trkpt lat="43.7268612728146" lon="11.162490186763156"><ele>240.0</ele><time>2026-03-28T15:28:06.999Z</time></trkpt><trkpt lat="43.72674003573384" lon="11.162429155388798"><ele>242.0</ele><time>2026-03-28T15:28:08.999Z</time></trkpt><trkpt lat="43.72672326113525" lon="11.162327301714786"><ele>244.0</ele><time>2026-03-28T15:28:09.999Z</time></trkpt><trkpt lat="43.726689613461424" lon="11.162213815476852"><ele>246.0</ele><time>2026-03-28T15:28:10.999Z</time></trkpt><trkpt lat="43.726634065147344" lon="11.162063893907108"><ele>248.0</ele><time>2026-03-28T15:28:11.999Z</time></trkpt><trkpt lat="43.726576444747316" lon="11.161883184048936"><ele>249.75</ele><time>2026-03-28T15:28:12.999Z</time></trkpt><trkpt lat="43.72650970861434" lon="11.16169439294651"><ele>251.5</ele><time>2026-03-28T15:28:13.999Z</time></trkpt><trkpt lat="43.72644153713729" lon="11.161530058736805"><ele>253.25</ele><time>2026-03-28T15:28:14.999Z</time></trkpt><trkpt lat="43.726379215073415" lon="11.1613798138559"><ele>255.0</ele><time>2026-03-28T15:28:15.999Z</time></trkpt><trkpt lat="43.72630108402238" lon="11.161222867840923"><ele>255.0</ele><time>2026-03-28T15:28:16.999Z</time></trkpt><trkpt lat="43.7262089999409" lon="11.161049382920455"><ele>255.0</ele><time>2026-03-28T15:28:17.999Z</time></trkpt><trkpt lat="43.72611779701879" lon="11.160882926782742"><ele>255.0</ele><time>2026-03-28T15:28:18.999Z</time></trkpt><trkpt lat="43.72602069637221" lon="11.160716822116314"><ele>262.3333333333333</ele><time>2026-03-28T15:28:19.999Z</time></trkpt><trkpt lat="43.7259200721079" lon="11.160545188437116"><ele>269.66666666666663</ele><time>2026-03-28T15:28:20.999Z</time></trkpt><trkpt lat="43.72581035303064" lon="11.160343571862601"><ele>277.0</ele><time>2026-03-28T15:28:21.999Z</time></trkpt><trkpt lat="43.725680604617075" lon="11.160119392546704"><ele>277.0</ele><time>2026-03-28T15:28:22.999Z</time></trkpt><trkpt lat="43.7255575478168" lon="11.159939900793365"><ele>277.0</ele><time>2026-03-28T15:28:23.999Z</time></trkpt><trkpt lat="43.72545834973908" lon="11.159751994804644"><ele>277.0</ele><time>2026-03-28T15:28:24.999Z</time></trkpt><trkpt lat="43.72534936413548" lon="11.159590979765177"><ele>277.0</ele><time>2026-03-28T15:28:25.999Z</time></trkpt><trkpt lat="43.72525090084411" lon="11.159430050328972"><ele>277.0</ele><time>2026-03-28T15:28:26.999Z</time></trkpt><trkpt lat="43.72517258745842" lon="11.159267025323189"><ele>277.0</ele><time>2026-03-28T15:28:27.999Z</time></trkpt><trkpt lat="43.72509698810339" lon="11.159128121912707"><ele>277.0</ele><time>2026-03-28T15:28:28.999Z</time></trkpt><trkpt lat="43.725017214925835" lon="11.158973962468444"><ele>277.0</ele><time>2026-03-28T15:28:29.999Z</time></trkpt><trkpt lat="43.724943858552805" lon="11.158816750121646"><ele>277.0</ele><time>2026-03-28T15:28:30.999Z</time></trkpt><trkpt lat="43.724878782968005" lon="11.158662000328874"><ele>277.0</ele><time>2026-03-28T15:28:31.999Z</time></trkpt><trkpt lat="43.724805779930975" lon="11.158530604311869"><ele>277.0</ele><time>2026-03-28T15:28:32.999Z</time></trkpt><trkpt lat="43.72475431833886" lon="11.158384748800788"><ele>277.0</ele><time>2026-03-28T15:28:33.999Z</time></trkpt><trkpt lat="43.72468979215347" lon="11.158224201434901"><ele>277.0</ele><time>2026-03-28T15:28:34.999Z</time></trkpt><trkpt lat="43.724631668864326" lon="11.158054779937196"><ele>277.0</ele><time>2026-03-28T15:28:36Z</time></trkpt><trkpt lat="43.7245514617668" lon="11.157905856776999"><ele>277.0</ele><time>2026-03-28T15:28:37Z</time></trkpt><trkpt lat="43.72448357178351" lon="11.15777598674278"><ele>276.4</ele><time>2026-03-28T15:28:38Z</time></trkpt><trkpt lat="43.724440432006176" lon="11.157651404222934"><ele>275.79999999999995</ele><time>2026-03-28T15:28:39Z</time></trkpt><trkpt lat="43.724362122118656" lon="11.157537253802971"><ele>275.2</ele><time>2026-03-28T15:28:40Z</time></trkpt><trkpt lat="43.724280530426974" lon="11.15742211177697"><ele>274.59999999999997</ele><time>2026-03-28T15:28:41Z</time></trkpt><trkpt lat="43.72419639593022" lon="11.15732294429048"><ele>274.0</ele><time>2026-03-28T15:28:42Z</time></trkpt><trkpt lat="43.724122693022736" lon="11.15722866820862"><ele>276.16666666666663</ele><time>2026-03-28T15:28:43Z</time></trkpt><trkpt lat="43.72405758332398" lon="11.157146108153313"><ele>278.3333333333333</ele><time>2026-03-28T15:28:44Z</time></trkpt><trkpt lat="43.724003158143674" lon="11.157058173776779"><ele>280.5</ele><time>2026-03-28T15:28:45Z</time></trkpt><trkpt lat="43.72396499362129" lon="11.15698609932675"><ele>282.6666666666667</ele><time>2026-03-28T15:28:46Z</time></trkpt><trkpt lat="43.723923565458016" lon="11.156911257597383"><ele>284.83333333333337</ele><time>2026-03-28T15:28:47Z</time></trkpt><trkpt lat="43.72389330044806" lon="11.156789358912029"><ele>287.0</ele><time>2026-03-28T15:28:49Z</time></trkpt><trkpt lat="43.723767650728504" lon="11.156823739972152"><ele>287.0</ele><time>2026-03-28T15:28:50Z</time></trkpt><trkpt lat="43.72369357124944" lon="11.156809435733859"><ele>287.0</ele><time>2026-03-28T15:28:51Z</time></trkpt><trkpt lat="43.72364101317404" lon="11.156751012936352"><ele>287.0</ele><time>2026-03-28T15:28:52Z</time></trkpt><trkpt lat="43.723581292273856" lon="11.156702443182677"><ele>287.0</ele><time>2026-03-28T15:28:53Z</time></trkpt><trkpt lat="43.72352544622097" lon="11.156627084959739"><ele>287.0</ele><time>2026-03-28T15:28:54Z</time></trkpt><trkpt lat="43.72347378541368" lon="11.156566701050103"><ele>287.0</ele><time>2026-03-28T15:28:55Z</time></trkpt><trkpt lat="43.723399876375645" lon="11.156518650228234"><ele>287.0</ele><time>2026-03-28T15:28:56Z</time></trkpt><trkpt lat="43.72335422340116" lon="11.156414357205163"><ele>289.0</ele><time>2026-03-28T15:28:57Z</time></trkpt><trkpt lat="43.72331280177487" lon="11.156264669577414"><ele>291.0</ele><time>2026-03-28T15:28:58Z</time></trkpt><trkpt lat="43.72326760141007" lon="11.15616704141321"><ele>293.0</ele><time>2026-03-28T15:28:59Z</time></trkpt><trkpt lat="43.72319714484339" lon="11.155922464114823"><ele>295.0</ele><time>2026-03-28T15:29:00Z</time></trkpt><trkpt lat="43.723138531854126" lon="11.155734176052494"><ele>297.5</ele><time>2026-03-28T15:29:01Z</time></trkpt><trkpt lat="43.72309530264586" lon="11.155572546455303"><ele>300.0</ele><time>2026-03-28T15:29:02Z</time></trkpt><trkpt lat="43.723046420850984" lon="11.155407419692338"><ele>302.5</ele><time>2026-03-28T15:29:03Z</time></trkpt><trkpt lat="43.72297867126737" lon="11.155246917045842"><ele>305.0</ele><time>2026-03-28T15:29:04Z</time></trkpt><trkpt lat="43.72287816841602" lon="11.155121989322241"><ele>305.0</ele><time>2026-03-28T15:29:05Z</time></trkpt><trkpt lat="43.72274364506302" lon="11.155015224126574"><ele>305.0</ele><time>2026-03-28T15:29:06Z</time></trkpt><trkpt lat="43.722632952869034" lon="11.154897422042417"><ele>305.0</ele><time>2026-03-28T15:29:07Z</time></trkpt><trkpt lat="43.72251545835317" lon="11.154813582396605"><ele>305.0</ele><time>2026-03-28T15:29:08Z</time></trkpt><trkpt lat="43.72237217466905" lon="11.154799983875497"><ele>307.5</ele><time>2026-03-28T15:29:09Z</time></trkpt><trkpt lat="43.72223490819535" lon="11.154862081564515"><ele>310.0</ele><time>2026-03-28T15:29:10Z</time></trkpt><trkpt lat="43.722096704176266" lon="11.154859417513176"><ele>312.5</ele><time>2026-03-28T15:29:11Z</time></trkpt><trkpt lat="43.721947228495154" lon="11.154827706182102"><ele>315.0</ele><time>2026-03-28T15:29:12Z</time></trkpt><trkpt lat="43.72183465981571" lon="11.154774287020656"><ele>315.0</ele><time>2026-03-28T15:29:13Z</time></trkpt><trkpt lat="43.72175071876272" lon="11.154688997883873"><ele>315.0</ele><time>2026-03-28T15:29:14Z</time></trkpt><trkpt lat="43.72166167492669" lon="11.154584204117528"><ele>315.0</ele><time>2026-03-28T15:29:15Z</time></trkpt><trkpt lat="43.72156401363097" lon="11.154457977455056"><ele>315.0</ele><time>2026-03-28T15:29:16Z</time></trkpt><trkpt lat="43.721455579032536" lon="11.154300352374662"><ele>315.0</ele><time>2026-03-28T15:29:17Z</time></trkpt><trkpt lat="43.72132730245339" lon="11.15410452888298"><ele>315.0</ele><time>2026-03-28T15:29:18Z</time></trkpt><trkpt lat="43.72118653931953" lon="11.153941575334073"><ele>315.0</ele><time>2026-03-28T15:29:19Z</time></trkpt><trkpt lat="43.721058301169734" lon="11.153788887978957"><ele>317.0</ele><time>2026-03-28T15:29:20Z</time></trkpt><trkpt lat="43.72092878651414" lon="11.153645832776172"><ele>319.0</ele><time>2026-03-28T15:29:21Z</time></trkpt><trkpt lat="43.72078099883879" lon="11.153500852157066"><ele>321.0</ele><time>2026-03-28T15:29:22Z</time></trkpt><trkpt lat="43.720624966147476" lon="11.15339431233393"><ele>321.0</ele><time>2026-03-28T15:29:23Z</time></trkpt><trkpt lat="43.72050329664174" lon="11.153255880148553"><ele>321.0</ele><time>2026-03-28T15:29:24Z</time></trkpt><trkpt lat="43.720393684170595" lon="11.153153163904596"><ele>321.0</ele><time>2026-03-28T15:29:25Z</time></trkpt><trkpt lat="43.72031478396119" lon="11.153075360832736"><ele>321.0</ele><time>2026-03-28T15:29:25.997Z</time></trkpt><trkpt lat="43.720235539102816" lon="11.153007469373202"><ele>319.6</ele><time>2026-03-28T15:29:26.997Z</time></trkpt><trkpt lat="43.72015519659427" lon="11.152954066901065"><ele>318.20000000000005</ele><time>2026-03-28T15:29:27.997Z</time></trkpt><trkpt lat="43.72006645746021" lon="11.152994276029993"><ele>316.79999999999995</ele><time>2026-03-28T15:29:28.997Z</time></trkpt><trkpt lat="43.71993468323499" lon="11.152983821424469"><ele>315.4</ele><time>2026-03-28T15:29:29.998Z</time></trkpt><trkpt lat="43.71981585591872" lon="11.152946866293357"><ele>314.0</ele><time>2026-03-28T15:29:30.998Z</time></trkpt><trkpt lat="43.71968112894009" lon="11.152914405229959"><ele>314.0</ele><time>2026-03-28T15:29:31.998Z</time></trkpt><trkpt lat="43.71955877474632" lon="11.152879267309958"><ele>314.0</ele><time>2026-03-28T15:29:32.998Z</time></trkpt><trkpt lat="43.719424380170196" lon="11.152804451164693"><ele>314.0</ele><time>2026-03-28T15:29:33.998Z</time></trkpt><trkpt lat="43.71929696105201" lon="11.152758104239187"><ele>314.0</ele><time>2026-03-28T15:29:34.998Z</time></trkpt><trkpt lat="43.71916320510114" lon="11.152757936476725"><ele>314.0</ele><time>2026-03-28T15:29:35.998Z</time></trkpt><trkpt lat="43.71904084715047" lon="11.152699609988577"><ele>314.0</ele><time>2026-03-28T15:29:36.998Z</time></trkpt><trkpt lat="43.71894450123002" lon="11.1526390765496"><ele>314.0</ele><time>2026-03-28T15:29:37.998Z</time></trkpt><trkpt lat="43.718863258545795" lon="11.152610773247757"><ele>314.0</ele><time>2026-03-28T15:29:38.998Z</time></trkpt><trkpt lat="43.71876424602375" lon="11.152601226561211"><ele>314.0</ele><time>2026-03-28T15:29:39.998Z</time></trkpt><trkpt lat="43.71863663659084" lon="11.15263604763434"><ele>314.0</ele><time>2026-03-28T15:29:40.998Z</time></trkpt><trkpt lat="43.71852296402283" lon="11.152674363964046"><ele>314.0</ele><time>2026-03-28T15:29:41.998Z</time></trkpt><trkpt lat="43.71838593184093" lon="11.152694291151485"><ele>314.0</ele><time>2026-03-28T15:29:42.998Z</time></trkpt><trkpt lat="43.71828166176632" lon="11.152726077416986"><ele>314.0</ele><time>2026-03-28T15:29:43.998Z</time></trkpt><trkpt lat="43.71820896994838" lon="11.15277850801163"><ele>314.0</ele><time>2026-03-28T15:29:44.999Z</time></trkpt><trkpt lat="43.71815888776221" lon="11.152859572624756"><ele>314.0</ele><time>2026-03-28T15:29:45.999Z</time></trkpt><trkpt lat="43.7181230421854" lon="11.152993517687564"><ele>314.0</ele><time>2026-03-28T15:29:46.999Z</time></trkpt><trkpt lat="43.71805148219838" lon="11.153081297557357"><ele>314.0</ele><time>2026-03-28T15:29:47.999Z</time></trkpt><trkpt lat="43.71797661960637" lon="11.15310837404316"><ele>314.0</ele><time>2026-03-28T15:29:48.999Z</time></trkpt><trkpt lat="43.71789960849256" lon="11.15310553205002"><ele>314.0</ele><time>2026-03-28T15:29:49.999Z</time></trkpt><trkpt lat="43.71779500603775" lon="11.15308317783233"><ele>313.25</ele><time>2026-03-28T15:29:50.999Z</time></trkpt><trkpt lat="43.71769534340228" lon="11.153029100945783"><ele>312.5</ele><time>2026-03-28T15:29:51.999Z</time></trkpt><trkpt lat="43.71755544814157" lon="11.152943219362077"><ele>311.75</ele><time>2026-03-28T15:29:52.999Z</time></trkpt><trkpt lat="43.71745609336337" lon="11.152907456878888"><ele>311.0</ele><time>2026-03-28T15:29:53.999Z</time></trkpt><trkpt lat="43.71734716222668" lon="11.152897956916544"><ele>311.0</ele><time>2026-03-28T15:29:54.999Z</time></trkpt><trkpt lat="43.717241876523374" lon="11.1529613818008"><ele>311.0</ele><time>2026-03-28T15:29:55.999Z</time></trkpt><trkpt lat="43.71714117112295" lon="11.152945087110826"><ele>311.0</ele><time>2026-03-28T15:29:56.999Z</time></trkpt><trkpt lat="43.717025942397704" lon="11.152901827077425"><ele>311.0</ele><time>2026-03-28T15:29:57.999Z</time></trkpt><trkpt lat="43.716902281662236" lon="11.152813949859407"><ele>314.5</ele><time>2026-03-28T15:29:58.999Z</time></trkpt><trkpt lat="43.71677947170423" lon="11.152723439897652"><ele>318.0</ele><time>2026-03-28T15:29:59.999Z</time></trkpt><trkpt lat="43.716686750040274" lon="11.152642646985205"><ele>321.5</ele><time>2026-03-28T15:30:00.999Z</time></trkpt><trkpt lat="43.71660061842551" lon="11.152544523057717"><ele>325.0</ele><time>2026-03-28T15:30:01.999Z</time></trkpt><trkpt lat="43.71651980926718" lon="11.152466619442231"><ele>325.0</ele><time>2026-03-28T15:30:02.999Z</time></trkpt><trkpt lat="43.71643874254009" lon="11.152414703935841"><ele>325.0</ele><time>2026-03-28T15:30:03.999Z</time></trkpt><trkpt lat="43.71632879564747" lon="11.152465624335827"><ele>325.0</ele><time>2026-03-28T15:30:05Z</time></trkpt><trkpt lat="43.71623217032371" lon="11.152490877370896"><ele>325.0</ele><time>2026-03-28T15:30:06Z</time></trkpt><trkpt lat="43.7161015763712" lon="11.15247052214854"><ele>325.0</ele><time>2026-03-28T15:30:07Z</time></trkpt><trkpt lat="43.71597314295472" lon="11.152485089226388"><ele>327.0</ele><time>2026-03-28T15:30:08Z</time></trkpt><trkpt lat="43.71583332960307" lon="11.15251736948529"><ele>329.0</ele><time>2026-03-28T15:30:09Z</time></trkpt><trkpt lat="43.715696736763014" lon="11.152552116003498"><ele>331.0</ele><time>2026-03-28T15:30:10Z</time></trkpt><trkpt lat="43.71557676596171" lon="11.152582681052182"><ele>333.0</ele><time>2026-03-28T15:30:11Z</time></trkpt><trkpt lat="43.71549183341353" lon="11.152652157367477"><ele>333.0</ele><time>2026-03-28T15:30:12Z</time></trkpt><trkpt lat="43.7154407566216" lon="11.152742296045357"><ele>333.0</ele><time>2026-03-28T15:30:13Z</time></trkpt><trkpt lat="43.71544797030153" lon="11.152867699452104"><ele>333.0</ele><time>2026-03-28T15:30:14Z</time></trkpt><trkpt lat="43.71542970600665" lon="11.152962820373993"><ele>333.0</ele><time>2026-03-28T15:30:15Z</time></trkpt><trkpt lat="43.71539076734841" lon="11.153063338642163"><ele>333.0</ele><time>2026-03-28T15:30:17Z</time></trkpt><trkpt lat="43.715325530853555" lon="11.153094286919844"><ele>333.0</ele><time>2026-03-28T15:30:18Z</time></trkpt><trkpt lat="43.715215960918904" lon="11.153151381515713"><ele>332.5</ele><time>2026-03-28T15:30:19Z</time></trkpt><trkpt lat="43.71508517282171" lon="11.153218169212206"><ele>332.0</ele><time>2026-03-28T15:30:20Z</time></trkpt><trkpt lat="43.714935585452196" lon="11.153293873234594"><ele>331.5</ele><time>2026-03-28T15:30:21Z</time></trkpt><trkpt lat="43.714799942989025" lon="11.153370312667567"><ele>331.0</ele><time>2026-03-28T15:30:22Z</time></trkpt><trkpt lat="43.71467967724628" lon="11.153457824610992"><ele>331.0</ele><time>2026-03-28T15:30:23Z</time></trkpt><trkpt lat="43.714586094087295" lon="11.153486176110817"><ele>331.0</ele><time>2026-03-28T15:30:24Z</time></trkpt><trkpt lat="43.714503256767195" lon="11.153492709931632"><ele>331.0</ele><time>2026-03-28T15:30:25Z</time></trkpt><trkpt lat="43.71442111559367" lon="11.153491543847629"><ele>331.0</ele><time>2026-03-28T15:30:26Z</time></trkpt><trkpt lat="43.71432846776269" lon="11.15348759874796"><ele>331.0</ele><time>2026-03-28T15:30:28Z</time></trkpt><trkpt lat="43.71426347345694" lon="11.153747983251737"><ele>328.66666666666663</ele><time>2026-03-28T15:30:31Z</time></trkpt><trkpt lat="43.71425170197779" lon="11.153844291999718"><ele>326.3333333333333</ele><time>2026-03-28T15:30:32Z</time></trkpt><trkpt lat="43.71422490200662" lon="11.153956182300455"><ele>324.0</ele><time>2026-03-28T15:30:33Z</time></trkpt><trkpt lat="43.71422895108261" lon="11.15406964517753"><ele>321.6666666666667</ele><time>2026-03-28T15:30:34Z</time></trkpt><trkpt lat="43.714213927391356" lon="11.1541735900287"><ele>319.33333333333337</ele><time>2026-03-28T15:30:35Z</time></trkpt><trkpt lat="43.714193510827585" lon="11.154293210882082"><ele>317.0</ele><time>2026-03-28T15:30:36Z</time></trkpt><trkpt lat="43.71416984331635" lon="11.154425088868768"><ele>317.0</ele><time>2026-03-28T15:30:37Z</time></trkpt><trkpt lat="43.71414257943467" lon="11.15454784603707"><ele>317.0</ele><time>2026-03-28T15:30:38Z</time></trkpt><trkpt lat="43.71412253256776" lon="11.154662602739862"><ele>317.0</ele><time>2026-03-28T15:30:39.001Z</time></trkpt><trkpt lat="43.71409196505655" lon="11.154774870020429"><ele>317.0</ele><time>2026-03-28T15:30:40.001Z</time></trkpt><trkpt lat="43.71408516653122" lon="11.154884949039328"><ele>317.0</ele><time>2026-03-28T15:30:41.001Z</time></trkpt><trkpt lat="43.714081683724004" lon="11.154974132488645"><ele>317.0</ele><time>2026-03-28T15:30:42.001Z</time></trkpt><trkpt lat="43.71408944496638" lon="11.155139886737388"><ele>317.0</ele><time>2026-03-28T15:30:44.001Z</time></trkpt><trkpt lat="43.71413030636698" lon="11.155231907382026"><ele>317.0</ele><time>2026-03-28T15:30:45.001Z</time></trkpt><trkpt lat="43.71417509838518" lon="11.15534975156231"><ele>317.0</ele><time>2026-03-28T15:30:46.001Z</time></trkpt><trkpt lat="43.71419899850685" lon="11.155435490848669"><ele>317.0</ele><time>2026-03-28T15:30:47.001Z</time></trkpt><trkpt lat="43.714206152324415" lon="11.155557208483973"><ele>317.0</ele><time>2026-03-28T15:30:48.001Z</time></trkpt><trkpt lat="43.714177004424684" lon="11.15567974255552"><ele>317.0</ele><time>2026-03-28T15:30:50.001Z</time></trkpt><trkpt lat="43.71412771200774" lon="11.155850615569458"><ele>317.0</ele><time>2026-03-28T15:30:52.001Z</time></trkpt><trkpt lat="43.71407655776861" lon="11.155960781786307"><ele>317.0</ele><time>2026-03-28T15:30:53.001Z</time></trkpt><trkpt lat="43.71401318403423" lon="11.156081398497168"><ele>317.0</ele><time>2026-03-28T15:30:54.001Z</time></trkpt><trkpt lat="43.7139621005957" lon="11.15619316666439"><ele>317.0</ele><time>2026-03-28T15:30:55.001Z</time></trkpt><trkpt lat="43.71391999611194" lon="11.156287810092987"><ele>317.0</ele><time>2026-03-28T15:30:56.001Z</time></trkpt><trkpt lat="43.7138767273272" lon="11.156387099516705"><ele>317.0</ele><time>2026-03-28T15:30:57.001Z</time></trkpt><trkpt lat="43.71382812153439" lon="11.1564938922541"><ele>317.0</ele><time>2026-03-28T15:30:58.001Z</time></trkpt><trkpt lat="43.713778431902526" lon="11.156610500154526"><ele>317.0</ele><time>2026-03-28T15:30:59.001Z</time></trkpt><trkpt lat="43.71371262547136" lon="11.15673386552915"><ele>317.0</ele><time>2026-03-28T15:31:00.001Z</time></trkpt><trkpt lat="43.71366955007862" lon="11.15685375091858"><ele>317.0</ele><time>2026-03-28T15:31:01.001Z</time></trkpt><trkpt lat="43.71362457346197" lon="11.156943018668034"><ele>315.6666666666667</ele><time>2026-03-28T15:31:02.001Z</time></trkpt><trkpt lat="43.71358341740575" lon="11.157038269370478"><ele>314.33333333333337</ele><time>2026-03-28T15:31:03.001Z</time></trkpt><trkpt lat="43.7135417856458" lon="11.157124543347406"><ele>313.0</ele><time>2026-03-28T15:31:04.001Z</time></trkpt><trkpt lat="43.713501330107356" lon="11.157209532549722"><ele>311.6666666666667</ele><time>2026-03-28T15:31:05.001Z</time></trkpt><trkpt lat="43.713472683090984" lon="11.157315784683735"><ele>310.3333333333333</ele><time>2026-03-28T15:31:06.001Z</time></trkpt><trkpt lat="43.71343819287253" lon="11.157426043313686"><ele>309.0</ele><time>2026-03-28T15:31:07.001Z</time></trkpt><trkpt lat="43.71339815526514" lon="11.157536235558121"><ele>309.0</ele><time>2026-03-28T15:31:08.001Z</time></trkpt><trkpt lat="43.71335067505775" lon="11.157631946821185"><ele>309.0</ele><time>2026-03-28T15:31:09.001Z</time></trkpt><trkpt lat="43.71330693799965" lon="11.157724062012894"><ele>309.0</ele><time>2026-03-28T15:31:10.001Z</time></trkpt><trkpt lat="43.713296065838485" lon="11.157817643111898"><ele>309.0</ele><time>2026-03-28T15:31:11.001Z</time></trkpt><trkpt lat="43.7132156134428" lon="11.157974819749608"><ele>309.0</ele><time>2026-03-28T15:31:13.001Z</time></trkpt><trkpt lat="43.71316182218197" lon="11.15805122479046"><ele>309.0</ele><time>2026-03-28T15:31:14.001Z</time></trkpt><trkpt lat="43.71311223548369" lon="11.158115468028118"><ele>309.0</ele><time>2026-03-28T15:31:15.001Z</time></trkpt><trkpt lat="43.7130588622354" lon="11.158175919518868"><ele>309.0</ele><time>2026-03-28T15:31:16.001Z</time></trkpt><trkpt lat="43.712986122518274" lon="11.158226383913657"><ele>309.0</ele><time>2026-03-28T15:31:17.001Z</time></trkpt><trkpt lat="43.71291242822598" lon="11.15829097791025"><ele>309.0</ele><time>2026-03-28T15:31:18.001Z</time></trkpt><trkpt lat="43.71284158483937" lon="11.158358888304274"><ele>309.0</ele><time>2026-03-28T15:31:19.001Z</time></trkpt><trkpt lat="43.712779089490475" lon="11.158430684472872"><ele>309.0</ele><time>2026-03-28T15:31:20.001Z</time></trkpt><trkpt lat="43.71270793290484" lon="11.158512828728282"><ele>307.8</ele><time>2026-03-28T15:31:21.002Z</time></trkpt><trkpt lat="43.71263865288059" lon="11.158597732517404"><ele>306.59999999999997</ele><time>2026-03-28T15:31:22.002Z</time></trkpt><trkpt lat="43.712579645164" lon="11.158677366625007"><ele>305.4</ele><time>2026-03-28T15:31:23.002Z</time></trkpt><trkpt lat="43.71251521457083" lon="11.158738343730448"><ele>304.2</ele><time>2026-03-28T15:31:24.002Z</time></trkpt><trkpt lat="43.71245440860226" lon="11.158804873645444"><ele>303.0</ele><time>2026-03-28T15:31:25.002Z</time></trkpt><trkpt lat="43.712385141236375" lon="11.158985602529036"><ele>305.3333333333333</ele><time>2026-03-28T15:31:27.002Z</time></trkpt><trkpt lat="43.71235170227145" lon="11.159096997538473"><ele>307.6666666666667</ele><time>2026-03-28T15:31:28.002Z</time></trkpt><trkpt lat="43.712317963679695" lon="11.159207268113136"><ele>310.0</ele><time>2026-03-28T15:31:29.002Z</time></trkpt><trkpt lat="43.71228426499642" lon="11.159321138224161"><ele>312.33333333333337</ele><time>2026-03-28T15:31:30.002Z</time></trkpt><trkpt lat="43.71224642670841" lon="11.159440936030313"><ele>314.6666666666667</ele><time>2026-03-28T15:31:31.002Z</time></trkpt><trkpt lat="43.7122247689401" lon="11.159545777619298"><ele>317.0</ele><time>2026-03-28T15:31:32Z</time></trkpt><trkpt lat="43.71218870173364" lon="11.159647673547179"><ele>317.0</ele><time>2026-03-28T15:31:33Z</time></trkpt><trkpt lat="43.712162460073486" lon="11.159753110815787"><ele>317.0</ele><time>2026-03-28T15:31:34Z</time></trkpt><trkpt lat="43.71213599751289" lon="11.159855718359001"><ele>317.0</ele><time>2026-03-28T15:31:35Z</time></trkpt><trkpt lat="43.71211050009947" lon="11.159949259901746"><ele>317.0</ele><time>2026-03-28T15:31:36Z</time></trkpt><trkpt lat="43.71208914148472" lon="11.16005745086969"><ele>317.0</ele><time>2026-03-28T15:31:37Z</time></trkpt><trkpt lat="43.71202091437817" lon="11.160186284297728"><ele>317.0</ele><time>2026-03-28T15:31:39Z</time></trkpt><trkpt lat="43.7119008162897" lon="11.16027718677917"><ele>313.0</ele><time>2026-03-28T15:31:41Z</time></trkpt><trkpt lat="43.711803225301466" lon="11.160309846257633"><ele>309.0</ele><time>2026-03-28T15:31:42Z</time></trkpt><trkpt lat="43.71170141853317" lon="11.16032214875879"><ele>305.0</ele><time>2026-03-28T15:31:43Z</time></trkpt><trkpt lat="43.71162518108234" lon="11.16035158933674"><ele>301.0</ele><time>2026-03-28T15:31:44Z</time></trkpt><trkpt lat="43.71154576826771" lon="11.16040337167169"><ele>297.0</ele><time>2026-03-28T15:31:46Z</time></trkpt><trkpt lat="43.71146699998167" lon="11.160506523024884"><ele>297.0</ele><time>2026-03-28T15:31:48Z</time></trkpt><trkpt lat="43.711447183421555" lon="11.160604292712886"><ele>297.0</ele><time>2026-03-28T15:31:49Z</time></trkpt><trkpt lat="43.711432654394926" lon="11.160695235862661"><ele>297.0</ele><time>2026-03-28T15:31:50Z</time></trkpt><trkpt lat="43.71141830912349" lon="11.160826413267326"><ele>297.0</ele><time>2026-03-28T15:31:52Z</time></trkpt><trkpt lat="43.711378287582285" lon="11.160919013980061"><ele>297.0</ele><time>2026-03-28T15:31:54Z</time></trkpt><trkpt lat="43.71133273363279" lon="11.161094294032704"><ele>297.0</ele><time>2026-03-28T15:31:56Z</time></trkpt><trkpt lat="43.71132464087467" lon="11.161208167985524"><ele>299.0</ele><time>2026-03-28T15:31:57Z</time></trkpt><trkpt lat="43.7112989012566" lon="11.161314203197637"><ele>301.0</ele><time>2026-03-28T15:31:58Z</time></trkpt><trkpt lat="43.71129412414046" lon="11.161415964838241"><ele>303.0</ele><time>2026-03-28T15:31:59Z</time></trkpt><trkpt lat="43.711292912795116" lon="11.161523079655389"><ele>305.0</ele><time>2026-03-28T15:32:00Z</time></trkpt><trkpt lat="43.71128339686019" lon="11.16162891554589"><ele>307.0</ele><time>2026-03-28T15:32:01Z</time></trkpt><trkpt lat="43.711280399825846" lon="11.16173459531321"><ele>309.0</ele><time>2026-03-28T15:32:02Z</time></trkpt><trkpt lat="43.71127861542707" lon="11.16184672860936"><ele>310.00000000000006</ele><time>2026-03-28T15:32:03Z</time></trkpt><trkpt lat="43.7112685872078" lon="11.161960577480285"><ele>311.0</ele><time>2026-03-28T15:32:04Z</time></trkpt><trkpt lat="43.71126870982564" lon="11.162057682267442"><ele>312.0</ele><time>2026-03-28T15:32:05Z</time></trkpt><trkpt lat="43.71126677359638" lon="11.162148559167385"><ele>313.0</ele><time>2026-03-28T15:32:06Z</time></trkpt><trkpt lat="43.71124706262373" lon="11.162238379962503"><ele>314.0</ele><time>2026-03-28T15:32:07Z</time></trkpt><trkpt lat="43.71124757147317" lon="11.162328887232574"><ele>315.00000000000006</ele><time>2026-03-28T15:32:08Z</time></trkpt><trkpt lat="43.71124896270236" lon="11.16241979898328"><ele>316.0</ele><time>2026-03-28T15:32:09Z</time></trkpt><trkpt lat="43.7112555813979" lon="11.162518216262418"><ele>316.0</ele><time>2026-03-28T15:32:10Z</time></trkpt><trkpt lat="43.71127645142042" lon="11.162611743178708"><ele>316.0</ele><time>2026-03-28T15:32:11Z</time></trkpt><trkpt lat="43.711288030365075" lon="11.162710002768186"><ele>316.0</ele><time>2026-03-28T15:32:12Z</time></trkpt><trkpt lat="43.71135489042214" lon="11.162851768509766"><ele>316.0</ele><time>2026-03-28T15:32:14.001Z</time></trkpt><trkpt lat="43.711436783306745" lon="11.162966100224022"><ele>316.0</ele><time>2026-03-28T15:32:16.001Z</time></trkpt><trkpt lat="43.71150022252404" lon="11.16299503043133"><ele>316.0</ele><time>2026-03-28T15:32:17.001Z</time></trkpt><trkpt lat="43.711571953140634" lon="11.163070068388325"><ele>316.0</ele><time>2026-03-28T15:32:18.001Z</time></trkpt><trkpt lat="43.711654185543644" lon="11.163101318595462"><ele>316.0</ele><time>2026-03-28T15:32:19.001Z</time></trkpt><trkpt lat="43.71172147910405" lon="11.163167663014741"><ele>316.0</ele><time>2026-03-28T15:32:20.001Z</time></trkpt><trkpt lat="43.7118081749974" lon="11.16322106029753"><ele>316.0</ele><time>2026-03-28T15:32:21.001Z</time></trkpt><trkpt lat="43.71190448839405" lon="11.163277784228866"><ele>316.0</ele><time>2026-03-28T15:32:22.001Z</time></trkpt><trkpt lat="43.711982374821766" lon="11.16328971212092"><ele>316.0</ele><time>2026-03-28T15:32:23.001Z</time></trkpt><trkpt lat="43.71206668608799" lon="11.163345284391148"><ele>316.0</ele><time>2026-03-28T15:32:24.001Z</time></trkpt><trkpt lat="43.71215126103253" lon="11.163397951540007"><ele>316.0</ele><time>2026-03-28T15:32:25.001Z</time></trkpt><trkpt lat="43.71222378422361" lon="11.163448255477043"><ele>316.0</ele><time>2026-03-28T15:32:26.001Z</time></trkpt><trkpt lat="43.71229015792398" lon="11.163491596926251"><ele>316.0</ele><time>2026-03-28T15:32:27.001Z</time></trkpt><trkpt lat="43.71238010392276" lon="11.163550362998999"><ele>316.0</ele><time>2026-03-28T15:32:28.001Z</time></trkpt><trkpt lat="43.712468845532975" lon="11.163598342936158"><ele>316.0</ele><time>2026-03-28T15:32:29.001Z</time></trkpt><trkpt lat="43.712559916652296" lon="11.163643486691246"><ele>316.0</ele><time>2026-03-28T15:32:30.001Z</time></trkpt><trkpt lat="43.7126574464155" lon="11.163691428798874"><ele>316.0</ele><time>2026-03-28T15:32:31.001Z</time></trkpt><trkpt lat="43.71275275262036" lon="11.163747479831773"><ele>316.0</ele><time>2026-03-28T15:32:32.001Z</time></trkpt><trkpt lat="43.712827389906685" lon="11.163820127393924"><ele>316.0</ele><time>2026-03-28T15:32:33.001Z</time></trkpt><trkpt lat="43.71289257914233" lon="11.163861526326553"><ele>316.0</ele><time>2026-03-28T15:32:34.001Z</time></trkpt><trkpt lat="43.71301577466149" lon="11.163904504254297"><ele>317.4</ele><time>2026-03-28T15:32:36.001Z</time></trkpt><trkpt lat="43.71311230210113" lon="11.163896944569457"><ele>318.8</ele><time>2026-03-28T15:32:37.001Z</time></trkpt><trkpt lat="43.71320388172074" lon="11.163879957665811"><ele>320.2</ele><time>2026-03-28T15:32:38.001Z</time></trkpt><trkpt lat="43.71329040565831" lon="11.163861285754196"><ele>321.59999999999997</ele><time>2026-03-28T15:32:39.001Z</time></trkpt><trkpt lat="43.71338422277699" lon="11.163835217499571"><ele>323.0</ele><time>2026-03-28T15:32:40.001Z</time></trkpt><trkpt lat="43.713484150232915" lon="11.163790335480574"><ele>322.79999999999995</ele><time>2026-03-28T15:32:41.001Z</time></trkpt><trkpt lat="43.71359042342045" lon="11.16376960218376"><ele>322.6</ele><time>2026-03-28T15:32:42.001Z</time></trkpt><trkpt lat="43.713686619674036" lon="11.163727369361935"><ele>322.4</ele><time>2026-03-28T15:32:43.001Z</time></trkpt><trkpt lat="43.71379105433758" lon="11.163744486444905"><ele>322.20000000000005</ele><time>2026-03-28T15:32:44.001Z</time></trkpt><trkpt lat="43.71385027865174" lon="11.163710888021352"><ele>322.0</ele><time>2026-03-28T15:32:45.001Z</time></trkpt><trkpt lat="43.713971080431484" lon="11.163722447526009"><ele>322.0</ele><time>2026-03-28T15:32:47.001Z</time></trkpt><trkpt lat="43.714043274343716" lon="11.163719277255547"><ele>322.0</ele><time>2026-03-28T15:32:48.001Z</time></trkpt><trkpt lat="43.714119360202396" lon="11.163780054391548"><ele>322.0</ele><time>2026-03-28T15:32:49.001Z</time></trkpt><trkpt lat="43.714203063855145" lon="11.163828833001498"><ele>322.0</ele><time>2026-03-28T15:32:50.001Z</time></trkpt><trkpt lat="43.71429075934043" lon="11.163901500698126"><ele>322.0</ele><time>2026-03-28T15:32:51.001Z</time></trkpt><trkpt lat="43.71438762775718" lon="11.163947653293203"><ele>320.6</ele><time>2026-03-28T15:32:52.001Z</time></trkpt><trkpt lat="43.71448671523865" lon="11.163938965832239"><ele>319.20000000000005</ele><time>2026-03-28T15:32:53.002Z</time></trkpt><trkpt lat="43.71457439393688" lon="11.163971220973437"><ele>317.8</ele><time>2026-03-28T15:32:54.002Z</time></trkpt><trkpt lat="43.7146580746008" lon="11.163995008554306"><ele>316.4</ele><time>2026-03-28T15:32:55.002Z</time></trkpt><trkpt lat="43.71477481914547" lon="11.164010140112081"><ele>315.0</ele><time>2026-03-28T15:32:56.002Z</time></trkpt><trkpt lat="43.714868205171605" lon="11.164016330188332"><ele>315.0</ele><time>2026-03-28T15:32:57.002Z</time></trkpt><trkpt lat="43.714943377022806" lon="11.164028887006333"><ele>315.0</ele><time>2026-03-28T15:32:58.002Z</time></trkpt><trkpt lat="43.715010558214544" lon="11.164054141358244"><ele>315.0</ele><time>2026-03-28T15:32:59.002Z</time></trkpt><trkpt lat="43.71507970110799" lon="11.164154437983164"><ele>315.0</ele><time>2026-03-28T15:33:01.002Z</time></trkpt><trkpt lat="43.71514696566485" lon="11.16427975866007"><ele>315.0</ele><time>2026-03-28T15:33:03.002Z</time></trkpt><trkpt lat="43.71523240511397" lon="11.164434402100555"><ele>314.8</ele><time>2026-03-28T15:33:04.002Z</time></trkpt><trkpt lat="43.7152939149018" lon="11.16454545845231"><ele>314.6</ele><time>2026-03-28T15:33:05.002Z</time></trkpt><trkpt lat="43.71536938878962" lon="11.164650473048047"><ele>314.4</ele><time>2026-03-28T15:33:06.002Z</time></trkpt><trkpt lat="43.71543230693557" lon="11.164791742318323"><ele>314.2</ele><time>2026-03-28T15:33:07.002Z</time></trkpt><trkpt lat="43.71550813437743" lon="11.16491146355795"><ele>314.0</ele><time>2026-03-28T15:33:08.002Z</time></trkpt><trkpt lat="43.715564889003936" lon="11.165016946917715"><ele>314.0</ele><time>2026-03-28T15:33:09.002Z</time></trkpt><trkpt lat="43.71561172541345" lon="11.165108616590365"><ele>314.0</ele><time>2026-03-28T15:33:10.002Z</time></trkpt><trkpt lat="43.7156509367603" lon="11.165207833374"><ele>314.0</ele><time>2026-03-28T15:33:11.002Z</time></trkpt><trkpt lat="43.71567102591869" lon="11.165329169071398"><ele>314.0</ele><time>2026-03-28T15:33:12.002Z</time></trkpt><trkpt lat="43.715707241416524" lon="11.1654341726119"><ele>314.0</ele><time>2026-03-28T15:33:13.002Z</time></trkpt><trkpt lat="43.71575351078371" lon="11.165522215179884"><ele>314.0</ele><time>2026-03-28T15:33:14.002Z</time></trkpt><trkpt lat="43.71579432259755" lon="11.16559193293194"><ele>314.0</ele><time>2026-03-28T15:33:15.002Z</time></trkpt><trkpt lat="43.71584748727328" lon="11.165676438153044"><ele>314.0</ele><time>2026-03-28T15:33:16.002Z</time></trkpt><trkpt lat="43.71591079810625" lon="11.165767291576618"><ele>314.0</ele><time>2026-03-28T15:33:17.002Z</time></trkpt><trkpt lat="43.715997028873886" lon="11.165871189804152"><ele>314.0</ele><time>2026-03-28T15:33:18.002Z</time></trkpt><trkpt lat="43.716082590652434" lon="11.165963064164677"><ele>314.0</ele><time>2026-03-28T15:33:19.002Z</time></trkpt><trkpt lat="43.716161189969" lon="11.166041002568614"><ele>314.33333333333337</ele><time>2026-03-28T15:33:20.002Z</time></trkpt><trkpt lat="43.71624452276908" lon="11.166098889153478"><ele>314.6666666666667</ele><time>2026-03-28T15:33:21.002Z</time></trkpt><trkpt lat="43.716321045616034" lon="11.166192213368758"><ele>315.0</ele><time>2026-03-28T15:33:22.002Z</time></trkpt><trkpt lat="43.71639264024957" lon="11.166252704498008"><ele>315.3333333333333</ele><time>2026-03-28T15:33:23.002Z</time></trkpt><trkpt lat="43.716437039471664" lon="11.16632560090126"><ele>315.66666666666663</ele><time>2026-03-28T15:33:24.002Z</time></trkpt><trkpt lat="43.716480162527404" lon="11.166391340147388"><ele>316.0</ele><time>2026-03-28T15:33:25.002Z</time></trkpt><trkpt lat="43.7165155101121" lon="11.16647690554297"><ele>315.6</ele><time>2026-03-28T15:33:27.002Z</time></trkpt><trkpt lat="43.71651927896045" lon="11.16662405416318"><ele>315.20000000000005</ele><time>2026-03-28T15:33:29.002Z</time></trkpt><trkpt lat="43.71643846597874" lon="11.166748519467523"><ele>314.79999999999995</ele><time>2026-03-28T15:33:30.002Z</time></trkpt><trkpt lat="43.71639035046275" lon="11.166870981124179"><ele>314.4</ele><time>2026-03-28T15:33:31.002Z</time></trkpt><trkpt lat="43.716328425035194" lon="11.166988231698378"><ele>314.0</ele><time>2026-03-28T15:33:32.002Z</time></trkpt><trkpt lat="43.71629732121704" lon="11.167097028250842"><ele>314.0</ele><time>2026-03-28T15:33:33.003Z</time></trkpt><trkpt lat="43.716266787929506" lon="11.167189784053265"><ele>314.0</ele><time>2026-03-28T15:33:34.003Z</time></trkpt><trkpt lat="43.71623396097543" lon="11.167286840106264"><ele>314.0</ele><time>2026-03-28T15:33:35.003Z</time></trkpt><trkpt lat="43.71618282499478" lon="11.167379856172476"><ele>314.0</ele><time>2026-03-28T15:33:36.003Z</time></trkpt><trkpt lat="43.716144699780756" lon="11.167503477023542"><ele>314.0</ele><time>2026-03-28T15:33:37.003Z</time></trkpt><trkpt lat="43.71610042573853" lon="11.167623138877426"><ele>314.0</ele><time>2026-03-28T15:33:38.001Z</time></trkpt><trkpt lat="43.71604604967751" lon="11.167746811181447"><ele>311.83333333333337</ele><time>2026-03-28T15:33:39.001Z</time></trkpt><trkpt lat="43.71598149777751" lon="11.167847410119522"><ele>309.6666666666667</ele><time>2026-03-28T15:33:40.001Z</time></trkpt><trkpt lat="43.71591083673193" lon="11.16791021357775"><ele>307.5</ele><time>2026-03-28T15:33:41.001Z</time></trkpt><trkpt lat="43.715852076874896" lon="11.167999977339102"><ele>305.3333333333333</ele><time>2026-03-28T15:33:42.001Z</time></trkpt><trkpt lat="43.715778793368266" lon="11.168059416702492"><ele>303.16666666666663</ele><time>2026-03-28T15:33:43.001Z</time></trkpt><trkpt lat="43.715713230513146" lon="11.168098108913656"><ele>301.0</ele><time>2026-03-28T15:33:44.001Z</time></trkpt><trkpt lat="43.71560297801251" lon="11.168111442379203"><ele>301.0</ele><time>2026-03-28T15:33:46.001Z</time></trkpt><trkpt lat="43.715505680127926" lon="11.1681097705406"><ele>301.0</ele><time>2026-03-28T15:33:48.001Z</time></trkpt><trkpt lat="43.71539782511363" lon="11.168078821084775"><ele>301.0</ele><time>2026-03-28T15:33:50.001Z</time></trkpt><trkpt lat="43.71534247210553" lon="11.1680136587907"><ele>301.0</ele><time>2026-03-28T15:33:51.001Z</time></trkpt><trkpt lat="43.71526993988321" lon="11.167972547131978"><ele>301.0</ele><time>2026-03-28T15:33:52.001Z</time></trkpt><trkpt lat="43.715200601515726" lon="11.167949130873836"><ele>301.0</ele><time>2026-03-28T15:33:53.001Z</time></trkpt><trkpt lat="43.71507828135215" lon="11.167922872936503"><ele>298.66666666666663</ele><time>2026-03-28T15:33:55.001Z</time></trkpt><trkpt lat="43.71499758619957" lon="11.16793316951179"><ele>296.3333333333333</ele><time>2026-03-28T15:33:56.001Z</time></trkpt><trkpt lat="43.71490170069681" lon="11.167945457110637"><ele>294.0</ele><time>2026-03-28T15:33:57.001Z</time></trkpt><trkpt lat="43.71479848311344" lon="11.167963368909549"><ele>291.6666666666667</ele><time>2026-03-28T15:33:58.001Z</time></trkpt><trkpt lat="43.7147193652029" lon="11.167983046335179"><ele>289.33333333333337</ele><time>2026-03-28T15:33:59.001Z</time></trkpt><trkpt lat="43.714644352800974" lon="11.168005787466983"><ele>287.0</ele><time>2026-03-28T15:34:00.001Z</time></trkpt><trkpt lat="43.714561843666594" lon="11.168036241952736"><ele>287.0</ele><time>2026-03-28T15:34:01.001Z</time></trkpt><trkpt lat="43.714471612706156" lon="11.168083912689315"><ele>287.0</ele><time>2026-03-28T15:34:02.001Z</time></trkpt><trkpt lat="43.714394184486935" lon="11.168154951269042"><ele>287.0</ele><time>2026-03-28T15:34:03.001Z</time></trkpt><trkpt lat="43.71431763823959" lon="11.168227808629092"><ele>287.0</ele><time>2026-03-28T15:34:04.001Z</time></trkpt><trkpt lat="43.71425508316414" lon="11.168303331211579"><ele>287.0</ele><time>2026-03-28T15:34:05.001Z</time></trkpt><trkpt lat="43.714189912378366" lon="11.168401140592309"><ele>286.6</ele><time>2026-03-28T15:34:06.001Z</time></trkpt><trkpt lat="43.71412346957403" lon="11.16851569743795"><ele>286.2</ele><time>2026-03-28T15:34:07.001Z</time></trkpt><trkpt lat="43.71405605624978" lon="11.168637439179872"><ele>285.8</ele><time>2026-03-28T15:34:08.001Z</time></trkpt><trkpt lat="43.71398987807713" lon="11.16874914741526"><ele>285.4</ele><time>2026-03-28T15:34:09.001Z</time></trkpt><trkpt lat="43.71391956138746" lon="11.168793406437489"><ele>285.0</ele><time>2026-03-28T15:34:10.001Z</time></trkpt><trkpt lat="43.71379432806499" lon="11.16889439854289"><ele>285.0</ele><time>2026-03-28T15:34:12.001Z</time></trkpt><trkpt lat="43.713708339002174" lon="11.168936481847872"><ele>285.0</ele><time>2026-03-28T15:34:13.001Z</time></trkpt><trkpt lat="43.7136249271545" lon="11.168988490131081"><ele>285.0</ele><time>2026-03-28T15:34:14.001Z</time></trkpt><trkpt lat="43.71355168037063" lon="11.169040002867206"><ele>285.0</ele><time>2026-03-28T15:34:15.001Z</time></trkpt><trkpt lat="43.71348934663027" lon="11.169084141754954"><ele>285.0</ele><time>2026-03-28T15:34:16.001Z</time></trkpt><trkpt lat="43.713421157598134" lon="11.169142364035352"><ele>285.0</ele><time>2026-03-28T15:34:17.001Z</time></trkpt><trkpt lat="43.713344441239386" lon="11.1692005326303"><ele>285.0</ele><time>2026-03-28T15:34:18.001Z</time></trkpt><trkpt lat="43.71328300266991" lon="11.169245669497961"><ele>285.0</ele><time>2026-03-28T15:34:19.001Z</time></trkpt><trkpt lat="43.713181868722344" lon="11.16931186379163"><ele>285.0</ele><time>2026-03-28T15:34:21.001Z</time></trkpt><trkpt lat="43.7131273184266" lon="11.16938331856602"><ele>285.0</ele><time>2026-03-28T15:34:22.001Z</time></trkpt><trkpt lat="43.713051065747464" lon="11.169456831380565"><ele>285.0</ele><time>2026-03-28T15:34:23.001Z</time></trkpt><trkpt lat="43.71297661626238" lon="11.169541339621096"><ele>285.0</ele><time>2026-03-28T15:34:24.001Z</time></trkpt><trkpt lat="43.71294012489563" lon="11.169638113735777"><ele>285.0</ele><time>2026-03-28T15:34:25.001Z</time></trkpt><trkpt lat="43.7128999121229" lon="11.169716640885435"><ele>285.0</ele><time>2026-03-28T15:34:26.001Z</time></trkpt><trkpt lat="43.71283136088066" lon="11.169990325859116"><ele>285.0</ele><time>2026-03-28T15:34:27.001Z</time></trkpt><trkpt lat="43.7126184070893" lon="11.170149748861018"><ele>284.6666666666667</ele><time>2026-03-28T15:34:28.001Z</time></trkpt><trkpt lat="43.71234576792412" lon="11.169985774664612"><ele>284.33333333333337</ele><time>2026-03-28T15:34:29.001Z</time></trkpt><trkpt lat="43.71224225263853" lon="11.169965414471076"><ele>284.0</ele><time>2026-03-28T15:34:30.001Z</time></trkpt><trkpt lat="43.712136259223136" lon="11.169949307030034"><ele>284.0</ele><time>2026-03-28T15:34:31.001Z</time></trkpt><trkpt lat="43.71204450697527" lon="11.169925016920603"><ele>284.0</ele><time>2026-03-28T15:34:32.001Z</time></trkpt><trkpt lat="43.711975671661925" lon="11.16991744199084"><ele>284.0</ele><time>2026-03-28T15:34:33.001Z</time></trkpt><trkpt lat="43.71185538659756" lon="11.169940747937165"><ele>284.0</ele><time>2026-03-28T15:34:35.001Z</time></trkpt><trkpt lat="43.71177661195885" lon="11.169981259376705"><ele>284.0</ele><time>2026-03-28T15:34:36.001Z</time></trkpt><trkpt lat="43.71167677158717" lon="11.170074769250867"><ele>284.33333333333337</ele><time>2026-03-28T15:34:37.001Z</time></trkpt><trkpt lat="43.7116029582996" lon="11.170195650154959"><ele>284.6666666666667</ele><time>2026-03-28T15:34:38.001Z</time></trkpt><trkpt lat="43.711538317013634" lon="11.170282850332649"><ele>285.0</ele><time>2026-03-28T15:34:39.001Z</time></trkpt><trkpt lat="43.711470905025486" lon="11.170332093583212"><ele>285.3333333333333</ele><time>2026-03-28T15:34:40.001Z</time></trkpt><trkpt lat="43.71140210583985" lon="11.170367214965568"><ele>285.66666666666663</ele><time>2026-03-28T15:34:41.001Z</time></trkpt><trkpt lat="43.71133872266177" lon="11.170404189830306"><ele>286.0</ele><time>2026-03-28T15:34:42.001Z</time></trkpt><trkpt lat="43.711271527839564" lon="11.170425196949967"><ele>286.0</ele><time>2026-03-28T15:34:43.001Z</time></trkpt><trkpt lat="43.71116511605604" lon="11.170412091392892"><ele>286.0</ele><time>2026-03-28T15:34:45.002Z</time></trkpt><trkpt lat="43.7110904477944" lon="11.170382891670512"><ele>286.0</ele><time>2026-03-28T15:34:46.002Z</time></trkpt><trkpt lat="43.711000259655535" lon="11.170342547931083"><ele>286.0</ele><time>2026-03-28T15:34:47.002Z</time></trkpt><trkpt lat="43.710886596050685" lon="11.170300608009939"><ele>286.0</ele><time>2026-03-28T15:34:48.002Z</time></trkpt><trkpt lat="43.71079712698778" lon="11.170240645693484"><ele>287.0</ele><time>2026-03-28T15:34:49.002Z</time></trkpt><trkpt lat="43.71073368110584" lon="11.170218884192805"><ele>288.0</ele><time>2026-03-28T15:34:50.002Z</time></trkpt><trkpt lat="43.71065969037452" lon="11.17020894854601"><ele>289.0</ele><time>2026-03-28T15:34:51.002Z</time></trkpt><trkpt lat="43.71057990991617" lon="11.170225565522898"><ele>290.0</ele><time>2026-03-28T15:34:52.002Z</time></trkpt><trkpt lat="43.7104974712623" lon="11.170290365000692"><ele>291.0</ele><time>2026-03-28T15:34:53.002Z</time></trkpt><trkpt lat="43.7104289574127" lon="11.170393331019044"><ele>292.0</ele><time>2026-03-28T15:34:54.002Z</time></trkpt><trkpt lat="43.710353600008446" lon="11.170500114268842"><ele>292.0</ele><time>2026-03-28T15:34:55.002Z</time></trkpt><trkpt lat="43.710286319350054" lon="11.170616845965075"><ele>292.0</ele><time>2026-03-28T15:34:56.002Z</time></trkpt><trkpt lat="43.710213468100186" lon="11.170721693173189"><ele>292.0</ele><time>2026-03-28T15:34:57.002Z</time></trkpt><trkpt lat="43.71015140512757" lon="11.17080643500088"><ele>292.0</ele><time>2026-03-28T15:34:58.002Z</time></trkpt><trkpt lat="43.710074568635285" lon="11.17084520356663"><ele>292.0</ele><time>2026-03-28T15:34:59.002Z</time></trkpt><trkpt lat="43.70999386771708" lon="11.170894924827659"><ele>292.2</ele><time>2026-03-28T15:35:00.002Z</time></trkpt><trkpt lat="43.7098998540026" lon="11.170950786438839"><ele>292.4</ele><time>2026-03-28T15:35:01.002Z</time></trkpt><trkpt lat="43.70979525535834" lon="11.171001993984458"><ele>292.6</ele><time>2026-03-28T15:35:02.002Z</time></trkpt><trkpt lat="43.70970497146813" lon="11.171046852400881"><ele>292.8</ele><time>2026-03-28T15:35:03.002Z</time></trkpt><trkpt lat="43.7096275818262" lon="11.171106923690385"><ele>293.0</ele><time>2026-03-28T15:35:04.002Z</time></trkpt><trkpt lat="43.70954322130662" lon="11.17117686184897"><ele>293.0</ele><time>2026-03-28T15:35:05.002Z</time></trkpt><trkpt lat="43.70945236863538" lon="11.171252552275728"><ele>293.0</ele><time>2026-03-28T15:35:06.002Z</time></trkpt><trkpt lat="43.70936397838946" lon="11.171319847480284"><ele>293.0</ele><time>2026-03-28T15:35:07.002Z</time></trkpt><trkpt lat="43.70926900860571" lon="11.171396154768114"><ele>293.0</ele><time>2026-03-28T15:35:08.002Z</time></trkpt><trkpt lat="43.709160129777246" lon="11.171486733978114"><ele>293.0</ele><time>2026-03-28T15:35:09.002Z</time></trkpt><trkpt lat="43.709081338459974" lon="11.171575530531607"><ele>293.8</ele><time>2026-03-28T15:35:10.002Z</time></trkpt><trkpt lat="43.708984049563036" lon="11.171618881089428"><ele>294.6</ele><time>2026-03-28T15:35:11.002Z</time></trkpt><trkpt lat="43.708896440192675" lon="11.171674228291979"><ele>295.4</ele><time>2026-03-28T15:35:12.002Z</time></trkpt><trkpt lat="43.7087975437644" lon="11.171696162887072"><ele>296.2</ele><time>2026-03-28T15:35:13.002Z</time></trkpt><trkpt lat="43.70871727840027" lon="11.171727649759628"><ele>297.0</ele><time>2026-03-28T15:35:14.002Z</time></trkpt><trkpt lat="43.70863933886311" lon="11.171742547798944"><ele>297.4</ele><time>2026-03-28T15:35:15.002Z</time></trkpt><trkpt lat="43.70853345327612" lon="11.171794659102451"><ele>297.79999999999995</ele><time>2026-03-28T15:35:17.002Z</time></trkpt><trkpt lat="43.708477113267875" lon="11.171837406440643"><ele>298.2</ele><time>2026-03-28T15:35:18.002Z</time></trkpt><trkpt lat="43.70838446146214" lon="11.171943743488264"><ele>298.59999999999997</ele><time>2026-03-28T15:35:20.002Z</time></trkpt><trkpt lat="43.70829126772126" lon="11.172026161859462"><ele>299.0</ele><time>2026-03-28T15:35:22.002Z</time></trkpt><trkpt lat="43.70823846105292" lon="11.172099998151262"><ele>299.0</ele><time>2026-03-28T15:35:24.002Z</time></trkpt><trkpt lat="43.70815649310871" lon="11.171941461922367"><ele>299.0</ele><time>2026-03-28T15:35:31.003Z</time></trkpt><trkpt lat="43.708106110132576" lon="11.171792955568627"><ele>299.0</ele><time>2026-03-28T15:35:32.003Z</time></trkpt><trkpt lat="43.708052523187284" lon="11.171641674444158"><ele>299.0</ele><time>2026-03-28T15:35:33.003Z</time></trkpt><trkpt lat="43.70798607628254" lon="11.17147182298603"><ele>297.25</ele><time>2026-03-28T15:35:34.003Z</time></trkpt><trkpt lat="43.70794204932898" lon="11.171250572213415"><ele>295.5</ele><time>2026-03-28T15:35:35.003Z</time></trkpt><trkpt lat="43.70792976564083" lon="11.17106241599809"><ele>293.75</ele><time>2026-03-28T15:35:36.003Z</time></trkpt><trkpt lat="43.70788674379496" lon="11.170872454977907"><ele>292.0</ele><time>2026-03-28T15:35:37.003Z</time></trkpt><trkpt lat="43.70786389890216" lon="11.170674397547964"><ele>290.0</ele><time>2026-03-28T15:35:38.003Z</time></trkpt><trkpt lat="43.70784573965936" lon="11.170524242822697"><ele>288.0</ele><time>2026-03-28T15:35:39.003Z</time></trkpt><trkpt lat="43.70779964249166" lon="11.170392955336826"><ele>286.0</ele><time>2026-03-28T15:35:40.003Z</time></trkpt><trkpt lat="43.707765422400016" lon="11.170245144689055"><ele>284.0</ele><time>2026-03-28T15:35:41.003Z</time></trkpt><trkpt lat="43.70773293109794" lon="11.170093425454013"><ele>282.0</ele><time>2026-03-28T15:35:42.003Z</time></trkpt><trkpt lat="43.70770065855836" lon="11.169955444504295"><ele>281.0</ele><time>2026-03-28T15:35:43.003Z</time></trkpt><trkpt lat="43.70765992558528" lon="11.169811032343897"><ele>280.0</ele><time>2026-03-28T15:35:44Z</time></trkpt><trkpt lat="43.707623634488094" lon="11.16967043758634"><ele>279.0</ele><time>2026-03-28T15:35:45Z</time></trkpt><trkpt lat="43.70757876897289" lon="11.169530900110102"><ele>278.0</ele><time>2026-03-28T15:35:46Z</time></trkpt><trkpt lat="43.707536743653534" lon="11.169407254787728"><ele>277.0</ele><time>2026-03-28T15:35:47Z</time></trkpt><trkpt lat="43.70749760244275" lon="11.169286074793726"><ele>277.0</ele><time>2026-03-28T15:35:48Z</time></trkpt><trkpt lat="43.707445576594516" lon="11.169169135502464"><ele>277.0</ele><time>2026-03-28T15:35:49Z</time></trkpt><trkpt lat="43.70737197842102" lon="11.16904211268191"><ele>277.0</ele><time>2026-03-28T15:35:50Z</time></trkpt><trkpt lat="43.70727467669296" lon="11.168949065729784"><ele>277.0</ele><time>2026-03-28T15:35:51Z</time></trkpt><trkpt lat="43.70716372611831" lon="11.168866478609369"><ele>276.5</ele><time>2026-03-28T15:35:52Z</time></trkpt><trkpt lat="43.707039659986954" lon="11.168796042785246"><ele>276.0</ele><time>2026-03-28T15:35:53Z</time></trkpt><trkpt lat="43.70692991821947" lon="11.168738098768014"><ele>275.5</ele><time>2026-03-28T15:35:54Z</time></trkpt><trkpt lat="43.70681680898335" lon="11.16867851356192"><ele>275.0</ele><time>2026-03-28T15:35:55Z</time></trkpt><trkpt lat="43.70671382054627" lon="11.168633073480317"><ele>275.0</ele><time>2026-03-28T15:35:56Z</time></trkpt><trkpt lat="43.70661151254759" lon="11.168596714139932"><ele>275.0</ele><time>2026-03-28T15:35:57Z</time></trkpt><trkpt lat="43.70649977150324" lon="11.1685765324054"><ele>275.0</ele><time>2026-03-28T15:35:58Z</time></trkpt><trkpt lat="43.70639125336907" lon="11.168575717856505"><ele>275.0</ele><time>2026-03-28T15:35:59Z</time></trkpt><trkpt lat="43.70627344373132" lon="11.168597825145241"><ele>275.0</ele><time>2026-03-28T15:36:00Z</time></trkpt><trkpt lat="43.70614493418926" lon="11.16861665704789"><ele>273.25</ele><time>2026-03-28T15:36:01Z</time></trkpt><trkpt lat="43.70602068557945" lon="11.168622666882325"><ele>271.5</ele><time>2026-03-28T15:36:02Z</time></trkpt><trkpt lat="43.705908307575854" lon="11.16861820201092"><ele>269.75</ele><time>2026-03-28T15:36:03Z</time></trkpt><trkpt lat="43.70578845880436" lon="11.168614497138787"><ele>268.0</ele><time>2026-03-28T15:36:04Z</time></trkpt><trkpt lat="43.705676502054246" lon="11.168599720874202"><ele>268.0</ele><time>2026-03-28T15:36:05Z</time></trkpt><trkpt lat="43.70556542200599" lon="11.168568799358216"><ele>268.0</ele><time>2026-03-28T15:36:06Z</time></trkpt><trkpt lat="43.70546718997374" lon="11.168529060349394"><ele>268.0</ele><time>2026-03-28T15:36:07Z</time></trkpt><trkpt lat="43.70537670358832" lon="11.168487804100375"><ele>268.0</ele><time>2026-03-28T15:36:08.001Z</time></trkpt><trkpt lat="43.705281810502306" lon="11.168447761741765"><ele>268.0</ele><time>2026-03-28T15:36:09.001Z</time></trkpt><trkpt lat="43.705191876641585" lon="11.168409011491502"><ele>267.2</ele><time>2026-03-28T15:36:10.001Z</time></trkpt><trkpt lat="43.70510807030892" lon="11.168354363293528"><ele>266.4</ele><time>2026-03-28T15:36:11.001Z</time></trkpt><trkpt lat="43.7050259628338" lon="11.168282678835599"><ele>265.59999999999997</ele><time>2026-03-28T15:36:12.001Z</time></trkpt><trkpt lat="43.70493420368422" lon="11.168214469030163"><ele>264.8</ele><time>2026-03-28T15:36:13.001Z</time></trkpt><trkpt lat="43.7048290518822" lon="11.168131888728816"><ele>264.0</ele><time>2026-03-28T15:36:14.001Z</time></trkpt><trkpt lat="43.704717647527424" lon="11.168049362007546"><ele>263.5</ele><time>2026-03-28T15:36:15.001Z</time></trkpt><trkpt lat="43.70458509082339" lon="11.167963723314205"><ele>263.0</ele><time>2026-03-28T15:36:16.001Z</time></trkpt><trkpt lat="43.7044475070441" lon="11.167874033523754"><ele>262.5</ele><time>2026-03-28T15:36:17.001Z</time></trkpt><trkpt lat="43.70431853547447" lon="11.167787427819684"><ele>262.0</ele><time>2026-03-28T15:36:18.001Z</time></trkpt><trkpt lat="43.70418775643653" lon="11.1677036899779"><ele>261.8</ele><time>2026-03-28T15:36:19.001Z</time></trkpt><trkpt lat="43.704061624440875" lon="11.167642904783113"><ele>261.6</ele><time>2026-03-28T15:36:20.001Z</time></trkpt><trkpt lat="43.70396606658131" lon="11.167605899886908"><ele>261.40000000000003</ele><time>2026-03-28T15:36:21.001Z</time></trkpt><trkpt lat="43.70386083697963" lon="11.167556938518306"><ele>261.2</ele><time>2026-03-28T15:36:23.001Z</time></trkpt><trkpt lat="43.70379445739878" lon="11.167520478709204"><ele>261.0</ele><time>2026-03-28T15:36:24.001Z</time></trkpt><trkpt lat="43.703711868664" lon="11.167491173173941"><ele>261.0</ele><time>2026-03-28T15:36:26.001Z</time></trkpt><trkpt lat="43.703657342959744" lon="11.16743834948255"><ele>261.0</ele><time>2026-03-28T15:36:36.001Z</time></trkpt><trkpt lat="43.70359184342006" lon="11.167403105819517"><ele>261.0</ele><time>2026-03-28T15:36:40.001Z</time></trkpt><trkpt lat="43.70350220630289" lon="11.167339407404928"><ele>261.0</ele><time>2026-03-28T15:36:43.001Z</time></trkpt><trkpt lat="43.703442809292284" lon="11.167292241281393"><ele>261.0</ele><time>2026-03-28T15:36:44.001Z</time></trkpt><trkpt lat="43.70338112649874" lon="11.167225616636165"><ele>261.0</ele><time>2026-03-28T15:36:45.001Z</time></trkpt><trkpt lat="43.70332886090813" lon="11.167121275427913"><ele>260.0</ele><time>2026-03-28T15:36:46.001Z</time></trkpt><trkpt lat="43.703255183303966" lon="11.167030120812706"><ele>259.0</ele><time>2026-03-28T15:36:47.001Z</time></trkpt><trkpt lat="43.70318409692565" lon="11.16693774162525"><ele>258.0</ele><time>2026-03-28T15:36:48.001Z</time></trkpt><trkpt lat="43.7031028316502" lon="11.166834252984833"><ele>257.0</ele><time>2026-03-28T15:36:49.001Z</time></trkpt><trkpt lat="43.703025906833425" lon="11.166723283295367"><ele>256.0</ele><time>2026-03-28T15:36:50.001Z</time></trkpt><trkpt lat="43.70295486713023" lon="11.166599866623454"><ele>254.25</ele><time>2026-03-28T15:36:51.001Z</time></trkpt><trkpt lat="43.702890922282194" lon="11.166472574393708"><ele>252.5</ele><time>2026-03-28T15:36:52.001Z</time></trkpt><trkpt lat="43.70283292594053" lon="11.16633521698222"><ele>250.75</ele><time>2026-03-28T15:36:53.001Z</time></trkpt><trkpt lat="43.70278349031825" lon="11.166196222254802"><ele>249.0</ele><time>2026-03-28T15:36:54.001Z</time></trkpt><trkpt lat="43.70273524480104" lon="11.166058670561416"><ele>248.75</ele><time>2026-03-28T15:36:55.001Z</time></trkpt><trkpt lat="43.70268382797876" lon="11.16591022393935"><ele>248.5</ele><time>2026-03-28T15:36:56.001Z</time></trkpt><trkpt lat="43.70263205877621" lon="11.16574662406455"><ele>248.25</ele><time>2026-03-28T15:36:57.002Z</time></trkpt><trkpt lat="43.70257101907984" lon="11.16556115680011"><ele>248.0</ele><time>2026-03-28T15:36:58.002Z</time></trkpt><trkpt lat="43.70250650291612" lon="11.16538226865351"><ele>247.5</ele><time>2026-03-28T15:36:59.002Z</time></trkpt><trkpt lat="43.70243389368512" lon="11.165208800354343"><ele>247.0</ele><time>2026-03-28T15:37:00.002Z</time></trkpt><trkpt lat="43.70235590023548" lon="11.165049516747132"><ele>246.5</ele><time>2026-03-28T15:37:01.002Z</time></trkpt><trkpt lat="43.702275069540896" lon="11.164898071802636"><ele>246.0</ele><time>2026-03-28T15:37:02.002Z</time></trkpt><trkpt lat="43.702179721834256" lon="11.164751875584203"><ele>245.5</ele><time>2026-03-28T15:37:03.002Z</time></trkpt><trkpt lat="43.70209011155223" lon="11.164613068646789"><ele>245.0</ele><time>2026-03-28T15:37:04.002Z</time></trkpt><trkpt lat="43.70201104648693" lon="11.1644804485789"><ele>244.5</ele><time>2026-03-28T15:37:05.002Z</time></trkpt><trkpt lat="43.7019236280657" lon="11.16436057525159"><ele>244.0</ele><time>2026-03-28T15:37:06.002Z</time></trkpt><trkpt lat="43.701841261045736" lon="11.16422970257551"><ele>244.0</ele><time>2026-03-28T15:37:07.002Z</time></trkpt><trkpt lat="43.70176531536956" lon="11.164116270048567"><ele>244.0</ele><time>2026-03-28T15:37:08.002Z</time></trkpt><trkpt lat="43.70168544865453" lon="11.163992912546265"><ele>244.0</ele><time>2026-03-28T15:37:09.002Z</time></trkpt><trkpt lat="43.70160701358316" lon="11.163870608229885"><ele>244.0</ele><time>2026-03-28T15:37:10.002Z</time></trkpt><trkpt lat="43.701533864557256" lon="11.163751539964267"><ele>243.75</ele><time>2026-03-28T15:37:11.002Z</time></trkpt><trkpt lat="43.70145157841422" lon="11.163618700748742"><ele>243.5</ele><time>2026-03-28T15:37:12.002Z</time></trkpt><trkpt lat="43.7013620555435" lon="11.16350970913253"><ele>243.25</ele><time>2026-03-28T15:37:13.002Z</time></trkpt><trkpt lat="43.70126759711477" lon="11.163421749437369"><ele>243.0</ele><time>2026-03-28T15:37:14.002Z</time></trkpt><trkpt lat="43.70116214185597" lon="11.163362008517762"><ele>243.5</ele><time>2026-03-28T15:37:15.002Z</time></trkpt><trkpt lat="43.70105367390075" lon="11.163306429159885"><ele>244.0</ele><time>2026-03-28T15:37:16.002Z</time></trkpt><trkpt lat="43.70094705950717" lon="11.16324630564222"><ele>244.5</ele><time>2026-03-28T15:37:17.002Z</time></trkpt><trkpt lat="43.700837860254545" lon="11.163191331547926"><ele>245.0</ele><time>2026-03-28T15:37:18.002Z</time></trkpt><trkpt lat="43.70072687162862" lon="11.163132806321803"><ele>245.0</ele><time>2026-03-28T15:37:19.002Z</time></trkpt><trkpt lat="43.70060878743101" lon="11.16307394329577"><ele>245.0</ele><time>2026-03-28T15:37:20.002Z</time></trkpt><trkpt lat="43.700486162578976" lon="11.163005674021191"><ele>245.0</ele><time>2026-03-28T15:37:21.002Z</time></trkpt><trkpt lat="43.70037050690189" lon="11.162939341010048"><ele>245.0</ele><time>2026-03-28T15:37:22.002Z</time></trkpt><trkpt lat="43.70026331387238" lon="11.162874620695662"><ele>245.33333333333334</ele><time>2026-03-28T15:37:23.002Z</time></trkpt><trkpt lat="43.70017353570468" lon="11.162819599858752"><ele>245.66666666666669</ele><time>2026-03-28T15:37:24.002Z</time></trkpt><trkpt lat="43.700095153032684" lon="11.162768478771603"><ele>246.0</ele><time>2026-03-28T15:37:25.002Z</time></trkpt><trkpt lat="43.70001905357924" lon="11.162729529444848"><ele>246.33333333333331</ele><time>2026-03-28T15:37:26.002Z</time></trkpt><trkpt lat="43.6999555092121" lon="11.162679048916528"><ele>246.66666666666666</ele><time>2026-03-28T15:37:27.002Z</time></trkpt><trkpt lat="43.69985678893315" lon="11.162690098389893"><ele>247.0</ele><time>2026-03-28T15:37:28.002Z</time></trkpt><trkpt lat="43.69975089917503" lon="11.162672504114342"><ele>247.0</ele><time>2026-03-28T15:37:29.002Z</time></trkpt><trkpt lat="43.69964225149597" lon="11.162699500213009"><ele>247.0</ele><time>2026-03-28T15:37:30.002Z</time></trkpt><trkpt lat="43.69951618588849" lon="11.162713986514555"><ele>247.0</ele><time>2026-03-28T15:37:31.002Z</time></trkpt><trkpt lat="43.699398628060315" lon="11.162723477372115"><ele>247.0</ele><time>2026-03-28T15:37:32.002Z</time></trkpt><trkpt lat="43.69928287788733" lon="11.16273267285904"><ele>245.8</ele><time>2026-03-28T15:37:33.002Z</time></trkpt><trkpt lat="43.69917514841105" lon="11.162748487267194"><ele>244.6</ele><time>2026-03-28T15:37:34.002Z</time></trkpt><trkpt lat="43.699069246057306" lon="11.162762230521386"><ele>243.40000000000003</ele><time>2026-03-28T15:37:35.002Z</time></trkpt><trkpt lat="43.69896319043853" lon="11.162763617677122"><ele>242.20000000000002</ele><time>2026-03-28T15:37:36.002Z</time></trkpt><trkpt lat="43.69885598626107" lon="11.162748697291121"><ele>241.0</ele><time>2026-03-28T15:37:37.002Z</time></trkpt><trkpt lat="43.69876793091259" lon="11.162703545401586"><ele>241.0</ele><time>2026-03-28T15:37:38.002Z</time></trkpt><trkpt lat="43.6986764307168" lon="11.16267638046685"><ele>241.00000000000003</ele><time>2026-03-28T15:37:39.002Z</time></trkpt><trkpt lat="43.69858255542937" lon="11.162662536270293"><ele>241.00000000000003</ele><time>2026-03-28T15:37:40.002Z</time></trkpt><trkpt lat="43.698490926606546" lon="11.162616568020082"><ele>241.0</ele><time>2026-03-28T15:37:41.002Z</time></trkpt><trkpt lat="43.69840202164834" lon="11.162550689101298"><ele>241.0</ele><time>2026-03-28T15:37:42.002Z</time></trkpt><trkpt lat="43.69833180438789" lon="11.162448750075514"><ele>239.8</ele><time>2026-03-28T15:37:43.003Z</time></trkpt><trkpt lat="43.698247718488986" lon="11.16237650673657"><ele>238.60000000000002</ele><time>2026-03-28T15:37:44.003Z</time></trkpt><trkpt lat="43.69818484788356" lon="11.162284191397331"><ele>237.4</ele><time>2026-03-28T15:37:45.003Z</time></trkpt><trkpt lat="43.698124523791215" lon="11.162190392726957"><ele>236.2</ele><time>2026-03-28T15:37:46.003Z</time></trkpt><trkpt lat="43.69807715576871" lon="11.162080479860348"><ele>235.0</ele><time>2026-03-28T15:37:47.003Z</time></trkpt><trkpt lat="43.69803144099153" lon="11.161962452058848"><ele>234.49999999999997</ele><time>2026-03-28T15:37:48.003Z</time></trkpt><trkpt lat="43.69798616726459" lon="11.161866458117517"><ele>234.0</ele><time>2026-03-28T15:37:49.003Z</time></trkpt><trkpt lat="43.69794188352258" lon="11.161772451028648"><ele>233.5</ele><time>2026-03-28T15:37:50.001Z</time></trkpt><trkpt lat="43.69790292347527" lon="11.161695198699318"><ele>233.0</ele><time>2026-03-28T15:37:51.001Z</time></trkpt><trkpt lat="43.6978737838717" lon="11.161615026835877"><ele>232.49999999999997</ele><time>2026-03-28T15:37:52.001Z</time></trkpt><trkpt lat="43.69783805550981" lon="11.16147900706707"><ele>232.0</ele><time>2026-03-28T15:37:54.001Z</time></trkpt><trkpt lat="43.69778958735909" lon="11.1613310415957"><ele>232.49999999999997</ele><time>2026-03-28T15:37:56.001Z</time></trkpt><trkpt lat="43.69776615704092" lon="11.161244755173025"><ele>233.0</ele><time>2026-03-28T15:37:57.001Z</time></trkpt><trkpt lat="43.69771968160187" lon="11.161118081840181"><ele>233.5</ele><time>2026-03-28T15:37:59.001Z</time></trkpt><trkpt lat="43.69766631713999" lon="11.161060381576709"><ele>234.0</ele><time>2026-03-28T15:38:00.001Z</time></trkpt><trkpt lat="43.697620813418006" lon="11.160974599861303"><ele>234.49999999999997</ele><time>2026-03-28T15:38:01.001Z</time></trkpt><trkpt lat="43.697572142983795" lon="11.160877542004243"><ele>235.0</ele><time>2026-03-28T15:38:02.001Z</time></trkpt><trkpt lat="43.69751540607913" lon="11.160798082461191"><ele>234.99999999999997</ele><time>2026-03-28T15:38:03.001Z</time></trkpt><trkpt lat="43.69746971835242" lon="11.160733887453283"><ele>235.0</ele><time>2026-03-28T15:38:04.001Z</time></trkpt><trkpt lat="43.69741823601034" lon="11.160661468015263"><ele>235.0</ele><time>2026-03-28T15:38:05.001Z</time></trkpt><trkpt lat="43.697359658551726" lon="11.160578449522019"><ele>235.0</ele><time>2026-03-28T15:38:06.001Z</time></trkpt><trkpt lat="43.69731020486487" lon="11.160521254881393"><ele>234.99999999999997</ele><time>2026-03-28T15:38:07.001Z</time></trkpt><trkpt lat="43.69726080498628" lon="11.160460478960879"><ele>235.0</ele><time>2026-03-28T15:38:08.001Z</time></trkpt><trkpt lat="43.69716325709978" lon="11.160329056464686"><ele>235.2</ele><time>2026-03-28T15:38:10.001Z</time></trkpt><trkpt lat="43.69706892594781" lon="11.16022850909116"><ele>235.4</ele><time>2026-03-28T15:38:12.001Z</time></trkpt><trkpt lat="43.696984347283866" lon="11.160132643314562"><ele>235.60000000000002</ele><time>2026-03-28T15:38:14.001Z</time></trkpt><trkpt lat="43.69691759220268" lon="11.160047541455281"><ele>235.8</ele><time>2026-03-28T15:38:16.001Z</time></trkpt><trkpt lat="43.69684947081236" lon="11.159969912008846"><ele>236.0</ele><time>2026-03-28T15:38:18.001Z</time></trkpt><trkpt lat="43.69680877322698" lon="11.159898444661744"><ele>236.0</ele><time>2026-03-28T15:38:33.001Z</time></trkpt><trkpt lat="43.696722041524474" lon="11.159846447178747"><ele>236.00000000000003</ele><time>2026-03-28T15:38:35.001Z</time></trkpt><trkpt lat="43.696633471281125" lon="11.159836508313365"><ele>236.00000000000003</ele><time>2026-03-28T15:38:37.001Z</time></trkpt><trkpt lat="43.69654882565922" lon="11.15976847744276"><ele>236.0</ele><time>2026-03-28T15:38:39.001Z</time></trkpt><trkpt lat="43.696458499925775" lon="11.159661888717768"><ele>236.0</ele><time>2026-03-28T15:38:41.001Z</time></trkpt><trkpt lat="43.69641817422066" lon="11.15958629570521"><ele>236.00000000000003</ele><time>2026-03-28T15:38:42.001Z</time></trkpt><trkpt lat="43.69638883528957" lon="11.159500583047718"><ele>236.0</ele><time>2026-03-28T15:38:43.001Z</time></trkpt><trkpt lat="43.69633850641953" lon="11.1594468693375"><ele>236.0</ele><time>2026-03-28T15:38:44.001Z</time></trkpt><trkpt lat="43.69626004595032" lon="11.15931453611326"><ele>236.0</ele><time>2026-03-28T15:38:46.001Z</time></trkpt><trkpt lat="43.696213762038525" lon="11.159167800583528"><ele>236.00000000000003</ele><time>2026-03-28T15:38:48.001Z</time></trkpt><trkpt lat="43.696195225336815" lon="11.159082595206216"><ele>236.0</ele><time>2026-03-28T15:38:50.001Z</time></trkpt><trkpt lat="43.69614728593966" lon="11.159003913101769"><ele>236.20000000000002</ele><time>2026-03-28T15:39:28.002Z</time></trkpt><trkpt lat="43.69612246766331" lon="11.158904389191648"><ele>236.40000000000003</ele><time>2026-03-28T15:39:29.002Z</time></trkpt><trkpt lat="43.69609696784449" lon="11.158773994318905"><ele>236.6</ele><time>2026-03-28T15:39:30.002Z</time></trkpt><trkpt lat="43.696106116691475" lon="11.15863576744537"><ele>236.8</ele><time>2026-03-28T15:39:31.002Z</time></trkpt><trkpt lat="43.69607619960953" lon="11.158490327650137"><ele>237.0</ele><time>2026-03-28T15:39:32.002Z</time></trkpt><trkpt lat="43.69604304349578" lon="11.158352305869785"><ele>237.0</ele><time>2026-03-28T15:39:33.002Z</time></trkpt><trkpt lat="43.695998578527984" lon="11.158221351436167"><ele>237.0</ele><time>2026-03-28T15:39:34.002Z</time></trkpt><trkpt lat="43.69596801608183" lon="11.158112165658125"><ele>237.0</ele><time>2026-03-28T15:39:35.002Z</time></trkpt><trkpt lat="43.6959489439038" lon="11.157977555931463"><ele>237.0</ele><time>2026-03-28T15:39:36.002Z</time></trkpt><trkpt lat="43.69593710013985" lon="11.157824454692701"><ele>237.0</ele><time>2026-03-28T15:39:37.002Z</time></trkpt><trkpt lat="43.695923122310305" lon="11.157637256817777"><ele>235.5</ele><time>2026-03-28T15:39:38.002Z</time></trkpt><trkpt lat="43.695907801781225" lon="11.157461627729617"><ele>234.0</ele><time>2026-03-28T15:39:39.002Z</time></trkpt><trkpt lat="43.695893542312945" lon="11.157287254432962"><ele>232.5</ele><time>2026-03-28T15:39:40.002Z</time></trkpt><trkpt lat="43.695890750118515" lon="11.157116939515129"><ele>231.0</ele><time>2026-03-28T15:39:41.002Z</time></trkpt><trkpt lat="43.69591039759127" lon="11.156960370139235"><ele>229.5</ele><time>2026-03-28T15:39:42.002Z</time></trkpt><trkpt lat="43.69592734594527" lon="11.156781080459558"><ele>228.0</ele><time>2026-03-28T15:39:43.002Z</time></trkpt><trkpt lat="43.69593315900322" lon="11.156618897720419"><ele>226.5</ele><time>2026-03-28T15:39:44.002Z</time></trkpt><trkpt lat="43.69593346908614" lon="11.156472981184864"><ele>225.0</ele><time>2026-03-28T15:39:45.002Z</time></trkpt><trkpt lat="43.69593075394142" lon="11.156331793540927"><ele>222.5</ele><time>2026-03-28T15:39:46.002Z</time></trkpt><trkpt lat="43.69592075550493" lon="11.156175800890825"><ele>220.0</ele><time>2026-03-28T15:39:47.003Z</time></trkpt><trkpt lat="43.69593762791883" lon="11.155992468572993"><ele>217.5</ele><time>2026-03-28T15:39:48.003Z</time></trkpt><trkpt lat="43.69593835015531" lon="11.155811789253814"><ele>215.0</ele><time>2026-03-28T15:39:49.003Z</time></trkpt><trkpt lat="43.6959241354662" lon="11.155636892576249"><ele>213.0</ele><time>2026-03-28T15:39:50.003Z</time></trkpt><trkpt lat="43.695938355256146" lon="11.155454817041084"><ele>211.0</ele><time>2026-03-28T15:39:51.003Z</time></trkpt><trkpt lat="43.69598729968621" lon="11.155306648843277"><ele>209.0</ele><time>2026-03-28T15:39:52.003Z</time></trkpt><trkpt lat="43.696017257722545" lon="11.155167330650576"><ele>207.0</ele><time>2026-03-28T15:39:53.003Z</time></trkpt><trkpt lat="43.69603095672793" lon="11.155042128741238"><ele>205.0</ele><time>2026-03-28T15:39:54.003Z</time></trkpt><trkpt lat="43.69603580569058" lon="11.154924285431578"><ele>205.0</ele><time>2026-03-28T15:39:55.003Z</time></trkpt><trkpt lat="43.69601211606882" lon="11.154765748850792"><ele>205.0</ele><time>2026-03-28T15:39:56.002Z</time></trkpt><trkpt lat="43.695983033805454" lon="11.154578629418506"><ele>205.0</ele><time>2026-03-28T15:39:57.002Z</time></trkpt><trkpt lat="43.69589475310759" lon="11.15438237801367"><ele>205.0</ele><time>2026-03-28T15:39:58.002Z</time></trkpt><trkpt lat="43.69577714936647" lon="11.154183774983156"><ele>203.0</ele><time>2026-03-28T15:39:59.002Z</time></trkpt><trkpt lat="43.69565736576012" lon="11.153952870729468"><ele>201.0</ele><time>2026-03-28T15:40:00.002Z</time></trkpt><trkpt lat="43.69554884221751" lon="11.153736379216443"><ele>199.0</ele><time>2026-03-28T15:40:01.002Z</time></trkpt><trkpt lat="43.69543384810332" lon="11.153581549081862"><ele>199.0</ele><time>2026-03-28T15:40:02.002Z</time></trkpt><trkpt lat="43.695264563726056" lon="11.153403482105562"><ele>199.0</ele><time>2026-03-28T15:40:03.002Z</time></trkpt><trkpt lat="43.69509036653439" lon="11.153257581611893"><ele>199.0</ele><time>2026-03-28T15:40:04.002Z</time></trkpt><trkpt lat="43.694945783187926" lon="11.153134139409785"><ele>197.75</ele><time>2026-03-28T15:40:05.002Z</time></trkpt><trkpt lat="43.6948340654623" lon="11.153018511489101"><ele>196.5</ele><time>2026-03-28T15:40:06.002Z</time></trkpt><trkpt lat="43.69474547817125" lon="11.152915338456186"><ele>195.25</ele><time>2026-03-28T15:40:07.002Z</time></trkpt><trkpt lat="43.6946722217032" lon="11.152784669485856"><ele>194.0</ele><time>2026-03-28T15:40:08.002Z</time></trkpt><trkpt lat="43.69461097123246" lon="11.152605378309739"><ele>192.66666666666669</ele><time>2026-03-28T15:40:09.002Z</time></trkpt><trkpt lat="43.69456663037405" lon="11.152359358562194"><ele>191.33333333333334</ele><time>2026-03-28T15:40:10.001Z</time></trkpt><trkpt lat="43.69450221747111" lon="11.15210398352196"><ele>190.0</ele><time>2026-03-28T15:40:11.001Z</time></trkpt><trkpt lat="43.69445033053851" lon="11.151827784984395"><ele>196.0</ele><time>2026-03-28T15:40:12.001Z</time></trkpt><trkpt lat="43.694380757580916" lon="11.151573172123811"><ele>202.0</ele><time>2026-03-28T15:40:13.001Z</time></trkpt><trkpt lat="43.69430862329418" lon="11.151378317745152"><ele>208.0</ele><time>2026-03-28T15:40:14.001Z</time></trkpt><trkpt lat="43.6942510629609" lon="11.151233603039312"><ele>208.0</ele><time>2026-03-28T15:40:15.001Z</time></trkpt><trkpt lat="43.694202793778075" lon="11.15112433659682"><ele>208.0</ele><time>2026-03-28T15:40:16.001Z</time></trkpt><trkpt lat="43.694145343374586" lon="11.151036933800395"><ele>208.0</ele><time>2026-03-28T15:40:17.001Z</time></trkpt><trkpt lat="43.694079308568114" lon="11.15091930777132"><ele>208.0</ele><time>2026-03-28T15:40:18.001Z</time></trkpt><trkpt lat="43.69399939195596" lon="11.150748202508124"><ele>208.0</ele><time>2026-03-28T15:40:19.001Z</time></trkpt><trkpt lat="43.693935391073325" lon="11.150572747555469"><ele>206.0</ele><time>2026-03-28T15:40:20.001Z</time></trkpt><trkpt lat="43.69388918969823" lon="11.150345392341656"><ele>204.0</ele><time>2026-03-28T15:40:21.001Z</time></trkpt><trkpt lat="43.693875326403045" lon="11.150089928720655"><ele>202.0</ele><time>2026-03-28T15:40:22.001Z</time></trkpt><trkpt lat="43.693846532950595" lon="11.149822179157006"><ele>197.66666666666666</ele><time>2026-03-28T15:40:23.001Z</time></trkpt><trkpt lat="43.69379999555003" lon="11.149538898338951"><ele>193.33333333333331</ele><time>2026-03-28T15:40:24.001Z</time></trkpt><trkpt lat="43.69376839632881" lon="11.14925475457432"><ele>189.0</ele><time>2026-03-28T15:40:25.001Z</time></trkpt><trkpt lat="43.69374153566579" lon="11.149015751760096"><ele>186.33333333333334</ele><time>2026-03-28T15:40:26.001Z</time></trkpt><trkpt lat="43.69370711716389" lon="11.148788636848009"><ele>183.66666666666669</ele><time>2026-03-28T15:40:27.001Z</time></trkpt><trkpt lat="43.6936882972226" lon="11.148551838928924"><ele>181.0</ele><time>2026-03-28T15:40:28.001Z</time></trkpt><trkpt lat="43.69365163642591" lon="11.148289414175538"><ele>180.66666666666669</ele><time>2026-03-28T15:40:29.001Z</time></trkpt><trkpt lat="43.69360542906871" lon="11.148033548772489"><ele>180.33333333333334</ele><time>2026-03-28T15:40:30.001Z</time></trkpt><trkpt lat="43.693573950091796" lon="11.147792546146748"><ele>180.0</ele><time>2026-03-28T15:40:31.001Z</time></trkpt><trkpt lat="43.69353402936011" lon="11.14754595233818"><ele>182.33333333333334</ele><time>2026-03-28T15:40:32.001Z</time></trkpt><trkpt lat="43.69349601653619" lon="11.147313440427713"><ele>184.66666666666669</ele><time>2026-03-28T15:40:33.001Z</time></trkpt><trkpt lat="43.693455921078076" lon="11.147093495611474"><ele>187.0</ele><time>2026-03-28T15:40:34.001Z</time></trkpt><trkpt lat="43.693413089140016" lon="11.146895840809188"><ele>187.0</ele><time>2026-03-28T15:40:35.001Z</time></trkpt><trkpt lat="43.69337362432753" lon="11.146727257012035"><ele>187.0</ele><time>2026-03-28T15:40:36.001Z</time></trkpt><trkpt lat="43.69332533936896" lon="11.146570596417579"><ele>187.0</ele><time>2026-03-28T15:40:37.001Z</time></trkpt><trkpt lat="43.693255132118566" lon="11.146403101123953"><ele>187.0</ele><time>2026-03-28T15:40:38.001Z</time></trkpt><trkpt lat="43.69315664902277" lon="11.146235852287187"><ele>185.66666666666669</ele><time>2026-03-28T15:40:39.001Z</time></trkpt><trkpt lat="43.69304839951875" lon="11.146062328434443"><ele>184.33333333333334</ele><time>2026-03-28T15:40:40.001Z</time></trkpt><trkpt lat="43.692949184871594" lon="11.145892350299697"><ele>183.0</ele><time>2026-03-28T15:40:41.001Z</time></trkpt><trkpt lat="43.692859391046746" lon="11.14574165169785"><ele>182.5</ele><time>2026-03-28T15:40:42.001Z</time></trkpt><trkpt lat="43.69277179481328" lon="11.145591381240115"><ele>182.0</ele><time>2026-03-28T15:40:43.001Z</time></trkpt><trkpt lat="43.692706722013185" lon="11.145459439077927"><ele>181.5</ele><time>2026-03-28T15:40:44.001Z</time></trkpt><trkpt lat="43.69263977981378" lon="11.145316689256342"><ele>181.0</ele><time>2026-03-28T15:40:45.001Z</time></trkpt><trkpt lat="43.69255600798716" lon="11.145142549916738"><ele>177.66666666666669</ele><time>2026-03-28T15:40:46.001Z</time></trkpt><trkpt lat="43.692469869828514" lon="11.144940995408039"><ele>174.33333333333334</ele><time>2026-03-28T15:40:47.001Z</time></trkpt><trkpt lat="43.69238444546993" lon="11.14473852185131"><ele>171.0</ele><time>2026-03-28T15:40:48.001Z</time></trkpt><trkpt lat="43.692303074383624" lon="11.144545808376447"><ele>170.0</ele><time>2026-03-28T15:40:49.001Z</time></trkpt><trkpt lat="43.692214191325206" lon="11.144343814074993"><ele>169.0</ele><time>2026-03-28T15:40:50.001Z</time></trkpt><trkpt lat="43.69214617633641" lon="11.144130870245437"><ele>168.0</ele><time>2026-03-28T15:40:51.001Z</time></trkpt><trkpt lat="43.69205094676726" lon="11.143898687113968"><ele>164.33333333333334</ele><time>2026-03-28T15:40:52.001Z</time></trkpt><trkpt lat="43.691949097389944" lon="11.143646430028083"><ele>160.66666666666669</ele><time>2026-03-28T15:40:53.001Z</time></trkpt><trkpt lat="43.69184780996368" lon="11.143403333796346"><ele>157.0</ele><time>2026-03-28T15:40:54.001Z</time></trkpt><trkpt lat="43.69174722093893" lon="11.14317885566277"><ele>152.66666666666669</ele><time>2026-03-28T15:40:55.001Z</time></trkpt><trkpt lat="43.69165052967695" lon="11.1429658039388"><ele>148.33333333333334</ele><time>2026-03-28T15:40:56.001Z</time></trkpt><trkpt lat="43.69155306765798" lon="11.14276121140384"><ele>144.0</ele><time>2026-03-28T15:40:57.001Z</time></trkpt><trkpt lat="43.69144554625994" lon="11.142578706452996"><ele>144.0</ele><time>2026-03-28T15:40:58.001Z</time></trkpt><trkpt lat="43.691339901365225" lon="11.142409606366027"><ele>144.0</ele><time>2026-03-28T15:40:59.002Z</time></trkpt><trkpt lat="43.6912479555528" lon="11.142254782010543"><ele>144.0</ele><time>2026-03-28T15:41:00.002Z</time></trkpt><trkpt lat="43.69115789633461" lon="11.142093779643206"><ele>141.33333333333334</ele><time>2026-03-28T15:41:01.002Z</time></trkpt><trkpt lat="43.691081806010416" lon="11.141911119782122"><ele>138.66666666666669</ele><time>2026-03-28T15:41:02.002Z</time></trkpt><trkpt lat="43.691019247909445" lon="11.14168633512947"><ele>136.0</ele><time>2026-03-28T15:41:03.002Z</time></trkpt><trkpt lat="43.69096300390664" lon="11.14144022453992"><ele>134.0</ele><time>2026-03-28T15:41:04.002Z</time></trkpt><trkpt lat="43.69090173290075" lon="11.141191777413846"><ele>132.0</ele><time>2026-03-28T15:41:05.002Z</time></trkpt><trkpt lat="43.69084820253762" lon="11.140977520781945"><ele>130.0</ele><time>2026-03-28T15:41:06.002Z</time></trkpt><trkpt lat="43.69079773210938" lon="11.140811617551144"><ele>129.5</ele><time>2026-03-28T15:41:07.002Z</time></trkpt><trkpt lat="43.690761172166205" lon="11.140691894375598"><ele>129.0</ele><time>2026-03-28T15:41:08.002Z</time></trkpt><trkpt lat="43.69070828820918" lon="11.140540069211188"><ele>128.5</ele><time>2026-03-28T15:41:10.002Z</time></trkpt><trkpt lat="43.69063602057579" lon="11.140398203225628"><ele>128.0</ele><time>2026-03-28T15:41:12.002Z</time></trkpt><trkpt lat="43.690583990982255" lon="11.140230756261321"><ele>128.0</ele><time>2026-03-28T15:41:14.002Z</time></trkpt><trkpt lat="43.69052704209113" lon="11.14013168390686"><ele>128.0</ele><time>2026-03-28T15:41:15.002Z</time></trkpt><trkpt lat="43.69049616100334" lon="11.140010684919654"><ele>128.0</ele><time>2026-03-28T15:41:16.002Z</time></trkpt><trkpt lat="43.69046296286853" lon="11.139897850842837"><ele>128.0</ele><time>2026-03-28T15:41:17.002Z</time></trkpt><trkpt lat="43.69041634890476" lon="11.139767234357006"><ele>128.0</ele><time>2026-03-28T15:41:18.002Z</time></trkpt><trkpt lat="43.690376317954694" lon="11.139623849393216"><ele>126.25</ele><time>2026-03-28T15:41:19.002Z</time></trkpt><trkpt lat="43.69035764484364" lon="11.13948279193146"><ele>124.5</ele><time>2026-03-28T15:41:20.002Z</time></trkpt><trkpt lat="43.69031867527274" lon="11.139328220260706"><ele>122.75</ele><time>2026-03-28T15:41:21.002Z</time></trkpt><trkpt lat="43.69026933571625" lon="11.139162358546452"><ele>121.0</ele><time>2026-03-28T15:41:22.002Z</time></trkpt><trkpt lat="43.690208517360034" lon="11.139001225732232"><ele>121.0</ele><time>2026-03-28T15:41:23.002Z</time></trkpt><trkpt lat="43.69014584862347" lon="11.13884447507382"><ele>121.0</ele><time>2026-03-28T15:41:24.002Z</time></trkpt><trkpt lat="43.69007667573034" lon="11.138681244838347"><ele>121.0</ele><time>2026-03-28T15:41:25.002Z</time></trkpt><trkpt lat="43.690009416943845" lon="11.138528535866852"><ele>121.0</ele><time>2026-03-28T15:41:26.002Z</time></trkpt><trkpt lat="43.68994375998728" lon="11.138369474690572"><ele>120.0</ele><time>2026-03-28T15:41:27.002Z</time></trkpt><trkpt lat="43.689882610026025" lon="11.138214196506494"><ele>119.0</ele><time>2026-03-28T15:41:28.002Z</time></trkpt><trkpt lat="43.68982483843856" lon="11.138060368835378"><ele>118.0</ele><time>2026-03-28T15:41:29.002Z</time></trkpt><trkpt lat="43.689772081396406" lon="11.13791114821684"><ele>117.0</ele><time>2026-03-28T15:41:30.002Z</time></trkpt><trkpt lat="43.68971204066467" lon="11.13776415085682"><ele>117.0</ele><time>2026-03-28T15:41:31.002Z</time></trkpt><trkpt lat="43.68966684577765" lon="11.137614184985434"><ele>116.99999999999999</ele><time>2026-03-28T15:41:32.002Z</time></trkpt><trkpt lat="43.68963793411226" lon="11.137462355655899"><ele>116.99999999999999</ele><time>2026-03-28T15:41:33.002Z</time></trkpt><trkpt lat="43.68959697185285" lon="11.137335970491742"><ele>117.0</ele><time>2026-03-28T15:41:34.002Z</time></trkpt><trkpt lat="43.68954935171084" lon="11.137220120346736"><ele>117.0</ele><time>2026-03-28T15:41:35.002Z</time></trkpt><trkpt lat="43.689494021163114" lon="11.13711390361011"><ele>116.6</ele><time>2026-03-28T15:41:36.002Z</time></trkpt><trkpt lat="43.6894220699747" lon="11.137001001225626"><ele>116.19999999999999</ele><time>2026-03-28T15:41:37.002Z</time></trkpt><trkpt lat="43.68932149508545" lon="11.13691983995773"><ele>115.8</ele><time>2026-03-28T15:41:38.002Z</time></trkpt><trkpt lat="43.68924286308699" lon="11.136822852325995"><ele>115.4</ele><time>2026-03-28T15:41:39.002Z</time></trkpt><trkpt lat="43.68916051536031" lon="11.136731600943234"><ele>115.0</ele><time>2026-03-28T15:41:40.002Z</time></trkpt><trkpt lat="43.6890699371305" lon="11.136637748420268"><ele>113.8</ele><time>2026-03-28T15:41:41.002Z</time></trkpt><trkpt lat="43.68897230717149" lon="11.136535750751738"><ele>112.6</ele><time>2026-03-28T15:41:42.002Z</time></trkpt><trkpt lat="43.68888878009508" lon="11.13645045183396"><ele>111.4</ele><time>2026-03-28T15:41:43.002Z</time></trkpt><trkpt lat="43.68880827526108" lon="11.13635404922139"><ele>110.2</ele><time>2026-03-28T15:41:44.002Z</time></trkpt><trkpt lat="43.688733572774" lon="11.136242394830978"><ele>109.0</ele><time>2026-03-28T15:41:45.002Z</time></trkpt><trkpt lat="43.68867640084408" lon="11.136085944160595"><ele>109.0</ele><time>2026-03-28T15:41:46.002Z</time></trkpt><trkpt lat="43.68860246253298" lon="11.135933801418355"><ele>109.0</ele><time>2026-03-28T15:41:47.002Z</time></trkpt><trkpt lat="43.68853268637333" lon="11.135792196256766"><ele>109.0</ele><time>2026-03-28T15:41:48.002Z</time></trkpt><trkpt lat="43.688471024340046" lon="11.135662743148139"><ele>109.0</ele><time>2026-03-28T15:41:49.002Z</time></trkpt><trkpt lat="43.68838185264244" lon="11.13555591980449"><ele>108.6</ele><time>2026-03-28T15:41:50.002Z</time></trkpt><trkpt lat="43.68831866445352" lon="11.135443085611822"><ele>108.2</ele><time>2026-03-28T15:41:51.002Z</time></trkpt><trkpt lat="43.68825774494467" lon="11.135340440987344"><ele>107.79999999999998</ele><time>2026-03-28T15:41:52.002Z</time></trkpt><trkpt lat="43.68819932571033" lon="11.135235230938589"><ele>107.39999999999999</ele><time>2026-03-28T15:41:53.002Z</time></trkpt><trkpt lat="43.68814558158535" lon="11.135131396917222"><ele>107.0</ele><time>2026-03-28T15:41:54.002Z</time></trkpt><trkpt lat="43.688094641966394" lon="11.135028575739804"><ele>107.0</ele><time>2026-03-28T15:41:55.002Z</time></trkpt><trkpt lat="43.68803849007822" lon="11.134917661385304"><ele>106.99999999999999</ele><time>2026-03-28T15:41:56.002Z</time></trkpt><trkpt lat="43.68798049039954" lon="11.134786105588832"><ele>106.99999999999999</ele><time>2026-03-28T15:41:57.002Z</time></trkpt><trkpt lat="43.6879541779217" lon="11.134636938268551"><ele>107.0</ele><time>2026-03-28T15:41:58.002Z</time></trkpt><trkpt lat="43.687907840986085" lon="11.134499088109743"><ele>107.0</ele><time>2026-03-28T15:41:59.002Z</time></trkpt><trkpt lat="43.68786576757929" lon="11.13437172020485"><ele>106.83333333333333</ele><time>2026-03-28T15:42:00.002Z</time></trkpt><trkpt lat="43.68782729606642" lon="11.134249364935071"><ele>106.66666666666666</ele><time>2026-03-28T15:42:01.002Z</time></trkpt><trkpt lat="43.68779499572194" lon="11.13414755854603"><ele>106.5</ele><time>2026-03-28T15:42:02.001Z</time></trkpt><trkpt lat="43.68774618597117" lon="11.134023327622774"><ele>106.33333333333334</ele><time>2026-03-28T15:42:04.001Z</time></trkpt><trkpt lat="43.687701440272264" lon="11.13391655047264"><ele>106.16666666666667</ele><time>2026-03-28T15:42:06.001Z</time></trkpt><trkpt lat="43.6876616751141" lon="11.13382181379345"><ele>106.0</ele><time>2026-03-28T15:42:13.001Z</time></trkpt><trkpt lat="43.68763413800264" lon="11.133719045608693"><ele>105.16666666666667</ele><time>2026-03-28T15:42:17.001Z</time></trkpt><trkpt lat="43.68761149476692" lon="11.133601227834877"><ele>104.33333333333334</ele><time>2026-03-28T15:42:20.001Z</time></trkpt><trkpt lat="43.68759250978476" lon="11.13348634127731"><ele>103.5</ele><time>2026-03-28T15:42:22.001Z</time></trkpt><trkpt lat="43.68756981340889" lon="11.133378269292228"><ele>102.66666666666666</ele><time>2026-03-28T15:42:24.001Z</time></trkpt><trkpt lat="43.687556577483875" lon="11.133254777447304"><ele>101.83333333333333</ele><time>2026-03-28T15:42:26.001Z</time></trkpt><trkpt lat="43.68752635560419" lon="11.13312071087358"><ele>101.0</ele><time>2026-03-28T15:42:28.001Z</time></trkpt><trkpt lat="43.68748480185073" lon="11.132977875573099"><ele>100.83333333333333</ele><time>2026-03-28T15:42:30.001Z</time></trkpt><trkpt lat="43.68747135271383" lon="11.132891018442361"><ele>100.66666666666666</ele><time>2026-03-28T15:42:31.001Z</time></trkpt><trkpt lat="43.687446164616944" lon="11.132766398731047"><ele>100.5</ele><time>2026-03-28T15:42:33.001Z</time></trkpt><trkpt lat="43.68742487761685" lon="11.132683260621514"><ele>100.33333333333334</ele><time>2026-03-28T15:42:38.001Z</time></trkpt><trkpt lat="43.687382903338026" lon="11.13258607248215"><ele>100.16666666666667</ele><time>2026-03-28T15:42:39.001Z</time></trkpt><trkpt lat="43.68731038819968" lon="11.132483530798394"><ele>100.0</ele><time>2026-03-28T15:42:40.001Z</time></trkpt><trkpt lat="43.687241095687206" lon="11.13234548450595"><ele>99.0</ele><time>2026-03-28T15:42:41.001Z</time></trkpt><trkpt lat="43.68715271537454" lon="11.132197895719237"><ele>98.0</ele><time>2026-03-28T15:42:42.001Z</time></trkpt><trkpt lat="43.687055560971466" lon="11.13202830666201"><ele>97.0</ele><time>2026-03-28T15:42:43.001Z</time></trkpt><trkpt lat="43.68694979088832" lon="11.131834937005298"><ele>96.0</ele><time>2026-03-28T15:42:44.001Z</time></trkpt><trkpt lat="43.68683448003926" lon="11.131641077994924"><ele>95.0</ele><time>2026-03-28T15:42:45.001Z</time></trkpt><trkpt lat="43.686712346840395" lon="11.131464587645258"><ele>94.0</ele><time>2026-03-28T15:42:46.001Z</time></trkpt><trkpt lat="43.68658782811582" lon="11.131307153338875"><ele>94.0</ele><time>2026-03-28T15:42:47.001Z</time></trkpt><trkpt lat="43.68646664492434" lon="11.131167123448678"><ele>94.0</ele><time>2026-03-28T15:42:48.001Z</time></trkpt><trkpt lat="43.6863401491602" lon="11.131034526721866"><ele>94.0</ele><time>2026-03-28T15:42:49.001Z</time></trkpt><trkpt lat="43.686223433964116" lon="11.130909437560884"><ele>94.0</ele><time>2026-03-28T15:42:50.001Z</time></trkpt><trkpt lat="43.6861070398326" lon="11.130792571307339"><ele>94.0</ele><time>2026-03-28T15:42:51.001Z</time></trkpt><trkpt lat="43.685992937439295" lon="11.130675900788036"><ele>94.0</ele><time>2026-03-28T15:42:52.001Z</time></trkpt><trkpt lat="43.68586980938744" lon="11.130548505175357"><ele>94.0</ele><time>2026-03-28T15:42:53.001Z</time></trkpt><trkpt lat="43.68576164331144" lon="11.13043402732136"><ele>93.33333333333333</ele><time>2026-03-28T15:42:54.001Z</time></trkpt><trkpt lat="43.68568099950802" lon="11.130344555534142"><ele>92.66666666666666</ele><time>2026-03-28T15:42:55.001Z</time></trkpt><trkpt lat="43.685616845053495" lon="11.13027612759711"><ele>92.0</ele><time>2026-03-28T15:42:56.001Z</time></trkpt><trkpt lat="43.685546459612695" lon="11.130203123159712"><ele>91.33333333333333</ele><time>2026-03-28T15:42:57.001Z</time></trkpt><trkpt lat="43.68547778982664" lon="11.130132384480724"><ele>90.66666666666667</ele><time>2026-03-28T15:42:58.001Z</time></trkpt><trkpt lat="43.685410159469974" lon="11.130057443550598"><ele>90.0</ele><time>2026-03-28T15:42:59.001Z</time></trkpt><trkpt lat="43.68534194672153" lon="11.129980063552486"><ele>90.0</ele><time>2026-03-28T15:43:00.001Z</time></trkpt><trkpt lat="43.68527032828698" lon="11.129900530179688"><ele>90.0</ele><time>2026-03-28T15:43:01.001Z</time></trkpt><trkpt lat="43.685194714582416" lon="11.12982304615206"><ele>90.0</ele><time>2026-03-28T15:43:02.001Z</time></trkpt><trkpt lat="43.685120260935385" lon="11.12974113310285"><ele>90.0</ele><time>2026-03-28T15:43:03.001Z</time></trkpt><trkpt lat="43.68504646601796" lon="11.129642794606236"><ele>90.0</ele><time>2026-03-28T15:43:04.001Z</time></trkpt><trkpt lat="43.6849755338594" lon="11.12953552582451"><ele>88.75</ele><time>2026-03-28T15:43:05.001Z</time></trkpt><trkpt lat="43.684907683405505" lon="11.12940692288157"><ele>87.5</ele><time>2026-03-28T15:43:06.001Z</time></trkpt><trkpt lat="43.68484379209922" lon="11.129236339858473"><ele>86.25</ele><time>2026-03-28T15:43:07.001Z</time></trkpt><trkpt lat="43.68478224381957" lon="11.129051213177695"><ele>85.0</ele><time>2026-03-28T15:43:08.001Z</time></trkpt><trkpt lat="43.684732751309745" lon="11.128870909649281"><ele>84.8</ele><time>2026-03-28T15:43:09.001Z</time></trkpt><trkpt lat="43.68470308413298" lon="11.128702381524276"><ele>84.6</ele><time>2026-03-28T15:43:10.001Z</time></trkpt><trkpt lat="43.68466191830952" lon="11.128556230544497"><ele>84.4</ele><time>2026-03-28T15:43:11.001Z</time></trkpt><trkpt lat="43.68461788513352" lon="11.12842515334361"><ele>84.2</ele><time>2026-03-28T15:43:12.001Z</time></trkpt><trkpt lat="43.68458348068303" lon="11.128316183077706"><ele>84.0</ele><time>2026-03-28T15:43:13.001Z</time></trkpt><trkpt lat="43.68454723908617" lon="11.12821996531578"><ele>84.0</ele><time>2026-03-28T15:43:14.001Z</time></trkpt><trkpt lat="43.68450996292967" lon="11.128143693127594"><ele>84.0</ele><time>2026-03-28T15:43:15.001Z</time></trkpt><trkpt lat="43.68444981067214" lon="11.128069718215142"><ele>84.0</ele><time>2026-03-28T15:43:17.001Z</time></trkpt><trkpt lat="43.68434737708056" lon="11.128257344054294"><ele>84.0</ele><time>2026-03-28T15:43:19.001Z</time></trkpt><trkpt lat="43.684314721787096" lon="11.128384720532846"><ele>84.0</ele><time>2026-03-28T15:43:20.001Z</time></trkpt><trkpt lat="43.68424500081409" lon="11.128485797059255"><ele>83.6</ele><time>2026-03-28T15:43:21.001Z</time></trkpt><trkpt lat="43.68419164528784" lon="11.128535930474197"><ele>83.2</ele><time>2026-03-28T15:43:24.001Z</time></trkpt><trkpt lat="43.68412547078134" lon="11.128610454554853"><ele>82.8</ele><time>2026-03-28T15:43:31.001Z</time></trkpt><trkpt lat="43.68404978826521" lon="11.128695949188522"><ele>82.39999999999999</ele><time>2026-03-28T15:43:32.001Z</time></trkpt><trkpt lat="43.683960706391126" lon="11.128791740213615"><ele>82.0</ele><time>2026-03-28T15:43:33.001Z</time></trkpt><trkpt lat="43.68384260985916" lon="11.12890765907675"><ele>82.0</ele><time>2026-03-28T15:43:34.001Z</time></trkpt><trkpt lat="43.68370326150363" lon="11.129010390971782"><ele>82.0</ele><time>2026-03-28T15:43:35.001Z</time></trkpt><trkpt lat="43.68355768180133" lon="11.12913962086612"><ele>82.0</ele><time>2026-03-28T15:43:36.001Z</time></trkpt><trkpt lat="43.6834050222882" lon="11.129298138344941"><ele>82.0</ele><time>2026-03-28T15:43:37.001Z</time></trkpt><trkpt lat="43.683240582194536" lon="11.129444883788077"><ele>82.0</ele><time>2026-03-28T15:43:38.001Z</time></trkpt><trkpt lat="43.6830781564959" lon="11.129604672814434"><ele>82.0</ele><time>2026-03-28T15:43:39.001Z</time></trkpt><trkpt lat="43.68294352562383" lon="11.129753533025857"><ele>83.0</ele><time>2026-03-28T15:43:40.001Z</time></trkpt><trkpt lat="43.68283749187696" lon="11.129909473198598"><ele>84.0</ele><time>2026-03-28T15:43:41.001Z</time></trkpt><trkpt lat="43.68276322015336" lon="11.130088545665684"><ele>85.0</ele><time>2026-03-28T15:43:42.001Z</time></trkpt><trkpt lat="43.68273014959454" lon="11.13031921246158"><ele>86.0</ele><time>2026-03-28T15:43:43.001Z</time></trkpt><trkpt lat="43.682731926679615" lon="11.130564094934806"><ele>87.0</ele><time>2026-03-28T15:43:44.001Z</time></trkpt><trkpt lat="43.6827567103303" lon="11.130834816959045"><ele>88.0</ele><time>2026-03-28T15:43:45.001Z</time></trkpt><trkpt lat="43.6827564454462" lon="11.131130066091739"><ele>88.5</ele><time>2026-03-28T15:43:46.001Z</time></trkpt><trkpt lat="43.68279609329486" lon="11.13144955878349"><ele>89.0</ele><time>2026-03-28T15:43:47.001Z</time></trkpt><trkpt lat="43.682809229439556" lon="11.131780709664627"><ele>91.5</ele><time>2026-03-28T15:43:48.001Z</time></trkpt><trkpt lat="43.6828286895576" lon="11.132108436408227"><ele>94.0</ele><time>2026-03-28T15:43:49.001Z</time></trkpt><trkpt lat="43.68283394137398" lon="11.132432995702072"><ele>95.33333333333333</ele><time>2026-03-28T15:43:50.001Z</time></trkpt><trkpt lat="43.68284324645927" lon="11.132735213199055"><ele>96.66666666666666</ele><time>2026-03-28T15:43:51.001Z</time></trkpt><trkpt lat="43.682821756995295" lon="11.133004433836238"><ele>98.0</ele><time>2026-03-28T15:43:52.001Z</time></trkpt><trkpt lat="43.68282144591435" lon="11.133247253585026"><ele>101.33333333333333</ele><time>2026-03-28T15:43:53.001Z</time></trkpt><trkpt lat="43.68280141845149" lon="11.133471683803846"><ele>104.66666666666666</ele><time>2026-03-28T15:43:54.001Z</time></trkpt><trkpt lat="43.68276288791031" lon="11.133693042606705"><ele>108.0</ele><time>2026-03-28T15:43:55.001Z</time></trkpt><trkpt lat="43.68274149787308" lon="11.133903132017453"><ele>110.5</ele><time>2026-03-28T15:43:56.001Z</time></trkpt><trkpt lat="43.682735285791836" lon="11.134080863464566"><ele>113.0</ele><time>2026-03-28T15:43:57.001Z</time></trkpt><trkpt lat="43.68272179114265" lon="11.134234415269704"><ele>115.5</ele><time>2026-03-28T15:43:58.001Z</time></trkpt><trkpt lat="43.68271133035921" lon="11.134380417022731"><ele>118.0</ele><time>2026-03-28T15:43:59.001Z</time></trkpt><trkpt lat="43.682732503938105" lon="11.134549312310124"><ele>119.0</ele><time>2026-03-28T15:44:00.001Z</time></trkpt><trkpt lat="43.68276546542527" lon="11.13476665536231"><ele>120.0</ele><time>2026-03-28T15:44:01.001Z</time></trkpt><trkpt lat="43.68280284257292" lon="11.135027537316859"><ele>121.0</ele><time>2026-03-28T15:44:02.002Z</time></trkpt><trkpt lat="43.68282907661882" lon="11.13529033370033"><ele>121.0</ele><time>2026-03-28T15:44:03.002Z</time></trkpt><trkpt lat="43.682878981195174" lon="11.135545737496837"><ele>121.0</ele><time>2026-03-28T15:44:04.002Z</time></trkpt><trkpt lat="43.68295995759196" lon="11.135757586962837"><ele>121.0</ele><time>2026-03-28T15:44:05.002Z</time></trkpt><trkpt lat="43.68306480005278" lon="11.135929692776642"><ele>123.25</ele><time>2026-03-28T15:44:06.002Z</time></trkpt><trkpt lat="43.683160044299" lon="11.136067005887082"><ele>125.5</ele><time>2026-03-28T15:44:07.002Z</time></trkpt><trkpt lat="43.68323629496225" lon="11.136193089157102"><ele>127.75</ele><time>2026-03-28T15:44:08Z</time></trkpt><trkpt lat="43.68328230405099" lon="11.136342503173529"><ele>130.0</ele><time>2026-03-28T15:44:09Z</time></trkpt><trkpt lat="43.683255252255805" lon="11.136519634326543"><ele>132.0</ele><time>2026-03-28T15:44:10Z</time></trkpt><trkpt lat="43.68321195877999" lon="11.136720194729685"><ele>134.0</ele><time>2026-03-28T15:44:11Z</time></trkpt><trkpt lat="43.683157260274726" lon="11.136958529216892"><ele>136.0</ele><time>2026-03-28T15:44:12Z</time></trkpt><trkpt lat="43.68309199885344" lon="11.137234015302605"><ele>137.0</ele><time>2026-03-28T15:44:13Z</time></trkpt><trkpt lat="43.68302741525971" lon="11.137530973047218"><ele>138.0</ele><time>2026-03-28T15:44:14Z</time></trkpt><trkpt lat="43.682956701648095" lon="11.13784350352859"><ele>138.0</ele><time>2026-03-28T15:44:15Z</time></trkpt><trkpt lat="43.682890341011365" lon="11.13817048038324"><ele>138.0</ele><time>2026-03-28T15:44:16Z</time></trkpt><trkpt lat="43.68284056637576" lon="11.138517344777114"><ele>140.5</ele><time>2026-03-28T15:44:17Z</time></trkpt><trkpt lat="43.68281575476134" lon="11.1388790389034"><ele>143.0</ele><time>2026-03-28T15:44:18Z</time></trkpt><trkpt lat="43.68275884978062" lon="11.139230933716597"><ele>149.0</ele><time>2026-03-28T15:44:19Z</time></trkpt><trkpt lat="43.68268725304164" lon="11.139571107398996"><ele>155.0</ele><time>2026-03-28T15:44:20Z</time></trkpt><trkpt lat="43.68263821369589" lon="11.139845809424163"><ele>158.33333333333331</ele><time>2026-03-28T15:44:21Z</time></trkpt><trkpt lat="43.68262564793626" lon="11.140110891643195"><ele>161.66666666666666</ele><time>2026-03-28T15:44:22Z</time></trkpt><trkpt lat="43.68266834649144" lon="11.140383773229795"><ele>165.0</ele><time>2026-03-28T15:44:23Z</time></trkpt><trkpt lat="43.68271067806861" lon="11.140596482438138"><ele>166.5</ele><time>2026-03-28T15:44:24Z</time></trkpt><trkpt lat="43.6826688047996" lon="11.140774934049556"><ele>168.0</ele><time>2026-03-28T15:44:25Z</time></trkpt><trkpt lat="43.68259283599544" lon="11.140909560972881"><ele>169.5</ele><time>2026-03-28T15:44:26Z</time></trkpt><trkpt lat="43.682485487321685" lon="11.141029122213737"><ele>171.0</ele><time>2026-03-28T15:44:27Z</time></trkpt><trkpt lat="43.682321085101954" lon="11.141087505292475"><ele>171.0</ele><time>2026-03-28T15:44:28Z</time></trkpt><trkpt lat="43.682148995865006" lon="11.141205025432395"><ele>171.0</ele><time>2026-03-28T15:44:29Z</time></trkpt><trkpt lat="43.681973666720765" lon="11.141315812287012"><ele>171.0</ele><time>2026-03-28T15:44:30Z</time></trkpt><trkpt lat="43.68183407926003" lon="11.141479248203629"><ele>176.33333333333334</ele><time>2026-03-28T15:44:31Z</time></trkpt><trkpt lat="43.681731446171945" lon="11.141719012270038"><ele>181.66666666666669</ele><time>2026-03-28T15:44:32Z</time></trkpt><trkpt lat="43.68167633617878" lon="11.141994072322733"><ele>187.0</ele><time>2026-03-28T15:44:33Z</time></trkpt><trkpt lat="43.681636565026764" lon="11.142238345444529"><ele>186.33333333333334</ele><time>2026-03-28T15:44:34Z</time></trkpt><trkpt lat="43.68152022872488" lon="11.14241559573633"><ele>185.66666666666666</ele><time>2026-03-28T15:44:35Z</time></trkpt><trkpt lat="43.68138314255152" lon="11.142597888612578"><ele>185.0</ele><time>2026-03-28T15:44:36Z</time></trkpt><trkpt lat="43.68121881944495" lon="11.14277189504505"><ele>197.5</ele><time>2026-03-28T15:44:37Z</time></trkpt><trkpt lat="43.68103505302643" lon="11.14296232683886"><ele>210.0</ele><time>2026-03-28T15:44:38Z</time></trkpt><trkpt lat="43.680814456128104" lon="11.143187076480567"><ele>205.0</ele><time>2026-03-28T15:44:39Z</time></trkpt><trkpt lat="43.68059646638454" lon="11.143412088323297"><ele>200.0</ele><time>2026-03-28T15:44:40Z</time></trkpt><trkpt lat="43.68037552141144" lon="11.143671970063039"><ele>210.0</ele><time>2026-03-28T15:44:41Z</time></trkpt><trkpt lat="43.680169296824474" lon="11.143861293399526"><ele>220.0</ele><time>2026-03-28T15:44:42Z</time></trkpt><trkpt lat="43.68000300344087" lon="11.144033800676432"><ele>217.33333333333331</ele><time>2026-03-28T15:44:43Z</time></trkpt><trkpt lat="43.679843349792485" lon="11.144183886198968"><ele>214.66666666666669</ele><time>2026-03-28T15:44:44Z</time></trkpt><trkpt lat="43.6796778849358" lon="11.144319033012925"><ele>212.0</ele><time>2026-03-28T15:44:45Z</time></trkpt><trkpt lat="43.679512454161774" lon="11.144474040469786"><ele>214.0</ele><time>2026-03-28T15:44:46Z</time></trkpt><trkpt lat="43.6793738560052" lon="11.14457120727668"><ele>216.0</ele><time>2026-03-28T15:44:47Z</time></trkpt><trkpt lat="43.679268412934285" lon="11.14466412120677"><ele>218.0</ele><time>2026-03-28T15:44:48Z</time></trkpt><trkpt lat="43.679198195506416" lon="11.144794318872139"><ele>220.0</ele><time>2026-03-28T15:44:49Z</time></trkpt><trkpt lat="43.67913806517406" lon="11.144967472620019"><ele>220.33333333333331</ele><time>2026-03-28T15:44:50Z</time></trkpt><trkpt lat="43.679095507030986" lon="11.145199538520925"><ele>220.66666666666669</ele><time>2026-03-28T15:44:51Z</time></trkpt><trkpt lat="43.67907930988622" lon="11.145493490307128"><ele>221.0</ele><time>2026-03-28T15:44:52Z</time></trkpt><trkpt lat="43.67907796698936" lon="11.145806780319282"><ele>223.0</ele><time>2026-03-28T15:44:53Z</time></trkpt><trkpt lat="43.67907015438017" lon="11.146138089490613"><ele>225.0</ele><time>2026-03-28T15:44:54Z</time></trkpt><trkpt lat="43.67905413640106" lon="11.146487998124597"><ele>229.5</ele><time>2026-03-28T15:44:55Z</time></trkpt><trkpt lat="43.67903663434398" lon="11.146833668441229"><ele>234.0</ele><time>2026-03-28T15:44:56Z</time></trkpt><trkpt lat="43.67901964713795" lon="11.14712341691659"><ele>235.0</ele><time>2026-03-28T15:44:57Z</time></trkpt><trkpt lat="43.67898820775246" lon="11.147390558638444"><ele>236.0</ele><time>2026-03-28T15:44:58Z</time></trkpt><trkpt lat="43.67890297312538" lon="11.147649609786209"><ele>237.0</ele><time>2026-03-28T15:44:59Z</time></trkpt><trkpt lat="43.678824655860815" lon="11.14794654930035"><ele>237.0</ele><time>2026-03-28T15:45:00Z</time></trkpt><trkpt lat="43.67872578641168" lon="11.148207185001814"><ele>237.0</ele><time>2026-03-28T15:45:01Z</time></trkpt><trkpt lat="43.67862983731107" lon="11.148428383224463"><ele>237.0</ele><time>2026-03-28T15:45:02Z</time></trkpt><trkpt lat="43.67851117196956" lon="11.14863385532626"><ele>236.0</ele><time>2026-03-28T15:45:03Z</time></trkpt><trkpt lat="43.67837178467888" lon="11.148816275140842"><ele>235.0</ele><time>2026-03-28T15:45:04Z</time></trkpt><trkpt lat="43.67823611718301" lon="11.14896725077745"><ele>234.0</ele><time>2026-03-28T15:45:05Z</time></trkpt><trkpt lat="43.67811863986384" lon="11.149098441635077"><ele>233.75</ele><time>2026-03-28T15:45:06Z</time></trkpt><trkpt lat="43.67800819011984" lon="11.149229708178458"><ele>233.5</ele><time>2026-03-28T15:45:07Z</time></trkpt><trkpt lat="43.67790375254552" lon="11.149362276166057"><ele>233.25</ele><time>2026-03-28T15:45:08Z</time></trkpt><trkpt lat="43.67780435683054" lon="11.149479921279932"><ele>233.0</ele><time>2026-03-28T15:45:09Z</time></trkpt><trkpt lat="43.6777097819863" lon="11.14959330103216"><ele>233.5</ele><time>2026-03-28T15:45:10Z</time></trkpt><trkpt lat="43.67762139696279" lon="11.149701669130305"><ele>234.0</ele><time>2026-03-28T15:45:11Z</time></trkpt><trkpt lat="43.6775336458921" lon="11.149800763360359"><ele>234.5</ele><time>2026-03-28T15:45:12Z</time></trkpt><trkpt lat="43.67745491502901" lon="11.149902923191663"><ele>235.0</ele><time>2026-03-28T15:45:13Z</time></trkpt><trkpt lat="43.677367519414574" lon="11.15001608501177"><ele>235.0</ele><time>2026-03-28T15:45:14.001Z</time></trkpt><trkpt lat="43.67728213754359" lon="11.150127596818546"><ele>235.0</ele><time>2026-03-28T15:45:15.001Z</time></trkpt><trkpt lat="43.67718846961851" lon="11.150237540183758"><ele>235.0</ele><time>2026-03-28T15:45:16.001Z</time></trkpt><trkpt lat="43.677090114484336" lon="11.150350229176135"><ele>235.0</ele><time>2026-03-28T15:45:17.001Z</time></trkpt><trkpt lat="43.6769928950072" lon="11.150460698134898"><ele>234.0</ele><time>2026-03-28T15:45:18.001Z</time></trkpt><trkpt lat="43.676905653074854" lon="11.150574532166853"><ele>233.0</ele><time>2026-03-28T15:45:19.001Z</time></trkpt><trkpt lat="43.676818821274146" lon="11.150699033663464"><ele>232.0</ele><time>2026-03-28T15:45:20.001Z</time></trkpt><trkpt lat="43.676737268648445" lon="11.150848264442217"><ele>231.0</ele><time>2026-03-28T15:45:21.001Z</time></trkpt><trkpt lat="43.67667187736926" lon="11.151023978951622"><ele>233.66666666666669</ele><time>2026-03-28T15:45:22.001Z</time></trkpt><trkpt lat="43.6765959062668" lon="11.151203823519495"><ele>236.33333333333334</ele><time>2026-03-28T15:45:23.001Z</time></trkpt><trkpt lat="43.67648776423089" lon="11.151370077176233"><ele>239.0</ele><time>2026-03-28T15:45:24.001Z</time></trkpt><trkpt lat="43.67635492873558" lon="11.151514382980597"><ele>239.0</ele><time>2026-03-28T15:45:25.001Z</time></trkpt><trkpt lat="43.676224706605986" lon="11.151645304291849"><ele>239.0</ele><time>2026-03-28T15:45:26.001Z</time></trkpt><trkpt lat="43.676100820509156" lon="11.151786459258606"><ele>239.0</ele><time>2026-03-28T15:45:27.001Z</time></trkpt><trkpt lat="43.6759794603149" lon="11.151939082608461"><ele>241.0</ele><time>2026-03-28T15:45:28.001Z</time></trkpt><trkpt lat="43.67585465334783" lon="11.152092070471163"><ele>243.0</ele><time>2026-03-28T15:45:29.001Z</time></trkpt><trkpt lat="43.67574229144805" lon="11.152225487831771"><ele>245.0</ele><time>2026-03-28T15:45:30.001Z</time></trkpt><trkpt lat="43.675632105570955" lon="11.152363131269906"><ele>246.25</ele><time>2026-03-28T15:45:31.001Z</time></trkpt><trkpt lat="43.675524215505895" lon="11.152495862953515"><ele>247.5</ele><time>2026-03-28T15:45:32.001Z</time></trkpt><trkpt lat="43.67540943546709" lon="11.152620238782957"><ele>248.75</ele><time>2026-03-28T15:45:33.001Z</time></trkpt><trkpt lat="43.67528560279516" lon="11.152737241228982"><ele>250.0</ele><time>2026-03-28T15:45:34.001Z</time></trkpt><trkpt lat="43.675151307904954" lon="11.152842908205205"><ele>247.25</ele><time>2026-03-28T15:45:35.001Z</time></trkpt><trkpt lat="43.6750335148212" lon="11.152940489653126"><ele>244.5</ele><time>2026-03-28T15:45:36.001Z</time></trkpt><trkpt lat="43.67494019824227" lon="11.153020777072458"><ele>241.75</ele><time>2026-03-28T15:45:37.001Z</time></trkpt><trkpt lat="43.67484886649251" lon="11.153101562034381"><ele>239.0</ele><time>2026-03-28T15:45:38.001Z</time></trkpt><trkpt lat="43.67475060511032" lon="11.153188649512293"><ele>239.5</ele><time>2026-03-28T15:45:39.001Z</time></trkpt><trkpt lat="43.67465124363104" lon="11.15327682376088"><ele>240.0</ele><time>2026-03-28T15:45:40.001Z</time></trkpt><trkpt lat="43.67454960301182" lon="11.153363497683886"><ele>240.5</ele><time>2026-03-28T15:45:41.001Z</time></trkpt><trkpt lat="43.674447395376184" lon="11.153446291425404"><ele>241.0</ele><time>2026-03-28T15:45:42.001Z</time></trkpt><trkpt lat="43.67435035843485" lon="11.153535578501439"><ele>241.0</ele><time>2026-03-28T15:45:43.001Z</time></trkpt><trkpt lat="43.674250008607565" lon="11.153637433371841"><ele>241.0</ele><time>2026-03-28T15:45:44.001Z</time></trkpt><trkpt lat="43.67415009622156" lon="11.153721746863262"><ele>241.0</ele><time>2026-03-28T15:45:45.001Z</time></trkpt><trkpt lat="43.674040340508036" lon="11.153810676612343"><ele>241.0</ele><time>2026-03-28T15:45:46.001Z</time></trkpt><trkpt lat="43.673929677242874" lon="11.153899201791733"><ele>241.0</ele><time>2026-03-28T15:45:47.001Z</time></trkpt><trkpt lat="43.67381875974463" lon="11.153987360685376"><ele>241.0</ele><time>2026-03-28T15:45:48.001Z</time></trkpt><trkpt lat="43.673704638272206" lon="11.154071692581832"><ele>241.0</ele><time>2026-03-28T15:45:49.001Z</time></trkpt><trkpt lat="43.67358552531866" lon="11.154148237888275"><ele>241.0</ele><time>2026-03-28T15:45:50.001Z</time></trkpt><trkpt lat="43.67345356633425" lon="11.15422691859882"><ele>242.66666666666666</ele><time>2026-03-28T15:45:51.001Z</time></trkpt><trkpt lat="43.67331198829636" lon="11.154314288720704"><ele>244.33333333333331</ele><time>2026-03-28T15:45:52.001Z</time></trkpt><trkpt lat="43.67315789022081" lon="11.154403863430241"><ele>246.0</ele><time>2026-03-28T15:45:53.001Z</time></trkpt><trkpt lat="43.67298840999721" lon="11.154504911424343"><ele>246.0</ele><time>2026-03-28T15:45:54.001Z</time></trkpt><trkpt lat="43.67281279057438" lon="11.154640184960247"><ele>246.0</ele><time>2026-03-28T15:45:55.001Z</time></trkpt><trkpt lat="43.6726030644203" lon="11.154808805164693"><ele>246.0</ele><time>2026-03-28T15:45:56.001Z</time></trkpt><trkpt lat="43.67236435529153" lon="11.154999049142319"><ele>248.0</ele><time>2026-03-28T15:45:57.001Z</time></trkpt><trkpt lat="43.672092081081026" lon="11.155214892986853"><ele>250.0</ele><time>2026-03-28T15:45:58.001Z</time></trkpt><trkpt lat="43.67179972297902" lon="11.155421169511245"><ele>251.0</ele><time>2026-03-28T15:45:59.001Z</time></trkpt><trkpt lat="43.671514207842286" lon="11.155621559680807"><ele>252.0</ele><time>2026-03-28T15:46:00.001Z</time></trkpt><trkpt lat="43.67129490152216" lon="11.155790584486155"><ele>254.66666666666669</ele><time>2026-03-28T15:46:01.001Z</time></trkpt><trkpt lat="43.67110741955308" lon="11.155939325327994"><ele>257.33333333333337</ele><time>2026-03-28T15:46:02.001Z</time></trkpt><trkpt lat="43.67094005497904" lon="11.156103837723366"><ele>260.0</ele><time>2026-03-28T15:46:03.001Z</time></trkpt><trkpt lat="43.67077419886505" lon="11.156310679099812"><ele>263.5</ele><time>2026-03-28T15:46:04.001Z</time></trkpt><trkpt lat="43.67061075088669" lon="11.156563487850391"><ele>267.0</ele><time>2026-03-28T15:46:05.001Z</time></trkpt><trkpt lat="43.67045875868751" lon="11.156849760634815"><ele>267.0</ele><time>2026-03-28T15:46:06.001Z</time></trkpt><trkpt lat="43.6703095549524" lon="11.15714987335197"><ele>267.0</ele><time>2026-03-28T15:46:07.001Z</time></trkpt><trkpt lat="43.67015372673203" lon="11.157438472326524"><ele>272.5</ele><time>2026-03-28T15:46:08.001Z</time></trkpt><trkpt lat="43.67000550224966" lon="11.157708757138803"><ele>278.0</ele><time>2026-03-28T15:46:09.001Z</time></trkpt><trkpt lat="43.669868512043635" lon="11.157959152309834"><ele>278.0</ele><time>2026-03-28T15:46:10.001Z</time></trkpt><trkpt lat="43.669754677148944" lon="11.158173036233427"><ele>278.0</ele><time>2026-03-28T15:46:11.001Z</time></trkpt><trkpt lat="43.6696512206914" lon="11.15835907228165"><ele>278.0</ele><time>2026-03-28T15:46:12.001Z</time></trkpt><trkpt lat="43.669563920212255" lon="11.158537468969648"><ele>279.33333333333337</ele><time>2026-03-28T15:46:13.001Z</time></trkpt><trkpt lat="43.66947755226013" lon="11.158729395883292"><ele>280.6666666666667</ele><time>2026-03-28T15:46:13.999Z</time></trkpt><trkpt lat="43.66939307802312" lon="11.1589652591335"><ele>282.0</ele><time>2026-03-28T15:46:14.999Z</time></trkpt><trkpt lat="43.66931712206715" lon="11.15923990306005"><ele>284.5</ele><time>2026-03-28T15:46:15.999Z</time></trkpt><trkpt lat="43.66923969456221" lon="11.159537622992543"><ele>287.0</ele><time>2026-03-28T15:46:16.999Z</time></trkpt><trkpt lat="43.669150218351085" lon="11.159853166769734"><ele>289.0</ele><time>2026-03-28T15:46:17.999Z</time></trkpt><trkpt lat="43.66905881785904" lon="11.160171148783645"><ele>291.0</ele><time>2026-03-28T15:46:18.999Z</time></trkpt><trkpt lat="43.66897204527946" lon="11.160485249614648"><ele>291.6666666666667</ele><time>2026-03-28T15:46:19.999Z</time></trkpt><trkpt lat="43.66888646004174" lon="11.160781932134512"><ele>292.33333333333337</ele><time>2026-03-28T15:46:20.999Z</time></trkpt><trkpt lat="43.668813487143346" lon="11.161051130243061"><ele>293.0</ele><time>2026-03-28T15:46:21.999Z</time></trkpt><trkpt lat="43.66874955050959" lon="11.161313610223202"><ele>292.6666666666667</ele><time>2026-03-28T15:46:22.999Z</time></trkpt><trkpt lat="43.66869643674516" lon="11.161572375377272"><ele>292.3333333333333</ele><time>2026-03-28T15:46:23.999Z</time></trkpt><trkpt lat="43.66865588121603" lon="11.16182411664017"><ele>292.0</ele><time>2026-03-28T15:46:24.999Z</time></trkpt><trkpt lat="43.6686158469601" lon="11.162066538426044"><ele>289.3333333333333</ele><time>2026-03-28T15:46:25.999Z</time></trkpt><trkpt lat="43.66854613092984" lon="11.162285248454545"><ele>286.6666666666667</ele><time>2026-03-28T15:46:26.999Z</time></trkpt><trkpt lat="43.66846763457668" lon="11.162484321988511"><ele>284.0</ele><time>2026-03-28T15:46:27.999Z</time></trkpt><trkpt lat="43.668366817623834" lon="11.162651756381539"><ele>284.0</ele><time>2026-03-28T15:46:28.999Z</time></trkpt><trkpt lat="43.66823710980371" lon="11.162811482393703"><ele>284.0</ele><time>2026-03-28T15:46:29.999Z</time></trkpt><trkpt lat="43.66807365840038" lon="11.162988252930344"><ele>284.0</ele><time>2026-03-28T15:46:30.999Z</time></trkpt><trkpt lat="43.66790288066709" lon="11.163173868636006"><ele>285.33333333333337</ele><time>2026-03-28T15:46:31.999Z</time></trkpt><trkpt lat="43.66773452900616" lon="11.163354621402572"><ele>286.6666666666667</ele><time>2026-03-28T15:46:32.999Z</time></trkpt><trkpt lat="43.667564651997765" lon="11.16356404611186"><ele>288.0</ele><time>2026-03-28T15:46:33.999Z</time></trkpt><trkpt lat="43.66737570931489" lon="11.163732952704557"><ele>288.0</ele><time>2026-03-28T15:46:34.999Z</time></trkpt><trkpt lat="43.667195065906924" lon="11.163903322050169"><ele>288.0</ele><time>2026-03-28T15:46:35.999Z</time></trkpt><trkpt lat="43.666997307771595" lon="11.164066678540086"><ele>288.0</ele><time>2026-03-28T15:46:36.999Z</time></trkpt><trkpt lat="43.66679938325436" lon="11.164226417411877"><ele>291.5</ele><time>2026-03-28T15:46:37.999Z</time></trkpt><trkpt lat="43.66660380067286" lon="11.16438462737085"><ele>295.0</ele><time>2026-03-28T15:46:38.999Z</time></trkpt><trkpt lat="43.66640760831233" lon="11.164545452389277"><ele>295.0</ele><time>2026-03-28T15:46:39.999Z</time></trkpt><trkpt lat="43.66621315753355" lon="11.164702205988252"><ele>295.0</ele><time>2026-03-28T15:46:40.999Z</time></trkpt><trkpt lat="43.66604545646674" lon="11.164845003581464"><ele>295.0</ele><time>2026-03-28T15:46:41.999Z</time></trkpt><trkpt lat="43.66586339132084" lon="11.165027658869578"><ele>296.5</ele><time>2026-03-28T15:46:42.999Z</time></trkpt><trkpt lat="43.6656809801948" lon="11.1652702171828"><ele>298.0</ele><time>2026-03-28T15:46:44Z</time></trkpt><trkpt lat="43.66550352531432" lon="11.165566009841276"><ele>297.5</ele><time>2026-03-28T15:46:45Z</time></trkpt><trkpt lat="43.66532602713581" lon="11.165863766801408"><ele>297.0</ele><time>2026-03-28T15:46:46Z</time></trkpt><trkpt lat="43.665150633038245" lon="11.166105288208703"><ele>299.0</ele><time>2026-03-28T15:46:47Z</time></trkpt><trkpt lat="43.66500304727179" lon="11.166323511992902"><ele>301.0</ele><time>2026-03-28T15:46:48Z</time></trkpt><trkpt lat="43.66489025351458" lon="11.166498052889846"><ele>303.0</ele><time>2026-03-28T15:46:49Z</time></trkpt><trkpt lat="43.66481572158136" lon="11.166623819990447"><ele>303.0</ele><time>2026-03-28T15:46:50Z</time></trkpt><trkpt lat="43.66474172064093" lon="11.166807633501115"><ele>303.0</ele><time>2026-03-28T15:46:51Z</time></trkpt><trkpt lat="43.664644771963964" lon="11.166992349495658"><ele>303.0</ele><time>2026-03-28T15:46:52Z</time></trkpt><trkpt lat="43.6645164872851" lon="11.167171995173268"><ele>302.6666666666667</ele><time>2026-03-28T15:46:53Z</time></trkpt><trkpt lat="43.664400016951355" lon="11.16737322480818"><ele>302.33333333333337</ele><time>2026-03-28T15:46:54Z</time></trkpt><trkpt lat="43.66427761532088" lon="11.167533933246627"><ele>302.0</ele><time>2026-03-28T15:46:55Z</time></trkpt><trkpt lat="43.66419503415532" lon="11.167724639690157"><ele>302.0</ele><time>2026-03-28T15:46:56Z</time></trkpt><trkpt lat="43.66416715823033" lon="11.167937283788968"><ele>302.0</ele><time>2026-03-28T15:46:57Z</time></trkpt><trkpt lat="43.66415691087848" lon="11.168111346648532"><ele>302.0</ele><time>2026-03-28T15:46:58Z</time></trkpt><trkpt lat="43.66412602345957" lon="11.168270551807653"><ele>302.0</ele><time>2026-03-28T15:46:59Z</time></trkpt><trkpt lat="43.66411335106635" lon="11.168435448118904"><ele>300.75</ele><time>2026-03-28T15:47:00Z</time></trkpt><trkpt lat="43.664105811992364" lon="11.168603893274689"><ele>299.5</ele><time>2026-03-28T15:47:01Z</time></trkpt><trkpt lat="43.664109032178516" lon="11.168776320512384"><ele>298.25</ele><time>2026-03-28T15:47:02Z</time></trkpt><trkpt lat="43.664134035132754" lon="11.16894327168419"><ele>297.0</ele><time>2026-03-28T15:47:03Z</time></trkpt><trkpt lat="43.66419122037607" lon="11.169111722248486"><ele>296.3333333333333</ele><time>2026-03-28T15:47:04Z</time></trkpt><trkpt lat="43.66428315630056" lon="11.169316274071535"><ele>295.66666666666663</ele><time>2026-03-28T15:47:05Z</time></trkpt><trkpt lat="43.664391366615305" lon="11.169569196997191"><ele>295.0</ele><time>2026-03-28T15:47:06Z</time></trkpt><trkpt lat="43.66451522444033" lon="11.169827298299975"><ele>295.66666666666663</ele><time>2026-03-28T15:47:07Z</time></trkpt><trkpt lat="43.66463966768326" lon="11.17004548581571"><ele>296.3333333333333</ele><time>2026-03-28T15:47:08Z</time></trkpt><trkpt lat="43.66472515980846" lon="11.17029144081419"><ele>297.0</ele><time>2026-03-28T15:47:09Z</time></trkpt><trkpt lat="43.66478774081205" lon="11.170548694354373"><ele>298.6666666666667</ele><time>2026-03-28T15:47:10Z</time></trkpt><trkpt lat="43.66482664210943" lon="11.170802630722852"><ele>300.33333333333337</ele><time>2026-03-28T15:47:11Z</time></trkpt><trkpt lat="43.66484515292776" lon="11.171066600083835"><ele>302.0</ele><time>2026-03-28T15:47:12Z</time></trkpt><trkpt lat="43.66485291711135" lon="11.171349951393829"><ele>301.0</ele><time>2026-03-28T15:47:13Z</time></trkpt><trkpt lat="43.66487302387886" lon="11.171643112109848"><ele>300.0</ele><time>2026-03-28T15:47:14Z</time></trkpt><trkpt lat="43.664898065805026" lon="11.171945761311704"><ele>299.0</ele><time>2026-03-28T15:47:15Z</time></trkpt><trkpt lat="43.664930203402676" lon="11.172267056430426"><ele>299.0</ele><time>2026-03-28T15:47:16Z</time></trkpt><trkpt lat="43.6649716415213" lon="11.17258328545994"><ele>299.0</ele><time>2026-03-28T15:47:17Z</time></trkpt><trkpt lat="43.665011200799825" lon="11.172883540715565"><ele>299.0</ele><time>2026-03-28T15:47:18Z</time></trkpt><trkpt lat="43.66504365508768" lon="11.173162764601646"><ele>299.0</ele><time>2026-03-28T15:47:19Z</time></trkpt><trkpt lat="43.66507329627605" lon="11.173428388198912"><ele>299.0</ele><time>2026-03-28T15:47:20Z</time></trkpt><trkpt lat="43.66511030845142" lon="11.173691269806227"><ele>297.33333333333337</ele><time>2026-03-28T15:47:21Z</time></trkpt><trkpt lat="43.66515093177907" lon="11.173940882942274"><ele>295.6666666666667</ele><time>2026-03-28T15:47:22Z</time></trkpt><trkpt lat="43.66521059484033" lon="11.174165274462496"><ele>294.0</ele><time>2026-03-28T15:47:23Z</time></trkpt><trkpt lat="43.66531076461822" lon="11.174363233306511"><ele>297.0</ele><time>2026-03-28T15:47:24Z</time></trkpt><trkpt lat="43.665441060140104" lon="11.174552722467094"><ele>300.0</ele><time>2026-03-28T15:47:25Z</time></trkpt><trkpt lat="43.66551469439215" lon="11.174761856602775"><ele>303.0</ele><time>2026-03-28T15:47:26Z</time></trkpt><trkpt lat="43.665558929391345" lon="11.175012835998785"><ele>303.0</ele><time>2026-03-28T15:47:27Z</time></trkpt><trkpt lat="43.66560010162517" lon="11.17528069343846"><ele>303.0</ele><time>2026-03-28T15:47:28Z</time></trkpt><trkpt lat="43.66565277691818" lon="11.175522300157214"><ele>303.0</ele><time>2026-03-28T15:47:29Z</time></trkpt><trkpt lat="43.665684109637375" lon="11.17573874113643"><ele>302.6666666666667</ele><time>2026-03-28T15:47:30Z</time></trkpt><trkpt lat="43.66569926794456" lon="11.175964956155232"><ele>302.33333333333337</ele><time>2026-03-28T15:47:31Z</time></trkpt><trkpt lat="43.665723621548004" lon="11.176181219659737"><ele>302.0</ele><time>2026-03-28T15:47:32Z</time></trkpt><trkpt lat="43.665707121710525" lon="11.176391507669129"><ele>302.0</ele><time>2026-03-28T15:47:33Z</time></trkpt><trkpt lat="43.66566824437736" lon="11.176556161286044"><ele>302.0</ele><time>2026-03-28T15:47:34Z</time></trkpt><trkpt lat="43.66557618660095" lon="11.176691355462026"><ele>302.0</ele><time>2026-03-28T15:47:35Z</time></trkpt><trkpt lat="43.66547150509386" lon="11.176862969609976"><ele>302.0</ele><time>2026-03-28T15:47:36Z</time></trkpt><trkpt lat="43.66533383684723" lon="11.177044218269671"><ele>302.33333333333337</ele><time>2026-03-28T15:47:37Z</time></trkpt><trkpt lat="43.665183315359634" lon="11.177188871053751"><ele>302.6666666666667</ele><time>2026-03-28T15:47:38Z</time></trkpt><trkpt lat="43.664999428343116" lon="11.177298626255242"><ele>303.0</ele><time>2026-03-28T15:47:39Z</time></trkpt><trkpt lat="43.66479619262552" lon="11.177408289032147"><ele>303.0</ele><time>2026-03-28T15:47:40Z</time></trkpt><trkpt lat="43.66459704318264" lon="11.177514850520673"><ele>303.0</ele><time>2026-03-28T15:47:41.001Z</time></trkpt><trkpt lat="43.66441559176986" lon="11.177620307415216"><ele>303.0</ele><time>2026-03-28T15:47:42.001Z</time></trkpt><trkpt lat="43.664232123097285" lon="11.177708932609688"><ele>302.3333333333333</ele><time>2026-03-28T15:47:43.001Z</time></trkpt><trkpt lat="43.66405842688308" lon="11.177813494826598"><ele>301.66666666666663</ele><time>2026-03-28T15:47:44.001Z</time></trkpt><trkpt lat="43.66389109600267" lon="11.177910013304308"><ele>301.0</ele><time>2026-03-28T15:47:45.001Z</time></trkpt><trkpt lat="43.663751152285535" lon="11.178013843604345"><ele>301.0</ele><time>2026-03-28T15:47:46.001Z</time></trkpt><trkpt lat="43.663651668252086" lon="11.178116140216362"><ele>301.0</ele><time>2026-03-28T15:47:47.001Z</time></trkpt><trkpt lat="43.66358124495832" lon="11.17822188253415"><ele>301.0</ele><time>2026-03-28T15:47:48.001Z</time></trkpt><trkpt lat="43.663517107577846" lon="11.178375755861683"><ele>301.0</ele><time>2026-03-28T15:47:49.001Z</time></trkpt><trkpt lat="43.66344728473372" lon="11.178533122098717"><ele>303.3333333333333</ele><time>2026-03-28T15:47:50.001Z</time></trkpt><trkpt lat="43.66335090595512" lon="11.178696016962727"><ele>305.6666666666667</ele><time>2026-03-28T15:47:51.001Z</time></trkpt><trkpt lat="43.66322077796598" lon="11.178831425230836"><ele>308.0</ele><time>2026-03-28T15:47:52.001Z</time></trkpt><trkpt lat="43.663073777142046" lon="11.178979673837718"><ele>307.6666666666667</ele><time>2026-03-28T15:47:53.001Z</time></trkpt><trkpt lat="43.66292318066391" lon="11.179143198612318"><ele>307.3333333333333</ele><time>2026-03-28T15:47:54.001Z</time></trkpt><trkpt lat="43.66278976818869" lon="11.179355139808134"><ele>307.0</ele><time>2026-03-28T15:47:55.001Z</time></trkpt><trkpt lat="43.6626492490412" lon="11.179577360852317"><ele>307.0</ele><time>2026-03-28T15:47:56.001Z</time></trkpt><trkpt lat="43.662507808543104" lon="11.179819084575614"><ele>307.0</ele><time>2026-03-28T15:47:57.001Z</time></trkpt><trkpt lat="43.66239122852746" lon="11.18007516859171"><ele>307.0</ele><time>2026-03-28T15:47:58.001Z</time></trkpt><trkpt lat="43.662306481185205" lon="11.180370741408579"><ele>305.66666666666663</ele><time>2026-03-28T15:47:59.001Z</time></trkpt><trkpt lat="43.66224094812051" lon="11.180644755664067"><ele>304.3333333333333</ele><time>2026-03-28T15:48:00.001Z</time></trkpt><trkpt lat="43.662183878576485" lon="11.180866497182857"><ele>303.0</ele><time>2026-03-28T15:48:01.001Z</time></trkpt><trkpt lat="43.662124441762515" lon="11.181070540087799"><ele>303.0</ele><time>2026-03-28T15:48:02.001Z</time></trkpt><trkpt lat="43.662034381269386" lon="11.181275008314275"><ele>303.0</ele><time>2026-03-28T15:48:03.001Z</time></trkpt><trkpt lat="43.66194043138643" lon="11.181504906156883"><ele>303.0</ele><time>2026-03-28T15:48:04.001Z</time></trkpt><trkpt lat="43.661837506813114" lon="11.181742641864869"><ele>302.25</ele><time>2026-03-28T15:48:05.001Z</time></trkpt><trkpt lat="43.66174059074075" lon="11.18193830640515"><ele>301.5</ele><time>2026-03-28T15:48:06.001Z</time></trkpt><trkpt lat="43.66166312605705" lon="11.182084726223714"><ele>300.75</ele><time>2026-03-28T15:48:07.001Z</time></trkpt><trkpt lat="43.66158404810494" lon="11.18220036725734"><ele>300.0</ele><time>2026-03-28T15:48:08.001Z</time></trkpt><trkpt lat="43.66150372033241" lon="11.182302502401472"><ele>300.0</ele><time>2026-03-28T15:48:09.001Z</time></trkpt><trkpt lat="43.66142100044775" lon="11.182327237769265"><ele>300.0</ele><time>2026-03-28T15:48:10.001Z</time></trkpt><trkpt lat="43.66137937096964" lon="11.18248410911061"><ele>300.0</ele><time>2026-03-28T15:48:12.001Z</time></trkpt><trkpt lat="43.661399458430196" lon="11.182622058960755"><ele>300.0</ele><time>2026-03-28T15:48:13.001Z</time></trkpt><trkpt lat="43.66139176692836" lon="11.182771491858116"><ele>300.0</ele><time>2026-03-28T15:48:14.001Z</time></trkpt><trkpt lat="43.661313980010895" lon="11.182949075975392"><ele>300.75</ele><time>2026-03-28T15:48:15.001Z</time></trkpt><trkpt lat="43.66123125471701" lon="11.183094721277852"><ele>301.5</ele><time>2026-03-28T15:48:16.001Z</time></trkpt><trkpt lat="43.66117284062852" lon="11.183174101344123"><ele>302.25</ele><time>2026-03-28T15:48:17.001Z</time></trkpt><trkpt lat="43.661313281104526" lon="11.183388479083561"><ele>303.0</ele><time>2026-03-28T15:48:19.998Z</time></trkpt><trkpt lat="43.66144009492761" lon="11.183429035389793"><ele>301.0</ele><time>2026-03-28T15:48:20.998Z</time></trkpt><trkpt lat="43.661580421628734" lon="11.183495954481362"><ele>299.0</ele><time>2026-03-28T15:48:21.998Z</time></trkpt><trkpt lat="43.66174375171331" lon="11.18359847261788"><ele>297.0</ele><time>2026-03-28T15:48:22.998Z</time></trkpt><trkpt lat="43.6618972657444" lon="11.183688171340085"><ele>297.0</ele><time>2026-03-28T15:48:23.998Z</time></trkpt><trkpt lat="43.66204463099609" lon="11.183758134082089"><ele>297.0</ele><time>2026-03-28T15:48:24.998Z</time></trkpt><trkpt lat="43.662165141630865" lon="11.183819603622151"><ele>297.0</ele><time>2026-03-28T15:48:25.998Z</time></trkpt><trkpt lat="43.662246317475564" lon="11.183886329842043"><ele>297.0</ele><time>2026-03-28T15:48:26.998Z</time></trkpt><trkpt lat="43.6623164293285" lon="11.183946344162452"><ele>294.0</ele><time>2026-03-28T15:48:27.998Z</time></trkpt><trkpt lat="43.66235067159494" lon="11.184061278591823"><ele>291.0</ele><time>2026-03-28T15:48:28.998Z</time></trkpt><trkpt lat="43.66224812339567" lon="11.184245280042452"><ele>288.0</ele><time>2026-03-28T15:48:30.998Z</time></trkpt><trkpt lat="43.66220223619223" lon="11.18439846067865"><ele>285.0</ele><time>2026-03-28T15:48:31.998Z</time></trkpt><trkpt lat="43.66215358434683" lon="11.184625586702177"><ele>282.6666666666667</ele><time>2026-03-28T15:48:32.998Z</time></trkpt><trkpt lat="43.6621259782777" lon="11.184866037831174"><ele>280.33333333333337</ele><time>2026-03-28T15:48:33.999Z</time></trkpt><trkpt lat="43.66211441047559" lon="11.18511225908552"><ele>278.0</ele><time>2026-03-28T15:48:34.999Z</time></trkpt><trkpt lat="43.66213862241785" lon="11.185340193551323"><ele>278.0</ele><time>2026-03-28T15:48:35.999Z</time></trkpt><trkpt lat="43.662184517415824" lon="11.185545819804585"><ele>278.0</ele><time>2026-03-28T15:48:36.999Z</time></trkpt><trkpt lat="43.66227911389275" lon="11.18572647446794"><ele>278.0</ele><time>2026-03-28T15:48:37.999Z</time></trkpt><trkpt lat="43.6624134852535" lon="11.185877295040308"><ele>278.6666666666667</ele><time>2026-03-28T15:48:38.999Z</time></trkpt><trkpt lat="43.66258138258731" lon="11.185986181959532"><ele>279.3333333333333</ele><time>2026-03-28T15:48:39.999Z</time></trkpt><trkpt lat="43.66276595710634" lon="11.186056148243612"><ele>280.0</ele><time>2026-03-28T15:48:40.999Z</time></trkpt><trkpt lat="43.66297597623687" lon="11.18609759669284"><ele>280.0</ele><time>2026-03-28T15:48:41.999Z</time></trkpt><trkpt lat="43.663197256536066" lon="11.186146120740327"><ele>280.0</ele><time>2026-03-28T15:48:42.999Z</time></trkpt><trkpt lat="43.663423023843464" lon="11.1862144563771"><ele>275.5</ele><time>2026-03-28T15:48:43.999Z</time></trkpt><trkpt lat="43.66364906481195" lon="11.186292997665456"><ele>271.0</ele><time>2026-03-28T15:48:44.999Z</time></trkpt><trkpt lat="43.66388043686749" lon="11.18636446944956"><ele>271.0</ele><time>2026-03-28T15:48:45.999Z</time></trkpt><trkpt lat="43.66411882812829" lon="11.186435953964082"><ele>271.0</ele><time>2026-03-28T15:48:46.999Z</time></trkpt><trkpt lat="43.66433847193956" lon="11.186508592464934"><ele>275.0</ele><time>2026-03-28T15:48:47.999Z</time></trkpt><trkpt lat="43.66454426348255" lon="11.186583295859778"><ele>279.0</ele><time>2026-03-28T15:48:48.999Z</time></trkpt><trkpt lat="43.66473435966348" lon="11.186688847547199"><ele>283.0</ele><time>2026-03-28T15:48:49.999Z</time></trkpt><trkpt lat="43.66494624964375" lon="11.18676301254987"><ele>283.0</ele><time>2026-03-28T15:48:50.999Z</time></trkpt><trkpt lat="43.665156322321465" lon="11.186874248670497"><ele>283.0</ele><time>2026-03-28T15:48:51.999Z</time></trkpt><trkpt lat="43.665375671814196" lon="11.186987659050095"><ele>280.0</ele><time>2026-03-28T15:48:52.999Z</time></trkpt><trkpt lat="43.66560081811502" lon="11.187087068414945"><ele>277.0</ele><time>2026-03-28T15:48:53.999Z</time></trkpt><trkpt lat="43.66579494948533" lon="11.18716375575027"><ele>274.0</ele><time>2026-03-28T15:48:54.999Z</time></trkpt><trkpt lat="43.665950240344515" lon="11.187257423415662"><ele>274.5</ele><time>2026-03-28T15:48:55.999Z</time></trkpt><trkpt lat="43.66608069544238" lon="11.18737457736245"><ele>275.0</ele><time>2026-03-28T15:48:57Z</time></trkpt><trkpt lat="43.66617295549392" lon="11.187531066775037"><ele>275.5</ele><time>2026-03-28T15:48:58Z</time></trkpt><trkpt lat="43.66623063397399" lon="11.18771909277054"><ele>276.0</ele><time>2026-03-28T15:48:59Z</time></trkpt><trkpt lat="43.666266978566064" lon="11.187920429850797"><ele>276.0</ele><time>2026-03-28T15:49:00Z</time></trkpt><trkpt lat="43.6662235962634" lon="11.188152774080807"><ele>276.0</ele><time>2026-03-28T15:49:01Z</time></trkpt><trkpt lat="43.666156743126805" lon="11.188335213692831"><ele>276.0</ele><time>2026-03-28T15:49:02Z</time></trkpt><trkpt lat="43.66604304043576" lon="11.188491293444928"><ele>278.6666666666667</ele><time>2026-03-28T15:49:03Z</time></trkpt><trkpt lat="43.66589490043225" lon="11.18859805859621"><ele>281.33333333333337</ele><time>2026-03-28T15:49:04Z</time></trkpt><trkpt lat="43.66572087839188" lon="11.188637588046127"><ele>284.0</ele><time>2026-03-28T15:49:05Z</time></trkpt><trkpt lat="43.665520062445204" lon="11.188653511079213"><ele>284.0</ele><time>2026-03-28T15:49:06Z</time></trkpt><trkpt lat="43.66531276767619" lon="11.188660550666402"><ele>284.0</ele><time>2026-03-28T15:49:07Z</time></trkpt><trkpt lat="43.6650868803528" lon="11.188665008037542"><ele>284.0</ele><time>2026-03-28T15:49:08Z</time></trkpt><trkpt lat="43.66485139594187" lon="11.188677864242438"><ele>284.5</ele><time>2026-03-28T15:49:09Z</time></trkpt><trkpt lat="43.66460945746342" lon="11.188691685095344"><ele>285.0</ele><time>2026-03-28T15:49:10Z</time></trkpt><trkpt lat="43.66436504591067" lon="11.18870332187194"><ele>284.0</ele><time>2026-03-28T15:49:11Z</time></trkpt><trkpt lat="43.664124282230716" lon="11.188716453621364"><ele>283.0</ele><time>2026-03-28T15:49:12Z</time></trkpt><trkpt lat="43.66387372342852" lon="11.18872595062183"><ele>283.0</ele><time>2026-03-28T15:49:13Z</time></trkpt><trkpt lat="43.66361828250069" lon="11.188735909118325"><ele>283.0</ele><time>2026-03-28T15:49:14Z</time></trkpt><trkpt lat="43.663350303548" lon="11.188751692630548"><ele>281.5</ele><time>2026-03-28T15:49:15Z</time></trkpt><trkpt lat="43.66306553324931" lon="11.188772863247122"><ele>280.0</ele><time>2026-03-28T15:49:16Z</time></trkpt><trkpt lat="43.66278394215269" lon="11.18878032957033"><ele>280.66666666666663</ele><time>2026-03-28T15:49:17Z</time></trkpt><trkpt lat="43.66253948241495" lon="11.188775925184105"><ele>281.3333333333333</ele><time>2026-03-28T15:49:18Z</time></trkpt><trkpt lat="43.66235568100818" lon="11.188784675748744"><ele>282.0</ele><time>2026-03-28T15:49:19Z</time></trkpt><trkpt lat="43.66220883358412" lon="11.188821275712362"><ele>282.0</ele><time>2026-03-28T15:49:20Z</time></trkpt><trkpt lat="43.66207785515476" lon="11.188918989259506"><ele>282.0</ele><time>2026-03-28T15:49:21Z</time></trkpt><trkpt lat="43.661950193761584" lon="11.18908184071947"><ele>282.0</ele><time>2026-03-28T15:49:22Z</time></trkpt><trkpt lat="43.66189623336619" lon="11.189308287841612"><ele>280.6666666666667</ele><time>2026-03-28T15:49:23Z</time></trkpt><trkpt lat="43.66186322982811" lon="11.189528515758305"><ele>279.33333333333337</ele><time>2026-03-28T15:49:24Z</time></trkpt><trkpt lat="43.66188042706228" lon="11.189749267531932"><ele>278.0</ele><time>2026-03-28T15:49:25Z</time></trkpt><trkpt lat="43.661948456527" lon="11.18995455699487"><ele>277.75</ele><time>2026-03-28T15:49:26Z</time></trkpt><trkpt lat="43.66204447407733" lon="11.190147295887844"><ele>277.5</ele><time>2026-03-28T15:49:27Z</time></trkpt><trkpt lat="43.66211982838795" lon="11.190354610202128"><ele>277.25</ele><time>2026-03-28T15:49:28Z</time></trkpt><trkpt lat="43.662172131573904" lon="11.190450729336225"><ele>277.0</ele><time>2026-03-28T15:49:29Z</time></trkpt><trkpt lat="43.66219172644966" lon="11.190570081334235"><ele>278.6</ele><time>2026-03-28T15:49:31Z</time></trkpt><trkpt lat="43.66211551256366" lon="11.190712463098853"><ele>280.2</ele><time>2026-03-28T15:49:33Z</time></trkpt><trkpt lat="43.6620408754266" lon="11.19078411800371"><ele>281.8</ele><time>2026-03-28T15:49:34Z</time></trkpt><trkpt lat="43.66197608106375" lon="11.19081532485529"><ele>283.4</ele><time>2026-03-28T15:49:35Z</time></trkpt><trkpt lat="43.66189890409865" lon="11.19082450617835"><ele>285.0</ele><time>2026-03-28T15:49:36Z</time></trkpt><trkpt lat="43.661803270384354" lon="11.19075480188574"><ele>285.0</ele><time>2026-03-28T15:49:37Z</time></trkpt><trkpt lat="43.66167407144004" lon="11.190716234660274"><ele>285.0</ele><time>2026-03-28T15:49:38Z</time></trkpt><trkpt lat="43.66153175027661" lon="11.190655790857566"><ele>285.0</ele><time>2026-03-28T15:49:39Z</time></trkpt><trkpt lat="43.661385603644646" lon="11.190616242676942"><ele>285.0</ele><time>2026-03-28T15:49:40Z</time></trkpt><trkpt lat="43.66122439819934" lon="11.19057617982432"><ele>287.0</ele><time>2026-03-28T15:49:41.001Z</time></trkpt><trkpt lat="43.66106399746636" lon="11.190537237315095"><ele>289.0</ele><time>2026-03-28T15:49:42.001Z</time></trkpt><trkpt lat="43.66090475933797" lon="11.190501598424452"><ele>291.0</ele><time>2026-03-28T15:49:43.001Z</time></trkpt><trkpt lat="43.66074175300663" lon="11.190471080656144"><ele>291.0</ele><time>2026-03-28T15:49:44.001Z</time></trkpt><trkpt lat="43.660600007983696" lon="11.190400033838158"><ele>291.0</ele><time>2026-03-28T15:49:45.001Z</time></trkpt><trkpt lat="43.66047729131014" lon="11.190345789223992"><ele>291.0</ele><time>2026-03-28T15:49:46.001Z</time></trkpt><trkpt lat="43.66035030257204" lon="11.190235959545387"><ele>291.0</ele><time>2026-03-28T15:49:47.001Z</time></trkpt><trkpt lat="43.660202975447895" lon="11.190112548417714"><ele>292.6666666666667</ele><time>2026-03-28T15:49:48.001Z</time></trkpt><trkpt lat="43.660058829887745" lon="11.189990273152397"><ele>294.33333333333337</ele><time>2026-03-28T15:49:49.001Z</time></trkpt><trkpt lat="43.659901218196374" lon="11.189865393132832"><ele>296.0</ele><time>2026-03-28T15:49:50.001Z</time></trkpt><trkpt lat="43.65973011491047" lon="11.189724712416862"><ele>296.0</ele><time>2026-03-28T15:49:51.001Z</time></trkpt><trkpt lat="43.6595705470171" lon="11.189592399158089"><ele>296.0</ele><time>2026-03-28T15:49:52.001Z</time></trkpt><trkpt lat="43.659418801827556" lon="11.189482300930061"><ele>296.0</ele><time>2026-03-28T15:49:53.001Z</time></trkpt><trkpt lat="43.6592813204408" lon="11.189411613253942"><ele>297.40000000000003</ele><time>2026-03-28T15:49:54.001Z</time></trkpt><trkpt lat="43.6591717177232" lon="11.18935111958881"><ele>298.8</ele><time>2026-03-28T15:49:55.001Z</time></trkpt><trkpt lat="43.65908008070598" lon="11.189296467378218"><ele>300.20000000000005</ele><time>2026-03-28T15:49:56.001Z</time></trkpt><trkpt lat="43.65899576442327" lon="11.189234181399687"><ele>301.6</ele><time>2026-03-28T15:49:57.001Z</time></trkpt><trkpt lat="43.65892481444605" lon="11.189169382303547"><ele>303.0</ele><time>2026-03-28T15:49:58.001Z</time></trkpt><trkpt lat="43.65886727488467" lon="11.18912209175541"><ele>303.0</ele><time>2026-03-28T15:49:59.001Z</time></trkpt><trkpt lat="43.65880451468944" lon="11.18905703125528"><ele>303.0</ele><time>2026-03-28T15:50:00.001Z</time></trkpt><trkpt lat="43.65872052909225" lon="11.188962781292274"><ele>303.0</ele><time>2026-03-28T15:50:01.001Z</time></trkpt><trkpt lat="43.65863671374505" lon="11.188876703670713"><ele>303.0</ele><time>2026-03-28T15:50:02.001Z</time></trkpt><trkpt lat="43.65858062512066" lon="11.188802562597608"><ele>303.0</ele><time>2026-03-28T15:50:03.001Z</time></trkpt><trkpt lat="43.65850773559639" lon="11.188687097620248"><ele>303.4</ele><time>2026-03-28T15:50:05.001Z</time></trkpt><trkpt lat="43.65846440074585" lon="11.188598380587262"><ele>303.8</ele><time>2026-03-28T15:50:06.001Z</time></trkpt><trkpt lat="43.65840756984679" lon="11.188481010877249"><ele>304.2</ele><time>2026-03-28T15:50:07.001Z</time></trkpt><trkpt lat="43.658313947400245" lon="11.188418657547675"><ele>304.6</ele><time>2026-03-28T15:50:08.001Z</time></trkpt><trkpt lat="43.658181631684634" lon="11.188360231802335"><ele>305.0</ele><time>2026-03-28T15:50:09.001Z</time></trkpt><trkpt lat="43.658037848886394" lon="11.18830369394874"><ele>305.0</ele><time>2026-03-28T15:50:10.001Z</time></trkpt><trkpt lat="43.65787698320804" lon="11.188233307110282"><ele>305.0</ele><time>2026-03-28T15:50:11.001Z</time></trkpt><trkpt lat="43.657714714669645" lon="11.188148326136485"><ele>305.0</ele><time>2026-03-28T15:50:12.001Z</time></trkpt><trkpt lat="43.657547012947134" lon="11.188063415232659"><ele>306.33333333333337</ele><time>2026-03-28T15:50:13.001Z</time></trkpt><trkpt lat="43.65737263489198" lon="11.187980889359748"><ele>307.6666666666667</ele><time>2026-03-28T15:50:14.001Z</time></trkpt><trkpt lat="43.65719852324806" lon="11.187895832216924"><ele>309.0</ele><time>2026-03-28T15:50:15.001Z</time></trkpt><trkpt lat="43.65703919195737" lon="11.187812429656466"><ele>308.25</ele><time>2026-03-28T15:50:16.001Z</time></trkpt><trkpt lat="43.65688919220666" lon="11.187736474807407"><ele>307.5</ele><time>2026-03-28T15:50:17.001Z</time></trkpt><trkpt lat="43.65675728353637" lon="11.187663859496281"><ele>306.75</ele><time>2026-03-28T15:50:18.001Z</time></trkpt><trkpt lat="43.65662499778116" lon="11.18760392176998"><ele>306.0</ele><time>2026-03-28T15:50:19.001Z</time></trkpt><trkpt lat="43.656501087873984" lon="11.187556572159105"><ele>306.0</ele><time>2026-03-28T15:50:20.001Z</time></trkpt><trkpt lat="43.656394979351404" lon="11.187516799212597"><ele>306.0</ele><time>2026-03-28T15:50:21.001Z</time></trkpt><trkpt lat="43.6563031800139" lon="11.187495221030485"><ele>306.0</ele><time>2026-03-28T15:50:22.001Z</time></trkpt><trkpt lat="43.656241033776126" lon="11.187476111780603"><ele>306.0</ele><time>2026-03-28T15:50:23.001Z</time></trkpt><trkpt lat="43.65616980597193" lon="11.187465300472573"><ele>306.0</ele><time>2026-03-28T15:50:24.001Z</time></trkpt><trkpt lat="43.65610684641035" lon="11.187441974253522"><ele>306.0</ele><time>2026-03-28T15:50:25.001Z</time></trkpt><trkpt lat="43.65598485001251" lon="11.18743897892794"><ele>305.40000000000003</ele><time>2026-03-28T15:50:26.998Z</time></trkpt><trkpt lat="43.65586234534484" lon="11.187445159047062"><ele>304.8</ele><time>2026-03-28T15:50:28.998Z</time></trkpt><trkpt lat="43.65578509468967" lon="11.187484261876211"><ele>304.20000000000005</ele><time>2026-03-28T15:50:29.998Z</time></trkpt><trkpt lat="43.65571158605027" lon="11.187498625612712"><ele>303.6</ele><time>2026-03-28T15:50:31.998Z</time></trkpt><trkpt lat="43.65560793384876" lon="11.187466799841697"><ele>303.0</ele><time>2026-03-28T15:50:33.998Z</time></trkpt><trkpt lat="43.6555248986675" lon="11.187580181643012"><ele>303.0</ele><time>2026-03-28T15:50:35.998Z</time></trkpt><trkpt lat="43.65550909878869" lon="11.187728505872899"><ele>303.0</ele><time>2026-03-28T15:50:36.998Z</time></trkpt><trkpt lat="43.655454383741294" lon="11.187881951947118"><ele>303.0</ele><time>2026-03-28T15:50:37.998Z</time></trkpt><trkpt lat="43.65539211954681" lon="11.188046570579289"><ele>303.0</ele><time>2026-03-28T15:50:38.998Z</time></trkpt><trkpt lat="43.655352507668184" lon="11.188229357287925"><ele>301.5</ele><time>2026-03-28T15:50:39.998Z</time></trkpt><trkpt lat="43.65531839235928" lon="11.188391835334173"><ele>300.0</ele><time>2026-03-28T15:50:40.998Z</time></trkpt><trkpt lat="43.655300019886624" lon="11.188556637732393"><ele>298.5</ele><time>2026-03-28T15:50:41.999Z</time></trkpt><trkpt lat="43.65529751429483" lon="11.188716122784674"><ele>297.0</ele><time>2026-03-28T15:50:42.999Z</time></trkpt><trkpt lat="43.655293429609806" lon="11.188860291086922"><ele>297.0</ele><time>2026-03-28T15:50:43.999Z</time></trkpt><trkpt lat="43.655291731777545" lon="11.189004108814304"><ele>297.0</ele><time>2026-03-28T15:50:44.999Z</time></trkpt><trkpt lat="43.655294928020986" lon="11.189142573770535"><ele>297.0</ele><time>2026-03-28T15:50:45.999Z</time></trkpt><trkpt lat="43.655296032708385" lon="11.189267960136032"><ele>297.0</ele><time>2026-03-28T15:50:46.999Z</time></trkpt><trkpt lat="43.65527936859366" lon="11.18939318346968"><ele>297.0</ele><time>2026-03-28T15:50:47.999Z</time></trkpt><trkpt lat="43.655245526149685" lon="11.189508834229096"><ele>297.6666666666667</ele><time>2026-03-28T15:50:48.999Z</time></trkpt><trkpt lat="43.655210070862935" lon="11.18960639534772"><ele>298.3333333333333</ele><time>2026-03-28T15:50:49.999Z</time></trkpt><trkpt lat="43.65515613041389" lon="11.189705656730077"><ele>299.0</ele><time>2026-03-28T15:50:50.999Z</time></trkpt><trkpt lat="43.65511650381885" lon="11.189802746042075"><ele>299.66666666666663</ele><time>2026-03-28T15:50:51.999Z</time></trkpt><trkpt lat="43.655070974046716" lon="11.189868729798585"><ele>300.3333333333333</ele><time>2026-03-28T15:50:52.999Z</time></trkpt><trkpt lat="43.65511474308126" lon="11.190035104071976"><ele>301.0</ele><time>2026-03-28T15:50:53.999Z</time></trkpt><trkpt lat="43.65513503165738" lon="11.190178387029908"><ele>301.0</ele><time>2026-03-28T15:50:54.999Z</time></trkpt><trkpt lat="43.65515626751629" lon="11.190353354620157"><ele>301.0</ele><time>2026-03-28T15:50:55.999Z</time></trkpt><trkpt lat="43.65515548679643" lon="11.190596339198885"><ele>301.0</ele><time>2026-03-28T15:50:56.999Z</time></trkpt><trkpt lat="43.65515058881072" lon="11.190835144639628"><ele>298.66666666666663</ele><time>2026-03-28T15:50:57.999Z</time></trkpt><trkpt lat="43.65514354782192" lon="11.19105747384834"><ele>296.3333333333333</ele><time>2026-03-28T15:50:58.999Z</time></trkpt><trkpt lat="43.655121811613455" lon="11.19126980667869"><ele>294.0</ele><time>2026-03-28T15:50:59.999Z</time></trkpt><trkpt lat="43.655060248200144" lon="11.191469986902707"><ele>293.0</ele><time>2026-03-28T15:51:01Z</time></trkpt><trkpt lat="43.65498130545677" lon="11.191673149381732"><ele>292.0</ele><time>2026-03-28T15:51:02Z</time></trkpt><trkpt lat="43.65490574765485" lon="11.19189030591287"><ele>291.0</ele><time>2026-03-28T15:51:03Z</time></trkpt><trkpt lat="43.65482111581794" lon="11.192084637488062"><ele>291.0</ele><time>2026-03-28T15:51:04Z</time></trkpt><trkpt lat="43.65474673629593" lon="11.192283509240989"><ele>291.0</ele><time>2026-03-28T15:51:05Z</time></trkpt><trkpt lat="43.6546654639585" lon="11.19249727575246"><ele>291.0</ele><time>2026-03-28T15:51:06Z</time></trkpt><trkpt lat="43.65458155913732" lon="11.19270886409932"><ele>291.0</ele><time>2026-03-28T15:51:07Z</time></trkpt><trkpt lat="43.65449781255928" lon="11.192925690457246"><ele>291.0</ele><time>2026-03-28T15:51:08Z</time></trkpt><trkpt lat="43.654401495009616" lon="11.193148632701968"><ele>291.0</ele><time>2026-03-28T15:51:09Z</time></trkpt><trkpt lat="43.65430913420382" lon="11.193376069407867"><ele>289.3333333333333</ele><time>2026-03-28T15:51:10Z</time></trkpt><trkpt lat="43.654215072732605" lon="11.193613201137595"><ele>287.66666666666663</ele><time>2026-03-28T15:51:11Z</time></trkpt><trkpt lat="43.6541268469756" lon="11.193834477773912"><ele>286.0</ele><time>2026-03-28T15:51:12Z</time></trkpt><trkpt lat="43.65405008652341" lon="11.194033876549488"><ele>286.0</ele><time>2026-03-28T15:51:13Z</time></trkpt><trkpt lat="43.65398628602563" lon="11.194206109181362"><ele>286.0</ele><time>2026-03-28T15:51:14Z</time></trkpt><trkpt lat="43.65393030404213" lon="11.194355986194507"><ele>286.0</ele><time>2026-03-28T15:51:15Z</time></trkpt><trkpt lat="43.65386289417762" lon="11.194505818472043"><ele>286.0</ele><time>2026-03-28T15:51:16Z</time></trkpt><trkpt lat="43.653776680205574" lon="11.194631686107634"><ele>286.0</ele><time>2026-03-28T15:51:17Z</time></trkpt><trkpt lat="43.65365866420905" lon="11.19475579524778"><ele>286.0</ele><time>2026-03-28T15:51:18Z</time></trkpt><trkpt lat="43.65352148913141" lon="11.194888181509123"><ele>286.0</ele><time>2026-03-28T15:51:19Z</time></trkpt><trkpt lat="43.65336943802292" lon="11.195034017095322"><ele>286.0</ele><time>2026-03-28T15:51:20Z</time></trkpt><trkpt lat="43.65321029237914" lon="11.195191540155736"><ele>286.0</ele><time>2026-03-28T15:51:21Z</time></trkpt><trkpt lat="43.65303310721495" lon="11.19534411906672"><ele>286.0</ele><time>2026-03-28T15:51:22Z</time></trkpt><trkpt lat="43.65282923205377" lon="11.19547988904475"><ele>286.66666666666663</ele><time>2026-03-28T15:51:23Z</time></trkpt><trkpt lat="43.652613847428356" lon="11.195584533673"><ele>287.3333333333333</ele><time>2026-03-28T15:51:24Z</time></trkpt><trkpt lat="43.65242781931977" lon="11.195686979592955"><ele>288.0</ele><time>2026-03-28T15:51:25Z</time></trkpt><trkpt lat="43.65225330700857" lon="11.19584344548488"><ele>289.6666666666667</ele><time>2026-03-28T15:51:26Z</time></trkpt><trkpt lat="43.652099194543474" lon="11.19602352008806"><ele>291.33333333333337</ele><time>2026-03-28T15:51:27Z</time></trkpt><trkpt lat="43.65197334942455" lon="11.19617056298179"><ele>293.0</ele><time>2026-03-28T15:51:28Z</time></trkpt><trkpt lat="43.651867781903" lon="11.196274726940102"><ele>295.0</ele><time>2026-03-28T15:51:29Z</time></trkpt><trkpt lat="43.65175977810942" lon="11.196361441414075"><ele>297.0</ele><time>2026-03-28T15:51:30Z</time></trkpt><trkpt lat="43.651639728847236" lon="11.196433246548835"><ele>299.0</ele><time>2026-03-28T15:51:31Z</time></trkpt><trkpt lat="43.65151650482964" lon="11.196495867792951"><ele>301.0</ele><time>2026-03-28T15:51:32Z</time></trkpt><trkpt lat="43.65138969852777" lon="11.196514701698025"><ele>300.75</ele><time>2026-03-28T15:51:33Z</time></trkpt><trkpt lat="43.65127670946622" lon="11.19655858297569"><ele>300.5</ele><time>2026-03-28T15:51:34Z</time></trkpt><trkpt lat="43.65115067090815" lon="11.196591032379684"><ele>300.25</ele><time>2026-03-28T15:51:35.001Z</time></trkpt><trkpt lat="43.65100089715461" lon="11.196653293954421"><ele>300.0</ele><time>2026-03-28T15:51:36.001Z</time></trkpt><trkpt lat="43.65081973487677" lon="11.196760630969024"><ele>300.0</ele><time>2026-03-28T15:51:37.001Z</time></trkpt><trkpt lat="43.65060659303037" lon="11.196854969858574"><ele>300.0</ele><time>2026-03-28T15:51:38.001Z</time></trkpt><trkpt lat="43.6503581152905" lon="11.196980760025074"><ele>299.5</ele><time>2026-03-28T15:51:39.001Z</time></trkpt><trkpt lat="43.6501314554558" lon="11.197103887440758"><ele>299.0</ele><time>2026-03-28T15:51:40.001Z</time></trkpt><trkpt lat="43.64993039497583" lon="11.197183564278081"><ele>299.0</ele><time>2026-03-28T15:51:41.001Z</time></trkpt><trkpt lat="43.64976081738833" lon="11.197283913201169"><ele>299.0</ele><time>2026-03-28T15:51:42.001Z</time></trkpt><trkpt lat="43.649622158537774" lon="11.197367018981003"><ele>299.0</ele><time>2026-03-28T15:51:43.001Z</time></trkpt><trkpt lat="43.6495251821531" lon="11.19744769673775"><ele>299.0</ele><time>2026-03-28T15:51:44.001Z</time></trkpt><trkpt lat="43.649450133652735" lon="11.197590769801838"><ele>297.6666666666667</ele><time>2026-03-28T15:51:45.001Z</time></trkpt><trkpt lat="43.649415927898" lon="11.197781058064962"><ele>296.3333333333333</ele><time>2026-03-28T15:51:46.001Z</time></trkpt><trkpt lat="43.64939061548462" lon="11.198011319137384"><ele>295.0</ele><time>2026-03-28T15:51:47.001Z</time></trkpt><trkpt lat="43.64938062758783" lon="11.198270670491436"><ele>293.3333333333333</ele><time>2026-03-28T15:51:48.001Z</time></trkpt><trkpt lat="43.6493864879855" lon="11.198539722170858"><ele>291.6666666666667</ele><time>2026-03-28T15:51:49.001Z</time></trkpt><trkpt lat="43.64940914679482" lon="11.198839594915833"><ele>290.0</ele><time>2026-03-28T15:51:50.001Z</time></trkpt><trkpt lat="43.649431334449226" lon="11.199136343844778"><ele>290.0</ele><time>2026-03-28T15:51:51.001Z</time></trkpt><trkpt lat="43.64943969641517" lon="11.199413579157488"><ele>290.0</ele><time>2026-03-28T15:51:52.001Z</time></trkpt><trkpt lat="43.649425072206725" lon="11.199677678561104"><ele>290.0</ele><time>2026-03-28T15:51:53.001Z</time></trkpt><trkpt lat="43.64937088812362" lon="11.199939090683534"><ele>290.0</ele><time>2026-03-28T15:51:54.001Z</time></trkpt><trkpt lat="43.64926098978273" lon="11.200185350444077"><ele>290.0</ele><time>2026-03-28T15:51:55.001Z</time></trkpt><trkpt lat="43.64911263797866" lon="11.200440522396574"><ele>290.0</ele><time>2026-03-28T15:51:56.001Z</time></trkpt><trkpt lat="43.64896558987312" lon="11.200716763725742"><ele>292.0</ele><time>2026-03-28T15:51:57.001Z</time></trkpt><trkpt lat="43.648806197742985" lon="11.200953057035047"><ele>294.0</ele><time>2026-03-28T15:51:58.001Z</time></trkpt><trkpt lat="43.6486826315448" lon="11.201151357374707"><ele>296.0</ele><time>2026-03-28T15:51:59.001Z</time></trkpt><trkpt lat="43.64858181766341" lon="11.201322148121353"><ele>296.6666666666667</ele><time>2026-03-28T15:52:00.001Z</time></trkpt><trkpt lat="43.648491163867234" lon="11.201466983956683"><ele>297.3333333333333</ele><time>2026-03-28T15:52:01.001Z</time></trkpt><trkpt lat="43.64838108322901" lon="11.201622134617875"><ele>298.0</ele><time>2026-03-28T15:52:02.001Z</time></trkpt><trkpt lat="43.64826301452851" lon="11.20180741250776"><ele>298.0</ele><time>2026-03-28T15:52:03.001Z</time></trkpt><trkpt lat="43.64815599469329" lon="11.20203894502724"><ele>298.0</ele><time>2026-03-28T15:52:04.001Z</time></trkpt><trkpt lat="43.64805826411387" lon="11.202294378623778"><ele>298.0</ele><time>2026-03-28T15:52:05.001Z</time></trkpt><trkpt lat="43.64796934907212" lon="11.20256798401049"><ele>296.66666666666663</ele><time>2026-03-28T15:52:06.001Z</time></trkpt><trkpt lat="43.64789286321165" lon="11.202822806658983"><ele>295.3333333333333</ele><time>2026-03-28T15:52:07.001Z</time></trkpt><trkpt lat="43.647815909061976" lon="11.203065632435603"><ele>294.0</ele><time>2026-03-28T15:52:08.001Z</time></trkpt><trkpt lat="43.647755844979955" lon="11.203300062953113"><ele>294.0</ele><time>2026-03-28T15:52:09.001Z</time></trkpt><trkpt lat="43.64773100119484" lon="11.203539742283011"><ele>294.0</ele><time>2026-03-28T15:52:10.001Z</time></trkpt><trkpt lat="43.647746916615176" lon="11.203802250808915"><ele>294.0</ele><time>2026-03-28T15:52:11.001Z</time></trkpt><trkpt lat="43.64779610991239" lon="11.204063833461472"><ele>295.0</ele><time>2026-03-28T15:52:12.001Z</time></trkpt><trkpt lat="43.64785170727905" lon="11.204325549471218"><ele>296.0</ele><time>2026-03-28T15:52:13.001Z</time></trkpt><trkpt lat="43.647902470166244" lon="11.204585786420157"><ele>297.0</ele><time>2026-03-28T15:52:14.002Z</time></trkpt><trkpt lat="43.64794917180112" lon="11.20485268796204"><ele>297.0</ele><time>2026-03-28T15:52:15.002Z</time></trkpt><trkpt lat="43.64799311023579" lon="11.205130883437613"><ele>297.0</ele><time>2026-03-28T15:52:16.002Z</time></trkpt><trkpt lat="43.64800699320056" lon="11.205438078067866"><ele>297.0</ele><time>2026-03-28T15:52:17.002Z</time></trkpt><trkpt lat="43.64799706296041" lon="11.205762976135695"><ele>298.0</ele><time>2026-03-28T15:52:18.002Z</time></trkpt><trkpt lat="43.6479944601918" lon="11.206107525191937"><ele>299.0</ele><time>2026-03-28T15:52:19.002Z</time></trkpt><trkpt lat="43.64796364549995" lon="11.206438388056869"><ele>298.6666666666667</ele><time>2026-03-28T15:52:20.002Z</time></trkpt><trkpt lat="43.64794089183989" lon="11.206728993641807"><ele>298.3333333333333</ele><time>2026-03-28T15:52:21.002Z</time></trkpt><trkpt lat="43.64788493612779" lon="11.206979038521114"><ele>298.0</ele><time>2026-03-28T15:52:22.002Z</time></trkpt><trkpt lat="43.647791429718126" lon="11.207202081129674"><ele>297.3333333333333</ele><time>2026-03-28T15:52:23.002Z</time></trkpt><trkpt lat="43.64767433771415" lon="11.207406438874482"><ele>296.6666666666667</ele><time>2026-03-28T15:52:24.002Z</time></trkpt><trkpt lat="43.64753467605964" lon="11.207583070586791"><ele>296.0</ele><time>2026-03-28T15:52:25.002Z</time></trkpt><trkpt lat="43.64737079833745" lon="11.207691213915442"><ele>296.0</ele><time>2026-03-28T15:52:26.002Z</time></trkpt><trkpt lat="43.647210144436045" lon="11.207778711747018"><ele>296.0</ele><time>2026-03-28T15:52:27.002Z</time></trkpt><trkpt lat="43.647034682197116" lon="11.207826777863053"><ele>296.0</ele><time>2026-03-28T15:52:28.002Z</time></trkpt><trkpt lat="43.64684873929683" lon="11.207830205158277"><ele>295.6666666666667</ele><time>2026-03-28T15:52:29.002Z</time></trkpt><trkpt lat="43.64664480055026" lon="11.207812239018452"><ele>295.3333333333333</ele><time>2026-03-28T15:52:30.002Z</time></trkpt><trkpt lat="43.64641956961639" lon="11.207811331346374"><ele>295.0</ele><time>2026-03-28T15:52:31.002Z</time></trkpt><trkpt lat="43.64620593962825" lon="11.207789359137239"><ele>297.66666666666663</ele><time>2026-03-28T15:52:31.997Z</time></trkpt><trkpt lat="43.64600843732096" lon="11.207768974841857"><ele>300.3333333333333</ele><time>2026-03-28T15:52:32.997Z</time></trkpt><trkpt lat="43.64583349176288" lon="11.207762680260554"><ele>303.0</ele><time>2026-03-28T15:52:33.997Z</time></trkpt><trkpt lat="43.64565585834817" lon="11.207807922925538"><ele>303.0</ele><time>2026-03-28T15:52:34.997Z</time></trkpt><trkpt lat="43.645471003724815" lon="11.207878471090398"><ele>303.0</ele><time>2026-03-28T15:52:35.997Z</time></trkpt><trkpt lat="43.645265211232704" lon="11.207944559022712"><ele>303.0</ele><time>2026-03-28T15:52:36.997Z</time></trkpt><trkpt lat="43.64502374352308" lon="11.208042123505383"><ele>303.0</ele><time>2026-03-28T15:52:37.997Z</time></trkpt><trkpt lat="43.64481059263412" lon="11.208147314053807"><ele>303.0</ele><time>2026-03-28T15:52:38.997Z</time></trkpt><trkpt lat="43.644618695740604" lon="11.208263762909251"><ele>303.0</ele><time>2026-03-28T15:52:39.997Z</time></trkpt><trkpt lat="43.64444013668907" lon="11.208412669632281"><ele>302.0</ele><time>2026-03-28T15:52:40.997Z</time></trkpt><trkpt lat="43.64427138429092" lon="11.208574277301853"><ele>301.0</ele><time>2026-03-28T15:52:41.998Z</time></trkpt><trkpt lat="43.644112707765125" lon="11.208740561837562"><ele>300.0</ele><time>2026-03-28T15:52:42.998Z</time></trkpt><trkpt lat="43.64398837798416" lon="11.208937910804881"><ele>300.0</ele><time>2026-03-28T15:52:43.998Z</time></trkpt><trkpt lat="43.64391190041124" lon="11.209172733843577"><ele>300.0</ele><time>2026-03-28T15:52:44.998Z</time></trkpt><trkpt lat="43.64387418440513" lon="11.209435225183327"><ele>300.0</ele><time>2026-03-28T15:52:45.998Z</time></trkpt><trkpt lat="43.64385711620603" lon="11.209730770950031"><ele>299.3333333333333</ele><time>2026-03-28T15:52:46.998Z</time></trkpt><trkpt lat="43.64384600328336" lon="11.210023045885942"><ele>298.66666666666663</ele><time>2026-03-28T15:52:47.998Z</time></trkpt><trkpt lat="43.643769717639906" lon="11.210268521354504"><ele>298.0</ele><time>2026-03-28T15:52:48.998Z</time></trkpt><trkpt lat="43.64367626524285" lon="11.21050893090646"><ele>297.3333333333333</ele><time>2026-03-28T15:52:49.998Z</time></trkpt><trkpt lat="43.64355317679417" lon="11.210701163676593"><ele>296.6666666666667</ele><time>2026-03-28T15:52:50.998Z</time></trkpt><trkpt lat="43.643410106279546" lon="11.210874933195662"><ele>296.0</ele><time>2026-03-28T15:52:51.998Z</time></trkpt><trkpt lat="43.64325825252754" lon="11.211017514971712"><ele>296.0</ele><time>2026-03-28T15:52:52.998Z</time></trkpt><trkpt lat="43.64308562439131" lon="11.211133151375286"><ele>296.0</ele><time>2026-03-28T15:52:53.998Z</time></trkpt><trkpt lat="43.642899860446484" lon="11.211252444532642"><ele>296.0</ele><time>2026-03-28T15:52:54.999Z</time></trkpt><trkpt lat="43.642719010832494" lon="11.211387391614966"><ele>296.6666666666667</ele><time>2026-03-28T15:52:55.999Z</time></trkpt><trkpt lat="43.642548761907705" lon="11.211504980166154"><ele>297.3333333333333</ele><time>2026-03-28T15:52:56.999Z</time></trkpt><trkpt lat="43.64238961069296" lon="11.211624332931274"><ele>298.0</ele><time>2026-03-28T15:52:57.999Z</time></trkpt><trkpt lat="43.64224459373821" lon="11.211745009337047"><ele>298.0</ele><time>2026-03-28T15:52:58.999Z</time></trkpt><trkpt lat="43.6421033158926" lon="11.211886269829979"><ele>298.0</ele><time>2026-03-28T15:52:59.999Z</time></trkpt><trkpt lat="43.64196987817865" lon="11.212032335173205"><ele>298.0</ele><time>2026-03-28T15:53:00.999Z</time></trkpt><trkpt lat="43.641846644111276" lon="11.21218096334718"><ele>298.3333333333333</ele><time>2026-03-28T15:53:01.999Z</time></trkpt><trkpt lat="43.64172851360971" lon="11.212313688213001"><ele>298.6666666666667</ele><time>2026-03-28T15:53:02.999Z</time></trkpt><trkpt lat="43.641614277731804" lon="11.212442793874082"><ele>299.0</ele><time>2026-03-28T15:53:03.999Z</time></trkpt><trkpt lat="43.64149681270157" lon="11.212573948780406"><ele>298.0</ele><time>2026-03-28T15:53:04.999Z</time></trkpt><trkpt lat="43.64138135358652" lon="11.21270992633631"><ele>297.0</ele><time>2026-03-28T15:53:05.999Z</time></trkpt><trkpt lat="43.641280681673976" lon="11.212866814739556"><ele>296.0</ele><time>2026-03-28T15:53:06.999Z</time></trkpt><trkpt lat="43.64122340799274" lon="11.213061938354894"><ele>295.75</ele><time>2026-03-28T15:53:07.999Z</time></trkpt><trkpt lat="43.64117993856307" lon="11.213283177210062"><ele>295.5</ele><time>2026-03-28T15:53:08.999Z</time></trkpt><trkpt lat="43.64116240820087" lon="11.213474504674638"><ele>295.25</ele><time>2026-03-28T15:53:09.999Z</time></trkpt><trkpt lat="43.64114212573126" lon="11.213640796009972"><ele>295.0</ele><time>2026-03-28T15:53:10.999Z</time></trkpt><trkpt lat="43.64112288333251" lon="11.213817673428217"><ele>295.25</ele><time>2026-03-28T15:53:11.999Z</time></trkpt><trkpt lat="43.64109971098226" lon="11.21400351429257"><ele>295.5</ele><time>2026-03-28T15:53:13Z</time></trkpt><trkpt lat="43.641067735244114" lon="11.214180538182319"><ele>295.75</ele><time>2026-03-28T15:53:14Z</time></trkpt><trkpt lat="43.64104394015433" lon="11.214367180723274"><ele>296.0</ele><time>2026-03-28T15:53:15Z</time></trkpt><trkpt lat="43.64101007685142" lon="11.214556884666628"><ele>296.0</ele><time>2026-03-28T15:53:16Z</time></trkpt><trkpt lat="43.640995129306695" lon="11.21475939017538"><ele>296.0</ele><time>2026-03-28T15:53:17Z</time></trkpt><trkpt lat="43.64097360934016" lon="11.214979823561439"><ele>296.0</ele><time>2026-03-28T15:53:18Z</time></trkpt><trkpt lat="43.64094461716504" lon="11.215220821584136"><ele>295.0</ele><time>2026-03-28T15:53:19Z</time></trkpt><trkpt lat="43.64088996329134" lon="11.215456806402917"><ele>294.0</ele><time>2026-03-28T15:53:20Z</time></trkpt><trkpt lat="43.64081394265664" lon="11.215692332546418"><ele>293.0</ele><time>2026-03-28T15:53:21Z</time></trkpt><trkpt lat="43.64070485065641" lon="11.215881416150534"><ele>293.0</ele><time>2026-03-28T15:53:22Z</time></trkpt><trkpt lat="43.64060365412763" lon="11.216057587175154"><ele>293.0</ele><time>2026-03-28T15:53:23Z</time></trkpt><trkpt lat="43.64050545761148" lon="11.216209253009088"><ele>293.0</ele><time>2026-03-28T15:53:24Z</time></trkpt><trkpt lat="43.64039385534421" lon="11.216334944607313"><ele>291.5</ele><time>2026-03-28T15:53:25Z</time></trkpt><trkpt lat="43.64029583763743" lon="11.216461967211885"><ele>290.0</ele><time>2026-03-28T15:53:26Z</time></trkpt><trkpt lat="43.640202135500196" lon="11.216589185924532"><ele>288.5</ele><time>2026-03-28T15:53:27Z</time></trkpt><trkpt lat="43.64010729803352" lon="11.216719336443566"><ele>287.0</ele><time>2026-03-28T15:53:28Z</time></trkpt><trkpt lat="43.64000978669112" lon="11.216861631606253"><ele>291.0</ele><time>2026-03-28T15:53:29Z</time></trkpt><trkpt lat="43.639911653206866" lon="11.217014190310083"><ele>295.0</ele><time>2026-03-28T15:53:30Z</time></trkpt><trkpt lat="43.63981938065776" lon="11.217185436812949"><ele>299.0</ele><time>2026-03-28T15:53:31Z</time></trkpt><trkpt lat="43.63972906924233" lon="11.217359410292262"><ele>300.25</ele><time>2026-03-28T15:53:32Z</time></trkpt><trkpt lat="43.63964123978223" lon="11.217526828174757"><ele>301.5</ele><time>2026-03-28T15:53:33Z</time></trkpt><trkpt lat="43.63955961957427" lon="11.21770139992787"><ele>302.75</ele><time>2026-03-28T15:53:34Z</time></trkpt><trkpt lat="43.639480921630806" lon="11.2178418776904"><ele>304.0</ele><time>2026-03-28T15:53:35Z</time></trkpt><trkpt lat="43.639408251661905" lon="11.218005917493402"><ele>305.25</ele><time>2026-03-28T15:53:36Z</time></trkpt><trkpt lat="43.63934381955249" lon="11.218198125902022"><ele>306.5</ele><time>2026-03-28T15:53:37Z</time></trkpt><trkpt lat="43.63927693755175" lon="11.218360939956913"><ele>307.75</ele><time>2026-03-28T15:53:38Z</time></trkpt><trkpt lat="43.639204686999214" lon="11.218514219716198"><ele>309.0</ele><time>2026-03-28T15:53:39Z</time></trkpt><trkpt lat="43.63912509796129" lon="11.218658085547126"><ele>309.0</ele><time>2026-03-28T15:53:40.001Z</time></trkpt><trkpt lat="43.63904237297174" lon="11.218799846984545"><ele>309.0</ele><time>2026-03-28T15:53:41.001Z</time></trkpt><trkpt lat="43.63894985609177" lon="11.218940817372411"><ele>309.0</ele><time>2026-03-28T15:53:42.001Z</time></trkpt><trkpt lat="43.6388554394595" lon="11.219075907136292"><ele>309.0</ele><time>2026-03-28T15:53:43.001Z</time></trkpt><trkpt lat="43.63876787099254" lon="11.219190385503376"><ele>308.25</ele><time>2026-03-28T15:53:44.001Z</time></trkpt><trkpt lat="43.63867394848663" lon="11.219296784466566"><ele>307.5</ele><time>2026-03-28T15:53:45.001Z</time></trkpt><trkpt lat="43.63856289598276" lon="11.219380531890977"><ele>306.75</ele><time>2026-03-28T15:53:46.001Z</time></trkpt><trkpt lat="43.6384677787165" lon="11.219465872626174"><ele>306.0</ele><time>2026-03-28T15:53:47.001Z</time></trkpt><trkpt lat="43.638364050720796" lon="11.219551530463283"><ele>306.0</ele><time>2026-03-28T15:53:48.001Z</time></trkpt><trkpt lat="43.63826349291476" lon="11.219626933787245"><ele>306.0</ele><time>2026-03-28T15:53:49.001Z</time></trkpt><trkpt lat="43.63817734274713" lon="11.21971496733308"><ele>306.0</ele><time>2026-03-28T15:53:50.001Z</time></trkpt><trkpt lat="43.638088469511764" lon="11.219800875234254"><ele>306.0</ele><time>2026-03-28T15:53:51.001Z</time></trkpt><trkpt lat="43.63797937302034" lon="11.21990867558803"><ele>305.75</ele><time>2026-03-28T15:53:52.001Z</time></trkpt><trkpt lat="43.63786379177126" lon="11.220018085697365"><ele>305.5</ele><time>2026-03-28T15:53:53.001Z</time></trkpt><trkpt lat="43.63776769085592" lon="11.220156739486063"><ele>305.25</ele><time>2026-03-28T15:53:54.001Z</time></trkpt><trkpt lat="43.637668343860305" lon="11.220332088945085"><ele>305.0</ele><time>2026-03-28T15:53:55.001Z</time></trkpt><trkpt lat="43.63758618187478" lon="11.220513049998784"><ele>303.33333333333337</ele><time>2026-03-28T15:53:56.001Z</time></trkpt><trkpt lat="43.637521508075594" lon="11.220674171371126"><ele>301.6666666666667</ele><time>2026-03-28T15:53:57.001Z</time></trkpt><trkpt lat="43.63745561354545" lon="11.22089437286492"><ele>300.0</ele><time>2026-03-28T15:53:58.001Z</time></trkpt><trkpt lat="43.637356990098255" lon="11.22111746263861"><ele>300.0</ele><time>2026-03-28T15:53:59.001Z</time></trkpt><trkpt lat="43.63724461879888" lon="11.221343911431552"><ele>300.0</ele><time>2026-03-28T15:54:00.001Z</time></trkpt><trkpt lat="43.637114899946646" lon="11.22156890483044"><ele>300.0</ele><time>2026-03-28T15:54:01.001Z</time></trkpt><trkpt lat="43.63697478677941" lon="11.221781644057348"><ele>299.6666666666667</ele><time>2026-03-28T15:54:02.001Z</time></trkpt><trkpt lat="43.63683127724706" lon="11.221987673457702"><ele>299.33333333333337</ele><time>2026-03-28T15:54:03.001Z</time></trkpt><trkpt lat="43.636700048018504" lon="11.222174903084282"><ele>299.0</ele><time>2026-03-28T15:54:04.001Z</time></trkpt><trkpt lat="43.63658061693285" lon="11.222346760245467"><ele>298.5</ele><time>2026-03-28T15:54:05.001Z</time></trkpt><trkpt lat="43.636487220285545" lon="11.222492886780373"><ele>298.0</ele><time>2026-03-28T15:54:06.001Z</time></trkpt><trkpt lat="43.63640588154091" lon="11.222616319595366"><ele>297.5</ele><time>2026-03-28T15:54:07.001Z</time></trkpt><trkpt lat="43.636358759089916" lon="11.222730567381262"><ele>297.0</ele><time>2026-03-28T15:54:08.001Z</time></trkpt><trkpt lat="43.63633609365801" lon="11.222877368922479"><ele>297.0</ele><time>2026-03-28T15:54:09.001Z</time></trkpt><trkpt lat="43.63633203338838" lon="11.223048770846848"><ele>297.0</ele><time>2026-03-28T15:54:10.001Z</time></trkpt><trkpt lat="43.63634436179793" lon="11.22322421533105"><ele>297.0</ele><time>2026-03-28T15:54:11.001Z</time></trkpt><trkpt lat="43.63633756839409" lon="11.223408299173549"><ele>297.0</ele><time>2026-03-28T15:54:12.002Z</time></trkpt><trkpt lat="43.63636465142653" lon="11.223576889409225"><ele>297.3333333333333</ele><time>2026-03-28T15:54:13.002Z</time></trkpt><trkpt lat="43.636409863611995" lon="11.223783367568837"><ele>297.66666666666663</ele><time>2026-03-28T15:54:14.002Z</time></trkpt><trkpt lat="43.636445180857834" lon="11.223986745961806"><ele>298.0</ele><time>2026-03-28T15:54:15.002Z</time></trkpt><trkpt lat="43.63648376752421" lon="11.224184373781224"><ele>298.5</ele><time>2026-03-28T15:54:16.002Z</time></trkpt><trkpt lat="43.6365238830223" lon="11.224370328641308"><ele>299.0</ele><time>2026-03-28T15:54:17.002Z</time></trkpt><trkpt lat="43.63658521841597" lon="11.224560649829002"><ele>299.5</ele><time>2026-03-28T15:54:18.002Z</time></trkpt><trkpt lat="43.6366350969299" lon="11.22474471699413"><ele>300.0</ele><time>2026-03-28T15:54:19.002Z</time></trkpt><trkpt lat="43.636660878884804" lon="11.224920827740098"><ele>300.0</ele><time>2026-03-28T15:54:20.002Z</time></trkpt><trkpt lat="43.63670626118892" lon="11.225093078816776"><ele>300.0</ele><time>2026-03-28T15:54:21.002Z</time></trkpt><trkpt lat="43.636749247279695" lon="11.225278575727884"><ele>300.0</ele><time>2026-03-28T15:54:22.002Z</time></trkpt><trkpt lat="43.63679728825406" lon="11.225470879051274"><ele>300.0</ele><time>2026-03-28T15:54:23.002Z</time></trkpt><trkpt lat="43.6368445489216" lon="11.225658102281644"><ele>299.6666666666667</ele><time>2026-03-28T15:54:24.002Z</time></trkpt><trkpt lat="43.63689528360332" lon="11.225851925090312"><ele>299.33333333333337</ele><time>2026-03-28T15:54:25.002Z</time></trkpt><trkpt lat="43.63695445597414" lon="11.226053950545813"><ele>299.0</ele><time>2026-03-28T15:54:26.002Z</time></trkpt><trkpt lat="43.63699938564003" lon="11.22626381402787"><ele>298.75</ele><time>2026-03-28T15:54:27.002Z</time></trkpt><trkpt lat="43.63700911541989" lon="11.22648269618522"><ele>298.5</ele><time>2026-03-28T15:54:28.002Z</time></trkpt><trkpt lat="43.6370335741274" lon="11.226684533471339"><ele>298.25</ele><time>2026-03-28T15:54:29.002Z</time></trkpt><trkpt lat="43.637032373242306" lon="11.226867344342379"><ele>298.0</ele><time>2026-03-28T15:54:30.002Z</time></trkpt><trkpt lat="43.637026559292195" lon="11.2270399130269"><ele>298.0</ele><time>2026-03-28T15:54:31.002Z</time></trkpt><trkpt lat="43.63700783494547" lon="11.227214493233516"><ele>298.0</ele><time>2026-03-28T15:54:32.002Z</time></trkpt><trkpt lat="43.63695917555942" lon="11.227388438819832"><ele>298.0</ele><time>2026-03-28T15:54:33.002Z</time></trkpt><trkpt lat="43.6369230255876" lon="11.227542811342632"><ele>298.0</ele><time>2026-03-28T15:54:34.002Z</time></trkpt><trkpt lat="43.63687743177102" lon="11.227685441197467"><ele>297.0</ele><time>2026-03-28T15:54:35.002Z</time></trkpt><trkpt lat="43.63683243560942" lon="11.2278113576228"><ele>296.0</ele><time>2026-03-28T15:54:36.002Z</time></trkpt><trkpt lat="43.63678759858561" lon="11.227917310344699"><ele>295.0</ele><time>2026-03-28T15:54:37.002Z</time></trkpt><trkpt lat="43.63673776025709" lon="11.228013921784004"><ele>294.0</ele><time>2026-03-28T15:54:37.998Z</time></trkpt><trkpt lat="43.63666033357184" lon="11.228085372332687"><ele>293.0</ele><time>2026-03-28T15:54:38.998Z</time></trkpt><trkpt lat="43.6365636986655" lon="11.228167669439953"><ele>293.0</ele><time>2026-03-28T15:54:39.998Z</time></trkpt><trkpt lat="43.63645902291684" lon="11.228279575367223"><ele>293.0</ele><time>2026-03-28T15:54:40.998Z</time></trkpt><trkpt lat="43.63634362907944" lon="11.228391415400187"><ele>293.0</ele><time>2026-03-28T15:54:41.998Z</time></trkpt><trkpt lat="43.63621545786611" lon="11.228512664135204"><ele>293.0</ele><time>2026-03-28T15:54:42.999Z</time></trkpt><trkpt lat="43.636077390266294" lon="11.22863775362389"><ele>294.0</ele><time>2026-03-28T15:54:43.999Z</time></trkpt><trkpt lat="43.63595264694765" lon="11.228767385303197"><ele>295.0</ele><time>2026-03-28T15:54:44.999Z</time></trkpt><trkpt lat="43.63582067410579" lon="11.228877192526584"><ele>296.0</ele><time>2026-03-28T15:54:45.999Z</time></trkpt><trkpt lat="43.635705479393856" lon="11.229009546477766"><ele>296.0</ele><time>2026-03-28T15:54:46.999Z</time></trkpt><trkpt lat="43.63557921919083" lon="11.229142568379315"><ele>296.0</ele><time>2026-03-28T15:54:47.999Z</time></trkpt><trkpt lat="43.6354483557428" lon="11.229269730445546"><ele>296.0</ele><time>2026-03-28T15:54:48.999Z</time></trkpt><trkpt lat="43.635302078608966" lon="11.229415474691958"><ele>296.0</ele><time>2026-03-28T15:54:49.999Z</time></trkpt><trkpt lat="43.63516835401616" lon="11.229548380957251"><ele>296.0</ele><time>2026-03-28T15:54:50.999Z</time></trkpt><trkpt lat="43.63504229081034" lon="11.22967349739155"><ele>296.0</ele><time>2026-03-28T15:54:51.999Z</time></trkpt><trkpt lat="43.634911094194806" lon="11.22980171277681"><ele>294.33333333333337</ele><time>2026-03-28T15:54:52.999Z</time></trkpt><trkpt lat="43.63477841010302" lon="11.22993228010076"><ele>292.6666666666667</ele><time>2026-03-28T15:54:54Z</time></trkpt><trkpt lat="43.63464488966426" lon="11.230063021919442"><ele>291.0</ele><time>2026-03-28T15:54:55Z</time></trkpt><trkpt lat="43.63452240196727" lon="11.230181412325054"><ele>291.25</ele><time>2026-03-28T15:54:56Z</time></trkpt><trkpt lat="43.6344270502065" lon="11.230326321105288"><ele>291.5</ele><time>2026-03-28T15:54:57Z</time></trkpt><trkpt lat="43.63433668494361" lon="11.230489070174746"><ele>291.75</ele><time>2026-03-28T15:54:58Z</time></trkpt><trkpt lat="43.63426463091797" lon="11.2306008071393"><ele>292.0</ele><time>2026-03-28T15:54:59Z</time></trkpt><trkpt lat="43.63419766232216" lon="11.230694472231695"><ele>292.0</ele><time>2026-03-28T15:55:00Z</time></trkpt><trkpt lat="43.63412896919216" lon="11.230800830969534"><ele>292.0</ele><time>2026-03-28T15:55:01Z</time></trkpt><trkpt lat="43.634069675034354" lon="11.230897295891241"><ele>292.0</ele><time>2026-03-28T15:55:02Z</time></trkpt><trkpt lat="43.63400627952015" lon="11.230998554903676"><ele>292.0</ele><time>2026-03-28T15:55:03Z</time></trkpt><trkpt lat="43.633938228068445" lon="11.231079272784841"><ele>292.0</ele><time>2026-03-28T15:55:04Z</time></trkpt><trkpt lat="43.63388693051428" lon="11.231159159957198"><ele>292.0</ele><time>2026-03-28T15:55:05Z</time></trkpt><trkpt lat="43.63384188669573" lon="11.2312402476396"><ele>292.0</ele><time>2026-03-28T15:55:06Z</time></trkpt><trkpt lat="43.63379079331374" lon="11.231309560683005"><ele>292.0</ele><time>2026-03-28T15:55:07Z</time></trkpt><trkpt lat="43.63392988959517" lon="11.231467225386252"><ele>292.0</ele><time>2026-03-28T15:55:11Z</time></trkpt><trkpt lat="43.63402876092772" lon="11.231508383503206"><ele>292.0</ele><time>2026-03-28T15:55:12.001Z</time></trkpt><trkpt lat="43.6341388658445" lon="11.231556892786305"><ele>291.75</ele><time>2026-03-28T15:55:13.001Z</time></trkpt><trkpt lat="43.63425330930017" lon="11.231610134157556"><ele>291.5</ele><time>2026-03-28T15:55:14.001Z</time></trkpt><trkpt lat="43.634373779353915" lon="11.23167026905218"><ele>291.25</ele><time>2026-03-28T15:55:15.001Z</time></trkpt><trkpt lat="43.634498904471364" lon="11.231734144223152"><ele>291.0</ele><time>2026-03-28T15:55:16.001Z</time></trkpt><trkpt lat="43.634606501564754" lon="11.231811657723997"><ele>290.5</ele><time>2026-03-28T15:55:17.001Z</time></trkpt><trkpt lat="43.634708420461365" lon="11.231861147311731"><ele>290.0</ele><time>2026-03-28T15:55:18.001Z</time></trkpt><trkpt lat="43.63477191930654" lon="11.23190954174122"><ele>289.5</ele><time>2026-03-28T15:55:19.001Z</time></trkpt><trkpt lat="43.634699558428" lon="11.23225610618165"><ele>289.0</ele><time>2026-03-28T15:55:25.001Z</time></trkpt><trkpt lat="43.63466372789543" lon="11.232370535362934"><ele>289.0</ele><time>2026-03-28T15:55:26.001Z</time></trkpt><trkpt lat="43.63463577405361" lon="11.232487526163808"><ele>289.0</ele><time>2026-03-28T15:55:27.001Z</time></trkpt><trkpt lat="43.63460143305588" lon="11.232599563067247"><ele>289.0</ele><time>2026-03-28T15:55:28.001Z</time></trkpt><trkpt lat="43.63457580692487" lon="11.232702999631819"><ele>289.0</ele><time>2026-03-28T15:55:29.001Z</time></trkpt><trkpt lat="43.63454776654547" lon="11.232800304670805"><ele>289.0</ele><time>2026-03-28T15:55:30.001Z</time></trkpt><trkpt lat="43.63453068935161" lon="11.232895930128645"><ele>289.0</ele><time>2026-03-28T15:55:31.001Z</time></trkpt><trkpt lat="43.63451865275942" lon="11.232989302039158"><ele>289.0</ele><time>2026-03-28T15:55:32.001Z</time></trkpt><trkpt lat="43.63449283702156" lon="11.233134657844976"><ele>289.0</ele><time>2026-03-28T15:55:34.001Z</time></trkpt><trkpt lat="43.63449615715307" lon="11.23322711976496"><ele>289.0</ele><time>2026-03-28T15:55:35.001Z</time></trkpt><trkpt lat="43.634485006758084" lon="11.233321897135971"><ele>289.0</ele><time>2026-03-28T15:55:36.001Z</time></trkpt><trkpt lat="43.6344786675238" lon="11.23341612733366"><ele>289.0</ele><time>2026-03-28T15:55:37.001Z</time></trkpt><trkpt lat="43.63445205269511" lon="11.233517373534218"><ele>289.0</ele><time>2026-03-28T15:55:38.001Z</time></trkpt><trkpt lat="43.63443937297989" lon="11.233627016727258"><ele>289.4</ele><time>2026-03-28T15:55:39.002Z</time></trkpt><trkpt lat="43.634435886264484" lon="11.233719278466367"><ele>289.79999999999995</ele><time>2026-03-28T15:55:40.002Z</time></trkpt><trkpt lat="43.6344255776474" lon="11.233881358204542"><ele>290.20000000000005</ele><time>2026-03-28T15:55:42.002Z</time></trkpt><trkpt lat="43.63440411503974" lon="11.23402661703357"><ele>290.6</ele><time>2026-03-28T15:55:44.002Z</time></trkpt><trkpt lat="43.63439526603227" lon="11.234134881940793"><ele>291.0</ele><time>2026-03-28T15:55:45.002Z</time></trkpt><trkpt lat="43.63437657843512" lon="11.234262714518522"><ele>291.0</ele><time>2026-03-28T15:55:46.002Z</time></trkpt><trkpt lat="43.63433316060525" lon="11.234420259703986"><ele>291.0</ele><time>2026-03-28T15:55:47.002Z</time></trkpt><trkpt lat="43.63428403751667" lon="11.234579046155243"><ele>291.0</ele><time>2026-03-28T15:55:48.002Z</time></trkpt><trkpt lat="43.63421935056089" lon="11.234762081208288"><ele>291.0</ele><time>2026-03-28T15:55:49.002Z</time></trkpt><trkpt lat="43.634158533321205" lon="11.234950798739954"><ele>291.0</ele><time>2026-03-28T15:55:50.002Z</time></trkpt><trkpt lat="43.63411021386473" lon="11.235154522083613"><ele>291.0</ele><time>2026-03-28T15:55:51.002Z</time></trkpt><trkpt lat="43.63403915577833" lon="11.235329989819583"><ele>291.0</ele><time>2026-03-28T15:55:52.002Z</time></trkpt><trkpt lat="43.63398574960224" lon="11.235503551811725"><ele>291.0</ele><time>2026-03-28T15:55:53.002Z</time></trkpt><trkpt lat="43.63393300274442" lon="11.23567133004888"><ele>291.0</ele><time>2026-03-28T15:55:54.002Z</time></trkpt><trkpt lat="43.633883129666465" lon="11.235802119802795"><ele>291.0</ele><time>2026-03-28T15:55:55.002Z</time></trkpt><trkpt lat="43.6338277553219" lon="11.235932487221744"><ele>291.0</ele><time>2026-03-28T15:55:56.002Z</time></trkpt><trkpt lat="43.63377875272504" lon="11.236040955208018"><ele>291.0</ele><time>2026-03-28T15:55:57.002Z</time></trkpt><trkpt lat="43.63372459132412" lon="11.236165636104936"><ele>291.0</ele><time>2026-03-28T15:55:58.002Z</time></trkpt><trkpt lat="43.63366690155101" lon="11.236304169543505"><ele>290.75</ele><time>2026-03-28T15:55:59.002Z</time></trkpt><trkpt lat="43.63360194749358" lon="11.2364663710354"><ele>290.5</ele><time>2026-03-28T15:56:00.002Z</time></trkpt><trkpt lat="43.63354106608077" lon="11.236651140536429"><ele>290.25</ele><time>2026-03-28T15:56:01.002Z</time></trkpt><trkpt lat="43.63347725910945" lon="11.236835975023265"><ele>290.0</ele><time>2026-03-28T15:56:02.002Z</time></trkpt><trkpt lat="43.63343745090726" lon="11.236983742239318"><ele>291.0</ele><time>2026-03-28T15:56:03.002Z</time></trkpt><trkpt lat="43.63339612902748" lon="11.237100192636653"><ele>292.0</ele><time>2026-03-28T15:56:04.002Z</time></trkpt><trkpt lat="43.63339180252032" lon="11.237244543678125"><ele>293.0</ele><time>2026-03-28T15:56:05.002Z</time></trkpt><trkpt lat="43.633387120396236" lon="11.23741621818313"><ele>294.0</ele><time>2026-03-28T15:56:06.002Z</time></trkpt><trkpt lat="43.6333715086716" lon="11.237616784512982"><ele>294.0</ele><time>2026-03-28T15:56:07.002Z</time></trkpt><trkpt lat="43.63335804795624" lon="11.237846431668594"><ele>294.0</ele><time>2026-03-28T15:56:08.002Z</time></trkpt><trkpt lat="43.633345530292736" lon="11.2380746314969"><ele>294.0</ele><time>2026-03-28T15:56:09.002Z</time></trkpt><trkpt lat="43.63334392300142" lon="11.238288482215816"><ele>293.0</ele><time>2026-03-28T15:56:10.002Z</time></trkpt><trkpt lat="43.63334487388305" lon="11.238475630656314"><ele>292.0</ele><time>2026-03-28T15:56:11.002Z</time></trkpt><trkpt lat="43.633350401864156" lon="11.238652156368891"><ele>291.0</ele><time>2026-03-28T15:56:12.003Z</time></trkpt><trkpt lat="43.63337820302827" lon="11.238840249984406"><ele>290.0</ele><time>2026-03-28T15:56:13.003Z</time></trkpt><trkpt lat="43.633422619422134" lon="11.239047817598966"><ele>289.6666666666667</ele><time>2026-03-28T15:56:14.003Z</time></trkpt><trkpt lat="43.633471136084985" lon="11.239279933476114"><ele>289.3333333333333</ele><time>2026-03-28T15:56:15.003Z</time></trkpt><trkpt lat="43.63351209211637" lon="11.239493210365216"><ele>289.0</ele><time>2026-03-28T15:56:16.003Z</time></trkpt><trkpt lat="43.63353987552716" lon="11.239667366495805"><ele>289.2</ele><time>2026-03-28T15:56:17.003Z</time></trkpt><trkpt lat="43.63353199756137" lon="11.23981220651829"><ele>289.4</ele><time>2026-03-28T15:56:18.003Z</time></trkpt><trkpt lat="43.63352338193763" lon="11.239953764461745"><ele>289.6</ele><time>2026-03-28T15:56:19.003Z</time></trkpt><trkpt lat="43.63348692235054" lon="11.240088300983164"><ele>289.8</ele><time>2026-03-28T15:56:20.003Z</time></trkpt><trkpt lat="43.6334541990983" lon="11.240241823433918"><ele>290.0</ele><time>2026-03-28T15:56:21.003Z</time></trkpt><trkpt lat="43.63339653293196" lon="11.240401347852718"><ele>290.0</ele><time>2026-03-28T15:56:22.003Z</time></trkpt><trkpt lat="43.63333507645227" lon="11.240585616407959"><ele>290.0</ele><time>2026-03-28T15:56:23.003Z</time></trkpt><trkpt lat="43.63328236075295" lon="11.240785894334413"><ele>290.0</ele><time>2026-03-28T15:56:24.003Z</time></trkpt><trkpt lat="43.63322441222719" lon="11.241000396348014"><ele>290.0</ele><time>2026-03-28T15:56:25.003Z</time></trkpt><trkpt lat="43.633166324747506" lon="11.24119676063815"><ele>290.0</ele><time>2026-03-28T15:56:26.003Z</time></trkpt><trkpt lat="43.63313318966181" lon="11.241385268996087"><ele>290.0</ele><time>2026-03-28T15:56:27.003Z</time></trkpt><trkpt lat="43.6331099048038" lon="11.241569252000797"><ele>290.0</ele><time>2026-03-28T15:56:28.003Z</time></trkpt><trkpt lat="43.63307360488138" lon="11.241778056320197"><ele>289.25</ele><time>2026-03-28T15:56:29.003Z</time></trkpt><trkpt lat="43.6330474193868" lon="11.24199562427646"><ele>288.5</ele><time>2026-03-28T15:56:30.003Z</time></trkpt><trkpt lat="43.63301547260545" lon="11.242192240867707"><ele>287.75</ele><time>2026-03-28T15:56:31.003Z</time></trkpt><trkpt lat="43.63297265316722" lon="11.242372122076354"><ele>287.0</ele><time>2026-03-28T15:56:32.003Z</time></trkpt><trkpt lat="43.63291367879982" lon="11.242547798554016"><ele>286.0</ele><time>2026-03-28T15:56:33.003Z</time></trkpt><trkpt lat="43.632840630059604" lon="11.24270585402279"><ele>285.0</ele><time>2026-03-28T15:56:34.003Z</time></trkpt><trkpt lat="43.63274953817785" lon="11.24283323341102"><ele>284.0</ele><time>2026-03-28T15:56:35.003Z</time></trkpt><trkpt lat="43.632661441572765" lon="11.24294710250049"><ele>283.0</ele><time>2026-03-28T15:56:36.003Z</time></trkpt><trkpt lat="43.63255168194744" lon="11.243037185512382"><ele>283.75</ele><time>2026-03-28T15:56:37.003Z</time></trkpt><trkpt lat="43.63241707428999" lon="11.243109503586401"><ele>284.5</ele><time>2026-03-28T15:56:38.003Z</time></trkpt><trkpt lat="43.63227275931191" lon="11.243154154924968"><ele>285.25</ele><time>2026-03-28T15:56:39.003Z</time></trkpt><trkpt lat="43.632138206154515" lon="11.24321560203673"><ele>286.0</ele><time>2026-03-28T15:56:40.003Z</time></trkpt><trkpt lat="43.63203722456806" lon="11.243282923259686"><ele>288.25</ele><time>2026-03-28T15:56:41.003Z</time></trkpt><trkpt lat="43.63194631811359" lon="11.243376591033748"><ele>290.5</ele><time>2026-03-28T15:56:42.003Z</time></trkpt><trkpt lat="43.63187269903778" lon="11.243521753779213"><ele>292.75</ele><time>2026-03-28T15:56:43.003Z</time></trkpt><trkpt lat="43.631820491558045" lon="11.243691956341177"><ele>295.0</ele><time>2026-03-28T15:56:44.002Z</time></trkpt><trkpt lat="43.63179303189362" lon="11.243894170413274"><ele>293.66666666666663</ele><time>2026-03-28T15:56:45.002Z</time></trkpt><trkpt lat="43.63176272100602" lon="11.244107984116555"><ele>292.3333333333333</ele><time>2026-03-28T15:56:46.002Z</time></trkpt><trkpt lat="43.631693037885896" lon="11.244291361295344"><ele>291.0</ele><time>2026-03-28T15:56:47.002Z</time></trkpt><trkpt lat="43.63160785029411" lon="11.244473682533414"><ele>291.0</ele><time>2026-03-28T15:56:48.002Z</time></trkpt><trkpt lat="43.63151379102643" lon="11.244657730617897"><ele>291.0</ele><time>2026-03-28T15:56:49.001Z</time></trkpt><trkpt lat="43.63141410250903" lon="11.244852305319034"><ele>291.0</ele><time>2026-03-28T15:56:50.001Z</time></trkpt><trkpt lat="43.63131238137187" lon="11.245049774341954"><ele>290.25</ele><time>2026-03-28T15:56:51.001Z</time></trkpt><trkpt lat="43.631227302876916" lon="11.245213674907067"><ele>289.5</ele><time>2026-03-28T15:56:52.001Z</time></trkpt><trkpt lat="43.63114779739562" lon="11.245353224288321"><ele>288.75</ele><time>2026-03-28T15:56:53.001Z</time></trkpt><trkpt lat="43.631067672159496" lon="11.24548856519309"><ele>288.0</ele><time>2026-03-28T15:56:54.001Z</time></trkpt><trkpt lat="43.63097802968351" lon="11.2456187287614"><ele>288.6</ele><time>2026-03-28T15:56:55.001Z</time></trkpt><trkpt lat="43.63088589123539" lon="11.24574171041245"><ele>289.20000000000005</ele><time>2026-03-28T15:56:56.001Z</time></trkpt><trkpt lat="43.630786496213666" lon="11.245844936126941"><ele>289.8</ele><time>2026-03-28T15:56:57.001Z</time></trkpt><trkpt lat="43.630692918465634" lon="11.245888150204985"><ele>290.40000000000003</ele><time>2026-03-28T15:56:58.001Z</time></trkpt><trkpt lat="43.630607178183084" lon="11.245921400492996"><ele>291.0</ele><time>2026-03-28T15:56:59.001Z</time></trkpt><trkpt lat="43.63048778663904" lon="11.245950849961998"><ele>291.0</ele><time>2026-03-28T15:57:00.001Z</time></trkpt><trkpt lat="43.63035472728669" lon="11.245993733164608"><ele>291.0</ele><time>2026-03-28T15:57:01.001Z</time></trkpt><trkpt lat="43.63020759259945" lon="11.246062607326289"><ele>291.0</ele><time>2026-03-28T15:57:02.001Z</time></trkpt><trkpt lat="43.63006000526306" lon="11.246172101610854"><ele>292.3333333333333</ele><time>2026-03-28T15:57:03.001Z</time></trkpt><trkpt lat="43.62993788278748" lon="11.246310492264026"><ele>293.66666666666663</ele><time>2026-03-28T15:57:04.001Z</time></trkpt><trkpt lat="43.62983022770453" lon="11.246465777608393"><ele>295.0</ele><time>2026-03-28T15:57:05.001Z</time></trkpt><trkpt lat="43.62974259353086" lon="11.246626255790385"><ele>293.0</ele><time>2026-03-28T15:57:06.001Z</time></trkpt><trkpt lat="43.629667306672175" lon="11.246761929632415"><ele>291.0</ele><time>2026-03-28T15:57:07.001Z</time></trkpt><trkpt lat="43.62958517218734" lon="11.246869159267488"><ele>289.0</ele><time>2026-03-28T15:57:08.001Z</time></trkpt><trkpt lat="43.62950596046414" lon="11.246999207332461"><ele>287.0</ele><time>2026-03-28T15:57:09.001Z</time></trkpt><trkpt lat="43.629433213207825" lon="11.247148022559964"><ele>288.5</ele><time>2026-03-28T15:57:10.001Z</time></trkpt><trkpt lat="43.629343429822725" lon="11.247289460526668"><ele>290.0</ele><time>2026-03-28T15:57:11.001Z</time></trkpt><trkpt lat="43.62922444351242" lon="11.247412669143117"><ele>291.5</ele><time>2026-03-28T15:57:12.001Z</time></trkpt><trkpt lat="43.62911426215165" lon="11.247516567744904"><ele>293.0</ele><time>2026-03-28T15:57:13.001Z</time></trkpt><trkpt lat="43.62902229398054" lon="11.24758562149795"><ele>293.0</ele><time>2026-03-28T15:57:14.001Z</time></trkpt><trkpt lat="43.62890023967379" lon="11.247611000030203"><ele>293.0</ele><time>2026-03-28T15:57:15.001Z</time></trkpt><trkpt lat="43.628738723961035" lon="11.247620302192455"><ele>293.0</ele><time>2026-03-28T15:57:16.001Z</time></trkpt><trkpt lat="43.62855687217062" lon="11.247615076951881"><ele>295.25</ele><time>2026-03-28T15:57:17.001Z</time></trkpt><trkpt lat="43.62841582853761" lon="11.247648611781129"><ele>297.5</ele><time>2026-03-28T15:57:18.001Z</time></trkpt><trkpt lat="43.62831177340212" lon="11.247672885553854"><ele>299.75</ele><time>2026-03-28T15:57:19.001Z</time></trkpt><trkpt lat="43.628242034733326" lon="11.247768544461547"><ele>302.0</ele><time>2026-03-28T15:57:20.001Z</time></trkpt><trkpt lat="43.6281844025658" lon="11.247944589489475"><ele>300.6666666666667</ele><time>2026-03-28T15:57:21.001Z</time></trkpt><trkpt lat="43.628151266116326" lon="11.248170317686036"><ele>299.3333333333333</ele><time>2026-03-28T15:57:22.001Z</time></trkpt><trkpt lat="43.62812123588309" lon="11.248402416458246"><ele>298.0</ele><time>2026-03-28T15:57:23.001Z</time></trkpt><trkpt lat="43.628078738398514" lon="11.248602580124633"><ele>298.0</ele><time>2026-03-28T15:57:24.001Z</time></trkpt><trkpt lat="43.628057183411286" lon="11.248810199479687"><ele>298.0</ele><time>2026-03-28T15:57:25.001Z</time></trkpt><trkpt lat="43.628031219766996" lon="11.249025527109739"><ele>298.0</ele><time>2026-03-28T15:57:26.001Z</time></trkpt><trkpt lat="43.627990571032385" lon="11.249253920008503"><ele>297.0</ele><time>2026-03-28T15:57:27.001Z</time></trkpt><trkpt lat="43.62791103173416" lon="11.249457290931518"><ele>296.0</ele><time>2026-03-28T15:57:28.001Z</time></trkpt><trkpt lat="43.62785990446543" lon="11.249676160260133"><ele>295.0</ele><time>2026-03-28T15:57:29.001Z</time></trkpt><trkpt lat="43.62780428953017" lon="11.249923246834667"><ele>298.0</ele><time>2026-03-28T15:57:30.001Z</time></trkpt><trkpt lat="43.62777682833244" lon="11.250163610127684"><ele>301.0</ele><time>2026-03-28T15:57:31.001Z</time></trkpt><trkpt lat="43.62775415533522" lon="11.250370445042151"><ele>304.0</ele><time>2026-03-28T15:57:32.001Z</time></trkpt><trkpt lat="43.62774554936103" lon="11.250541821361807"><ele>302.0</ele><time>2026-03-28T15:57:33.001Z</time></trkpt><trkpt lat="43.627784542491305" lon="11.25073315509763"><ele>300.0</ele><time>2026-03-28T15:57:34.001Z</time></trkpt><trkpt lat="43.62783990355419" lon="11.250910926898992"><ele>298.0</ele><time>2026-03-28T15:57:35.001Z</time></trkpt><trkpt lat="43.62788349481363" lon="11.251056588660832"><ele>296.0</ele><time>2026-03-28T15:57:36.001Z</time></trkpt><trkpt lat="43.6279023809555" lon="11.251161212531354"><ele>296.0</ele><time>2026-03-28T15:57:37.001Z</time></trkpt><trkpt lat="43.62785466166592" lon="11.251336204483358"><ele>296.0</ele><time>2026-03-28T15:57:39.001Z</time></trkpt><trkpt lat="43.62774518882827" lon="11.251366981447887"><ele>296.0</ele><time>2026-03-28T15:57:40.001Z</time></trkpt><trkpt lat="43.627616201189824" lon="11.251389930875815"><ele>296.0</ele><time>2026-03-28T15:57:41.001Z</time></trkpt><trkpt lat="43.62749151148897" lon="11.251460949722462"><ele>292.0</ele><time>2026-03-28T15:57:42.001Z</time></trkpt><trkpt lat="43.62738424734317" lon="11.251537400500414"><ele>288.0</ele><time>2026-03-28T15:57:43.001Z</time></trkpt><trkpt lat="43.62726637210387" lon="11.251656807116735"><ele>284.0</ele><time>2026-03-28T15:57:44.001Z</time></trkpt><trkpt lat="43.62717162222004" lon="11.25180847655502"><ele>280.0</ele><time>2026-03-28T15:57:45.001Z</time></trkpt><trkpt lat="43.62710254744782" lon="11.251960156108654"><ele>280.0</ele><time>2026-03-28T15:57:46.001Z</time></trkpt><trkpt lat="43.627065706900055" lon="11.252132975804845"><ele>280.0</ele><time>2026-03-28T15:57:47.001Z</time></trkpt><trkpt lat="43.627057925064406" lon="11.25233317316199"><ele>280.0</ele><time>2026-03-28T15:57:48.001Z</time></trkpt><trkpt lat="43.62705275170406" lon="11.252499004688199"><ele>280.0</ele><time>2026-03-28T15:57:49.001Z</time></trkpt><trkpt lat="43.62702761735451" lon="11.25258699018358"><ele>277.25</ele><time>2026-03-28T15:57:50.001Z</time></trkpt><trkpt lat="43.627059205723164" lon="11.252758680372475"><ele>274.5</ele><time>2026-03-28T15:57:54.001Z</time></trkpt><trkpt lat="43.62712374348035" lon="11.25285476558247"><ele>271.75</ele><time>2026-03-28T15:57:55.001Z</time></trkpt><trkpt lat="43.62718156582242" lon="11.252976935492368"><ele>269.0</ele><time>2026-03-28T15:57:56.001Z</time></trkpt><trkpt lat="43.62724243196347" lon="11.253121291659822"><ele>269.33333333333337</ele><time>2026-03-28T15:57:57.001Z</time></trkpt><trkpt lat="43.627320058782146" lon="11.253281497147716"><ele>269.6666666666667</ele><time>2026-03-28T15:57:58.001Z</time></trkpt><trkpt lat="43.627396173148924" lon="11.253468701530132"><ele>270.0</ele><time>2026-03-28T15:57:59.001Z</time></trkpt><trkpt lat="43.62746878690432" lon="11.253680932684494"><ele>270.0</ele><time>2026-03-28T15:58:00.001Z</time></trkpt><trkpt lat="43.627557017110924" lon="11.253902913385506"><ele>270.0</ele><time>2026-03-28T15:58:01.001Z</time></trkpt><trkpt lat="43.627646692998866" lon="11.254133336567014"><ele>270.0</ele><time>2026-03-28T15:58:02.001Z</time></trkpt><trkpt lat="43.62772851998953" lon="11.254351282356405"><ele>268.6666666666667</ele><time>2026-03-28T15:58:03.001Z</time></trkpt><trkpt lat="43.62781036010708" lon="11.254547871212553"><ele>267.33333333333337</ele><time>2026-03-28T15:58:04.001Z</time></trkpt><trkpt lat="43.62789811672134" lon="11.25473888165136"><ele>266.0</ele><time>2026-03-28T15:58:05.001Z</time></trkpt><trkpt lat="43.62800709763848" lon="11.254924358833811"><ele>263.33333333333337</ele><time>2026-03-28T15:58:06.001Z</time></trkpt><trkpt lat="43.628141914961866" lon="11.255088610490853"><ele>260.6666666666667</ele><time>2026-03-28T15:58:07.001Z</time></trkpt><trkpt lat="43.62829632147023" lon="11.255248614041918"><ele>258.0</ele><time>2026-03-28T15:58:08.001Z</time></trkpt><trkpt lat="43.62845298989929" lon="11.255392912226393"><ele>258.0</ele><time>2026-03-28T15:58:09.001Z</time></trkpt><trkpt lat="43.62862079265388" lon="11.255531906156122"><ele>258.0</ele><time>2026-03-28T15:58:10.001Z</time></trkpt><trkpt lat="43.62879236913599" lon="11.255644949282496"><ele>258.0</ele><time>2026-03-28T15:58:11.001Z</time></trkpt><trkpt lat="43.628944749021116" lon="11.25574797780879"><ele>255.66666666666669</ele><time>2026-03-28T15:58:12.001Z</time></trkpt><trkpt lat="43.62907837169133" lon="11.255840335972632"><ele>253.33333333333334</ele><time>2026-03-28T15:58:13.001Z</time></trkpt><trkpt lat="43.629188107260696" lon="11.25599684326054"><ele>251.0</ele><time>2026-03-28T15:58:14.001Z</time></trkpt><trkpt lat="43.629294481399846" lon="11.256200551032638"><ele>251.0</ele><time>2026-03-28T15:58:15.001Z</time></trkpt><trkpt lat="43.629386154018356" lon="11.256433851787923"><ele>251.0</ele><time>2026-03-28T15:58:16.001Z</time></trkpt><trkpt lat="43.62948532176132" lon="11.256680947470228"><ele>251.0</ele><time>2026-03-28T15:58:17.001Z</time></trkpt><trkpt lat="43.629571614989906" lon="11.256938836862592"><ele>251.0</ele><time>2026-03-28T15:58:18.001Z</time></trkpt><trkpt lat="43.629657944635845" lon="11.257197222402517"><ele>251.0</ele><time>2026-03-28T15:58:19.001Z</time></trkpt><trkpt lat="43.6297163688581" lon="11.257486691789529"><ele>251.0</ele><time>2026-03-28T15:58:20.001Z</time></trkpt><trkpt lat="43.62976640024989" lon="11.257781239893468"><ele>246.5</ele><time>2026-03-28T15:58:21.001Z</time></trkpt><trkpt lat="43.62982779119224" lon="11.25808621491787"><ele>242.0</ele><time>2026-03-28T15:58:22.001Z</time></trkpt><trkpt lat="43.62990131665519" lon="11.25840433104524"><ele>237.0</ele><time>2026-03-28T15:58:23.001Z</time></trkpt><trkpt lat="43.62998333698658" lon="11.258740887449393"><ele>232.0</ele><time>2026-03-28T15:58:24.001Z</time></trkpt><trkpt lat="43.630068096576615" lon="11.259055715851247"><ele>230.33333333333331</ele><time>2026-03-28T15:58:25.001Z</time></trkpt><trkpt lat="43.63014561480897" lon="11.25932484694702"><ele>228.66666666666669</ele><time>2026-03-28T15:58:26.001Z</time></trkpt><trkpt lat="43.630221815762425" lon="11.259571334513604"><ele>227.0</ele><time>2026-03-28T15:58:27.001Z</time></trkpt><trkpt lat="43.630332103323056" lon="11.25980203033966"><ele>224.0</ele><time>2026-03-28T15:58:28.001Z</time></trkpt><trkpt lat="43.630492016450845" lon="11.26002209000571"><ele>221.0</ele><time>2026-03-28T15:58:29.001Z</time></trkpt><trkpt lat="43.630660435471285" lon="11.260238994888768"><ele>221.0</ele><time>2026-03-28T15:58:30.001Z</time></trkpt><trkpt lat="43.6308209053171" lon="11.260442078592966"><ele>221.0</ele><time>2026-03-28T15:58:31.001Z</time></trkpt><trkpt lat="43.630961330658614" lon="11.260663958948887"><ele>221.0</ele><time>2026-03-28T15:58:32.001Z</time></trkpt><trkpt lat="43.63106320484292" lon="11.260915221136504"><ele>215.66666666666669</ele><time>2026-03-28T15:58:33.001Z</time></trkpt><trkpt lat="43.631142979690004" lon="11.261190998961467"><ele>210.33333333333331</ele><time>2026-03-28T15:58:34.001Z</time></trkpt><trkpt lat="43.6312011026596" lon="11.261453701868769"><ele>205.0</ele><time>2026-03-28T15:58:35.001Z</time></trkpt><trkpt lat="43.63124215708848" lon="11.261736933938153"><ele>205.0</ele><time>2026-03-28T15:58:36.001Z</time></trkpt><trkpt lat="43.6312475038655" lon="11.262047817139992"><ele>205.0</ele><time>2026-03-28T15:58:37.001Z</time></trkpt><trkpt lat="43.63123912862995" lon="11.262311306865"><ele>205.0</ele><time>2026-03-28T15:58:38.001Z</time></trkpt><trkpt lat="43.63125835293634" lon="11.262521937404786"><ele>205.25</ele><time>2026-03-28T15:58:39.001Z</time></trkpt><trkpt lat="43.631295475314126" lon="11.262680704045271"><ele>205.5</ele><time>2026-03-28T15:58:40.002Z</time></trkpt><trkpt lat="43.631383830605174" lon="11.262833264327286"><ele>205.75</ele><time>2026-03-28T15:58:41.002Z</time></trkpt><trkpt lat="43.631511747608286" lon="11.262946603524108"><ele>206.0</ele><time>2026-03-28T15:58:42.002Z</time></trkpt><trkpt lat="43.63167732810157" lon="11.263041186589614"><ele>205.0</ele><time>2026-03-28T15:58:43.002Z</time></trkpt><trkpt lat="43.63185948452797" lon="11.263125852217616"><ele>204.0</ele><time>2026-03-28T15:58:44.002Z</time></trkpt><trkpt lat="43.632064672461816" lon="11.263188280069633"><ele>203.0</ele><time>2026-03-28T15:58:45.002Z</time></trkpt><trkpt lat="43.632236789591325" lon="11.263201849053303"><ele>203.0</ele><time>2026-03-28T15:58:46.002Z</time></trkpt><trkpt lat="43.63237696590939" lon="11.263244722003241"><ele>203.0</ele><time>2026-03-28T15:58:47.002Z</time></trkpt><trkpt lat="43.63249812237032" lon="11.263295840451253"><ele>203.0</ele><time>2026-03-28T15:58:48.002Z</time></trkpt><trkpt lat="43.63258621997109" lon="11.26344877363751"><ele>203.0</ele><time>2026-03-28T15:58:49.002Z</time></trkpt><trkpt lat="43.63265394867346" lon="11.263673415254388"><ele>203.0</ele><time>2026-03-28T15:58:50.001Z</time></trkpt><trkpt lat="43.63270924986581" lon="11.263931544044663"><ele>203.0</ele><time>2026-03-28T15:58:51.001Z</time></trkpt><trkpt lat="43.63278504041927" lon="11.264211045042735"><ele>203.0</ele><time>2026-03-28T15:58:52.001Z</time></trkpt><trkpt lat="43.63290018882665" lon="11.26449152342917"><ele>197.0</ele><time>2026-03-28T15:58:53.001Z</time></trkpt><trkpt lat="43.633048977798246" lon="11.264759984678296"><ele>191.0</ele><time>2026-03-28T15:58:54.001Z</time></trkpt><trkpt lat="43.63319764562922" lon="11.264985835948519"><ele>191.0</ele><time>2026-03-28T15:58:55.001Z</time></trkpt><trkpt lat="43.63334079010991" lon="11.265169872435967"><ele>191.0</ele><time>2026-03-28T15:58:56.001Z</time></trkpt><trkpt lat="43.63350627496314" lon="11.265303651769857"><ele>191.0</ele><time>2026-03-28T15:58:57.001Z</time></trkpt><trkpt lat="43.63366945030615" lon="11.265364935666899"><ele>188.25</ele><time>2026-03-28T15:58:58.001Z</time></trkpt><trkpt lat="43.63380986612556" lon="11.265420465473415"><ele>185.5</ele><time>2026-03-28T15:58:59.001Z</time></trkpt><trkpt lat="43.63390816478887" lon="11.265525868988075"><ele>182.75</ele><time>2026-03-28T15:59:00Z</time></trkpt><trkpt lat="43.63397724523652" lon="11.265689731641267"><ele>180.0</ele><time>2026-03-28T15:59:01Z</time></trkpt><trkpt lat="43.63401733472629" lon="11.265903646858787"><ele>180.0</ele><time>2026-03-28T15:59:02Z</time></trkpt><trkpt lat="43.63403027462026" lon="11.266156605482337"><ele>180.0</ele><time>2026-03-28T15:59:03Z</time></trkpt><trkpt lat="43.63406135597563" lon="11.266414756003208"><ele>180.0</ele><time>2026-03-28T15:59:04Z</time></trkpt><trkpt lat="43.63413773589024" lon="11.26668412250682"><ele>180.66666666666666</ele><time>2026-03-28T15:59:05Z</time></trkpt><trkpt lat="43.63420124338023" lon="11.266929200763741"><ele>181.33333333333331</ele><time>2026-03-28T15:59:06Z</time></trkpt><trkpt lat="43.634243381089426" lon="11.26717128037012"><ele>182.0</ele><time>2026-03-28T15:59:07Z</time></trkpt><trkpt lat="43.634262394085916" lon="11.267433917813527"><ele>182.0</ele><time>2026-03-28T15:59:08Z</time></trkpt><trkpt lat="43.63425331442775" lon="11.26768147633156"><ele>182.0</ele><time>2026-03-28T15:59:09Z</time></trkpt><trkpt lat="43.634233060158635" lon="11.26790146601964"><ele>182.0</ele><time>2026-03-28T15:59:10Z</time></trkpt><trkpt lat="43.63419653307951" lon="11.268123875461626"><ele>178.66666666666666</ele><time>2026-03-28T15:59:11Z</time></trkpt><trkpt lat="43.634140368096254" lon="11.268331893415628"><ele>175.33333333333334</ele><time>2026-03-28T15:59:12Z</time></trkpt><trkpt lat="43.63404467084298" lon="11.26851780523719"><ele>172.0</ele><time>2026-03-28T15:59:13Z</time></trkpt><trkpt lat="43.63391395063907" lon="11.26869249302766"><ele>172.0</ele><time>2026-03-28T15:59:14Z</time></trkpt><trkpt lat="43.633768309870064" lon="11.268848143233598"><ele>172.0</ele><time>2026-03-28T15:59:15Z</time></trkpt><trkpt lat="43.63363337370323" lon="11.269037274646713"><ele>172.0</ele><time>2026-03-28T15:59:16Z</time></trkpt><trkpt lat="43.633496830630925" lon="11.269256246619134"><ele>171.66666666666669</ele><time>2026-03-28T15:59:17Z</time></trkpt><trkpt lat="43.633357589568696" lon="11.269486079561528"><ele>171.33333333333334</ele><time>2026-03-28T15:59:18Z</time></trkpt><trkpt lat="43.63321973019683" lon="11.269696279395735"><ele>171.0</ele><time>2026-03-28T15:59:19Z</time></trkpt><trkpt lat="43.633090344967066" lon="11.26990260563692"><ele>169.66666666666666</ele><time>2026-03-28T15:59:20Z</time></trkpt><trkpt lat="43.632963370737244" lon="11.27010339124248"><ele>168.33333333333331</ele><time>2026-03-28T15:59:21Z</time></trkpt><trkpt lat="43.63284247398224" lon="11.270298939956026"><ele>167.0</ele><time>2026-03-28T15:59:22Z</time></trkpt><trkpt lat="43.63271790268258" lon="11.270487673256664"><ele>164.33333333333331</ele><time>2026-03-28T15:59:23Z</time></trkpt><trkpt lat="43.632574873911025" lon="11.27067058012706"><ele>161.66666666666666</ele><time>2026-03-28T15:59:24Z</time></trkpt><trkpt lat="43.63241241580748" lon="11.270830611913675"><ele>159.0</ele><time>2026-03-28T15:59:25Z</time></trkpt><trkpt lat="43.63224237000817" lon="11.270943749632233"><ele>159.0</ele><time>2026-03-28T15:59:26Z</time></trkpt><trkpt lat="43.63209383069563" lon="11.271048075303327"><ele>159.0</ele><time>2026-03-28T15:59:27Z</time></trkpt><trkpt lat="43.631964182328005" lon="11.271151806753085"><ele>159.0</ele><time>2026-03-28T15:59:28Z</time></trkpt><trkpt lat="43.63184935017723" lon="11.271264845517035"><ele>159.5</ele><time>2026-03-28T15:59:29Z</time></trkpt><trkpt lat="43.631745341787294" lon="11.27140015468833"><ele>160.0</ele><time>2026-03-28T15:59:30.001Z</time></trkpt><trkpt lat="43.63166571320739" lon="11.271550308036177"><ele>160.5</ele><time>2026-03-28T15:59:31.001Z</time></trkpt><trkpt lat="43.63161347380328" lon="11.271708520297334"><ele>161.0</ele><time>2026-03-28T15:59:32.001Z</time></trkpt><trkpt lat="43.63158361748178" lon="11.271873095656176"><ele>160.0</ele><time>2026-03-28T15:59:33.001Z</time></trkpt><trkpt lat="43.63157881496651" lon="11.272037428278171"><ele>159.0</ele><time>2026-03-28T15:59:34.001Z</time></trkpt><trkpt lat="43.63159675028298" lon="11.2721978900236"><ele>158.0</ele><time>2026-03-28T15:59:35.001Z</time></trkpt><trkpt lat="43.631635085154976" lon="11.272341436706919"><ele>157.0</ele><time>2026-03-28T15:59:36.001Z</time></trkpt><trkpt lat="43.63168475778669" lon="11.272475421321806"><ele>157.0</ele><time>2026-03-28T15:59:37.001Z</time></trkpt><trkpt lat="43.63173874528707" lon="11.272603502273514"><ele>157.0</ele><time>2026-03-28T15:59:38.001Z</time></trkpt><trkpt lat="43.631792705850415" lon="11.272734897936886"><ele>157.0</ele><time>2026-03-28T15:59:39.001Z</time></trkpt><trkpt lat="43.63185885650159" lon="11.272875184925516"><ele>157.0</ele><time>2026-03-28T15:59:40.001Z</time></trkpt><trkpt lat="43.6319140986139" lon="11.273003963253304"><ele>157.0</ele><time>2026-03-28T15:59:41.001Z</time></trkpt><trkpt lat="43.631955495403446" lon="11.27311457310947"><ele>156.0</ele><time>2026-03-28T15:59:42.001Z</time></trkpt><trkpt lat="43.63200182580287" lon="11.273222068876084"><ele>155.0</ele><time>2026-03-28T15:59:43.001Z</time></trkpt><trkpt lat="43.632069885803034" lon="11.273348797957512"><ele>154.0</ele><time>2026-03-28T15:59:44.001Z</time></trkpt><trkpt lat="43.63214730037226" lon="11.273486430999899"><ele>153.0</ele><time>2026-03-28T15:59:45.001Z</time></trkpt><trkpt lat="43.632232690931865" lon="11.27363447725239"><ele>153.0</ele><time>2026-03-28T15:59:46.001Z</time></trkpt><trkpt lat="43.63231829221708" lon="11.273793341724213"><ele>153.0</ele><time>2026-03-28T15:59:47.001Z</time></trkpt><trkpt lat="43.63238525865865" lon="11.27396195094352"><ele>153.0</ele><time>2026-03-28T15:59:48.001Z</time></trkpt><trkpt lat="43.63240679209912" lon="11.274142864179112"><ele>153.0</ele><time>2026-03-28T15:59:49.001Z</time></trkpt><trkpt lat="43.63238588683967" lon="11.274326401651185"><ele>153.5</ele><time>2026-03-28T15:59:50.001Z</time></trkpt><trkpt lat="43.63231656547566" lon="11.274490429203192"><ele>154.0</ele><time>2026-03-28T15:59:51.001Z</time></trkpt><trkpt lat="43.63220791966419" lon="11.27461917039623"><ele>154.5</ele><time>2026-03-28T15:59:52.001Z</time></trkpt><trkpt lat="43.632061471367656" lon="11.274678098945811"><ele>155.0</ele><time>2026-03-28T15:59:53.001Z</time></trkpt><trkpt lat="43.63188557384807" lon="11.27474927361449"><ele>155.66666666666666</ele><time>2026-03-28T15:59:54.001Z</time></trkpt><trkpt lat="43.63168575893954" lon="11.274785936950895"><ele>156.33333333333334</ele><time>2026-03-28T15:59:55.001Z</time></trkpt><trkpt lat="43.63146492154734" lon="11.274835114022924"><ele>157.0</ele><time>2026-03-28T15:59:56.001Z</time></trkpt><trkpt lat="43.631242992790035" lon="11.274903019094506"><ele>157.0</ele><time>2026-03-28T15:59:57.001Z</time></trkpt><trkpt lat="43.63101737430492" lon="11.27499577890785"><ele>157.0</ele><time>2026-03-28T15:59:58.001Z</time></trkpt><trkpt lat="43.63078793869497" lon="11.275123331441051"><ele>157.0</ele><time>2026-03-28T15:59:59.001Z</time></trkpt><trkpt lat="43.630558871677536" lon="11.275285922635085"><ele>157.0</ele><time>2026-03-28T16:00:00.001Z</time></trkpt><trkpt lat="43.63033185207252" lon="11.275474244545794"><ele>159.0</ele><time>2026-03-28T16:00:01.001Z</time></trkpt><trkpt lat="43.63010128247893" lon="11.275668694381999"><ele>161.0</ele><time>2026-03-28T16:00:02.001Z</time></trkpt><trkpt lat="43.62988552394827" lon="11.27586348376055"><ele>161.0</ele><time>2026-03-28T16:00:03.001Z</time></trkpt><trkpt lat="43.629692197389126" lon="11.276051032980059"><ele>161.0</ele><time>2026-03-28T16:00:04.001Z</time></trkpt><trkpt lat="43.629520841707006" lon="11.27627166402565"><ele>162.0</ele><time>2026-03-28T16:00:05.001Z</time></trkpt><trkpt lat="43.62936578413608" lon="11.276489554055411"><ele>163.0</ele><time>2026-03-28T16:00:06.001Z</time></trkpt><trkpt lat="43.629183441223944" lon="11.276664992220821"><ele>164.0</ele><time>2026-03-28T16:00:07.001Z</time></trkpt><trkpt lat="43.628971451727445" lon="11.276801225663563"><ele>164.0</ele><time>2026-03-28T16:00:08.001Z</time></trkpt><trkpt lat="43.628739657874824" lon="11.276915072926382"><ele>164.0</ele><time>2026-03-28T16:00:09.001Z</time></trkpt><trkpt lat="43.628501777734435" lon="11.277017585096052"><ele>163.0</ele><time>2026-03-28T16:00:10.001Z</time></trkpt><trkpt lat="43.62827168777988" lon="11.277125857831345"><ele>162.0</ele><time>2026-03-28T16:00:11.001Z</time></trkpt><trkpt lat="43.628036629770556" lon="11.27726483959938"><ele>162.0</ele><time>2026-03-28T16:00:12.001Z</time></trkpt><trkpt lat="43.62780503813846" lon="11.277418505244734"><ele>162.0</ele><time>2026-03-28T16:00:13.001Z</time></trkpt><trkpt lat="43.62758966224739" lon="11.277591447951108"><ele>162.0</ele><time>2026-03-28T16:00:14.001Z</time></trkpt><trkpt lat="43.62740693456345" lon="11.277761376839164"><ele>162.0</ele><time>2026-03-28T16:00:15.001Z</time></trkpt><trkpt lat="43.627245170889864" lon="11.277930212363499"><ele>162.0</ele><time>2026-03-28T16:00:16.001Z</time></trkpt><trkpt lat="43.62710053811784" lon="11.278109405651033"><ele>162.0</ele><time>2026-03-28T16:00:17.001Z</time></trkpt><trkpt lat="43.62695907896367" lon="11.278296156577305"><ele>162.0</ele><time>2026-03-28T16:00:18.001Z</time></trkpt><trkpt lat="43.62682997616124" lon="11.278484658920505"><ele>162.0</ele><time>2026-03-28T16:00:19.001Z</time></trkpt><trkpt lat="43.62670067561932" lon="11.278680232559047"><ele>162.0</ele><time>2026-03-28T16:00:20.001Z</time></trkpt><trkpt lat="43.62656854629043" lon="11.278875119129713"><ele>162.0</ele><time>2026-03-28T16:00:21.001Z</time></trkpt><trkpt lat="43.62643508635382" lon="11.27906885279978"><ele>162.0</ele><time>2026-03-28T16:00:22.001Z</time></trkpt><trkpt lat="43.62630682878339" lon="11.27926087630771"><ele>162.33333333333334</ele><time>2026-03-28T16:00:23.001Z</time></trkpt><trkpt lat="43.62618388360103" lon="11.279455426644232"><ele>162.66666666666669</ele><time>2026-03-28T16:00:24.001Z</time></trkpt><trkpt lat="43.62607162136433" lon="11.279655031679251"><ele>163.0</ele><time>2026-03-28T16:00:25.001Z</time></trkpt><trkpt lat="43.62597920499429" lon="11.279852505618178"><ele>163.33333333333334</ele><time>2026-03-28T16:00:26.001Z</time></trkpt><trkpt lat="43.62589452019359" lon="11.280053662844077"><ele>163.66666666666666</ele><time>2026-03-28T16:00:27.001Z</time></trkpt><trkpt lat="43.62582579003375" lon="11.280237324301897"><ele>164.0</ele><time>2026-03-28T16:00:28.001Z</time></trkpt><trkpt lat="43.62575609686639" lon="11.280402038530864"><ele>164.0</ele><time>2026-03-28T16:00:29.001Z</time></trkpt><trkpt lat="43.6256975595935" lon="11.280560471397067"><ele>164.0</ele><time>2026-03-28T16:00:30.001Z</time></trkpt><trkpt lat="43.62563700869173" lon="11.280701671336676"><ele>164.0</ele><time>2026-03-28T16:00:31.001Z</time></trkpt><trkpt lat="43.62558269476536" lon="11.280816391922391"><ele>164.0</ele><time>2026-03-28T16:00:32.001Z</time></trkpt><trkpt lat="43.625531480491205" lon="11.28093000088189"><ele>164.0</ele><time>2026-03-28T16:00:33.001Z</time></trkpt><trkpt lat="43.625480631595295" lon="11.28104040824817"><ele>164.0</ele><time>2026-03-28T16:00:34.001Z</time></trkpt><trkpt lat="43.62543201527366" lon="11.281150788036172"><ele>164.0</ele><time>2026-03-28T16:00:35.001Z</time></trkpt><trkpt lat="43.62538546162386" lon="11.281258256849656"><ele>164.0</ele><time>2026-03-28T16:00:36.001Z</time></trkpt><trkpt lat="43.62533661166836" lon="11.28137337026613"><ele>164.0</ele><time>2026-03-28T16:00:37.001Z</time></trkpt><trkpt lat="43.625288733663616" lon="11.281485635090945"><ele>164.0</ele><time>2026-03-28T16:00:38.001Z</time></trkpt><trkpt lat="43.62523762787527" lon="11.281597974939618"><ele>164.0</ele><time>2026-03-28T16:00:39.001Z</time></trkpt><trkpt lat="43.625182862038415" lon="11.281705550083949"><ele>164.0</ele><time>2026-03-28T16:00:40.001Z</time></trkpt><trkpt lat="43.62513610002874" lon="11.28182537516339"><ele>164.0</ele><time>2026-03-28T16:00:41.001Z</time></trkpt><trkpt lat="43.62508524200619" lon="11.281950820347351"><ele>164.0</ele><time>2026-03-28T16:00:42.001Z</time></trkpt><trkpt lat="43.62502403026673" lon="11.282075487286654"><ele>164.0</ele><time>2026-03-28T16:00:43.001Z</time></trkpt><trkpt lat="43.624972201234726" lon="11.28218704176313"><ele>164.39999999999998</ele><time>2026-03-28T16:00:44.001Z</time></trkpt><trkpt lat="43.62491789642092" lon="11.282313817999055"><ele>164.8</ele><time>2026-03-28T16:00:45.001Z</time></trkpt><trkpt lat="43.62486282750648" lon="11.282435988745203"><ele>165.2</ele><time>2026-03-28T16:00:46.001Z</time></trkpt><trkpt lat="43.62480323109322" lon="11.28256682894558"><ele>165.60000000000002</ele><time>2026-03-28T16:00:47.001Z</time></trkpt><trkpt lat="43.62474358446273" lon="11.282699280853157"><ele>166.0</ele><time>2026-03-28T16:00:48.001Z</time></trkpt><trkpt lat="43.62468107101437" lon="11.282832909807318"><ele>166.0</ele><time>2026-03-28T16:00:49.001Z</time></trkpt><trkpt lat="43.62461972176266" lon="11.282971171366093"><ele>166.0</ele><time>2026-03-28T16:00:50.001Z</time></trkpt><trkpt lat="43.62454809413213" lon="11.283127732321253"><ele>166.0</ele><time>2026-03-28T16:00:51.001Z</time></trkpt><trkpt lat="43.62447880035688" lon="11.283299077343381"><ele>166.0</ele><time>2026-03-28T16:00:52.001Z</time></trkpt><trkpt lat="43.62441027790916" lon="11.283469303592623"><ele>166.66666666666669</ele><time>2026-03-28T16:00:53.001Z</time></trkpt><trkpt lat="43.62433842081469" lon="11.283642891109322"><ele>167.33333333333334</ele><time>2026-03-28T16:00:54.001Z</time></trkpt><trkpt lat="43.62425629417819" lon="11.28382105551573"><ele>168.0</ele><time>2026-03-28T16:00:55.001Z</time></trkpt><trkpt lat="43.62417147794793" lon="11.284014370670574"><ele>169.33333333333334</ele><time>2026-03-28T16:00:56.001Z</time></trkpt><trkpt lat="43.6240819906737" lon="11.284200210725238"><ele>170.66666666666669</ele><time>2026-03-28T16:00:57.001Z</time></trkpt><trkpt lat="43.623970788192985" lon="11.284367145981799"><ele>172.0</ele><time>2026-03-28T16:00:58.001Z</time></trkpt><trkpt lat="43.62382439359037" lon="11.284498071448404"><ele>172.0</ele><time>2026-03-28T16:00:59.001Z</time></trkpt><trkpt lat="43.62364998276757" lon="11.284575722937378"><ele>172.0</ele><time>2026-03-28T16:01:00.001Z</time></trkpt><trkpt lat="43.62347702710412" lon="11.284679836204893"><ele>172.0</ele><time>2026-03-28T16:01:01.001Z</time></trkpt><trkpt lat="43.62330203549764" lon="11.284775904635836"><ele>173.0</ele><time>2026-03-28T16:01:02.001Z</time></trkpt><trkpt lat="43.623124657783265" lon="11.284940651911283"><ele>174.0</ele><time>2026-03-28T16:01:03.001Z</time></trkpt><trkpt lat="43.622950313315236" lon="11.285135731780443"><ele>175.0</ele><time>2026-03-28T16:01:04.001Z</time></trkpt><trkpt lat="43.622784164120034" lon="11.285329082929703"><ele>175.33333333333334</ele><time>2026-03-28T16:01:05.001Z</time></trkpt><trkpt lat="43.622623743603626" lon="11.285508465771752"><ele>175.66666666666666</ele><time>2026-03-28T16:01:06Z</time></trkpt><trkpt lat="43.62247158030231" lon="11.285671480371288"><ele>176.0</ele><time>2026-03-28T16:01:07Z</time></trkpt><trkpt lat="43.622328544878236" lon="11.285807731552351"><ele>176.0</ele><time>2026-03-28T16:01:08Z</time></trkpt><trkpt lat="43.622183540748225" lon="11.285899747688955"><ele>176.0</ele><time>2026-03-28T16:01:09Z</time></trkpt><trkpt lat="43.6220334070161" lon="11.285953772410164"><ele>176.0</ele><time>2026-03-28T16:01:10Z</time></trkpt><trkpt lat="43.62188412366885" lon="11.285987785823071"><ele>174.75</ele><time>2026-03-28T16:01:11Z</time></trkpt><trkpt lat="43.621741113414586" lon="11.28602590611041"><ele>173.5</ele><time>2026-03-28T16:01:12Z</time></trkpt><trkpt lat="43.62159798420433" lon="11.286066013371626"><ele>172.25</ele><time>2026-03-28T16:01:13Z</time></trkpt><trkpt lat="43.62145557503631" lon="11.286067556585204"><ele>171.0</ele><time>2026-03-28T16:01:14Z</time></trkpt><trkpt lat="43.62130227025503" lon="11.286086416004405"><ele>171.33333333333334</ele><time>2026-03-28T16:01:15Z</time></trkpt><trkpt lat="43.62114217373482" lon="11.286158541271599"><ele>171.66666666666669</ele><time>2026-03-28T16:01:16Z</time></trkpt><trkpt lat="43.62096553538362" lon="11.286179498954901"><ele>172.0</ele><time>2026-03-28T16:01:17Z</time></trkpt><trkpt lat="43.62077972558493" lon="11.286187956699909"><ele>172.0</ele><time>2026-03-28T16:01:18Z</time></trkpt><trkpt lat="43.62060992863321" lon="11.286219986837093"><ele>172.0</ele><time>2026-03-28T16:01:19Z</time></trkpt><trkpt lat="43.62045699966344" lon="11.286296011330492"><ele>172.0</ele><time>2026-03-28T16:01:20Z</time></trkpt><trkpt lat="43.62032374793035" lon="11.28641502151715"><ele>173.33333333333334</ele><time>2026-03-28T16:01:21Z</time></trkpt><trkpt lat="43.620201887594185" lon="11.286575789945227"><ele>174.66666666666666</ele><time>2026-03-28T16:01:22Z</time></trkpt><trkpt lat="43.62008767135721" lon="11.28676638649896"><ele>176.0</ele><time>2026-03-28T16:01:23Z</time></trkpt><trkpt lat="43.619969809137565" lon="11.286982330269085"><ele>176.0</ele><time>2026-03-28T16:01:24Z</time></trkpt><trkpt lat="43.619851875906306" lon="11.287216664608398"><ele>176.0</ele><time>2026-03-28T16:01:25Z</time></trkpt><trkpt lat="43.61972605113852" lon="11.287469263901857"><ele>176.0</ele><time>2026-03-28T16:01:26Z</time></trkpt><trkpt lat="43.61959801286554" lon="11.287736147712947"><ele>175.0</ele><time>2026-03-28T16:01:27Z</time></trkpt><trkpt lat="43.61947096173669" lon="11.288017637262856"><ele>174.0</ele><time>2026-03-28T16:01:28Z</time></trkpt><trkpt lat="43.61935346638771" lon="11.28831355756056"><ele>176.5</ele><time>2026-03-28T16:01:29Z</time></trkpt><trkpt lat="43.61924856021754" lon="11.288629234706795"><ele>179.0</ele><time>2026-03-28T16:01:30Z</time></trkpt><trkpt lat="43.61916136189971" lon="11.288957705823753"><ele>182.0</ele><time>2026-03-28T16:01:31Z</time></trkpt><trkpt lat="43.6190860301362" lon="11.289303255925228"><ele>185.0</ele><time>2026-03-28T16:01:32Z</time></trkpt><trkpt lat="43.619019316523186" lon="11.28965884334674"><ele>187.0</ele><time>2026-03-28T16:01:33Z</time></trkpt><trkpt lat="43.6189537913252" lon="11.29002723242265"><ele>189.0</ele><time>2026-03-28T16:01:34Z</time></trkpt><trkpt lat="43.61888993302005" lon="11.290371490070536"><ele>191.0</ele><time>2026-03-28T16:01:35Z</time></trkpt><trkpt lat="43.61882387293736" lon="11.290688908381838"><ele>193.0</ele><time>2026-03-28T16:01:36Z</time></trkpt><trkpt lat="43.61875997410498" lon="11.290990598356117"><ele>193.0</ele><time>2026-03-28T16:01:37Z</time></trkpt><trkpt lat="43.6186933729849" lon="11.291295564227978"><ele>193.0</ele><time>2026-03-28T16:01:38Z</time></trkpt><trkpt lat="43.61862416464584" lon="11.291591741394578"><ele>191.0</ele><time>2026-03-28T16:01:39Z</time></trkpt><trkpt lat="43.61856036878302" lon="11.291865034352409"><ele>189.0</ele><time>2026-03-28T16:01:40Z</time></trkpt><trkpt lat="43.618512749070874" lon="11.292110324928498"><ele>187.0</ele><time>2026-03-28T16:01:41Z</time></trkpt><trkpt lat="43.61848262061594" lon="11.292341125509104"><ele>187.0</ele><time>2026-03-28T16:01:42Z</time></trkpt><trkpt lat="43.61848389007373" lon="11.292568311400462"><ele>187.0</ele><time>2026-03-28T16:01:43Z</time></trkpt><trkpt lat="43.61851933615111" lon="11.292801201163833"><ele>187.0</ele><time>2026-03-28T16:01:44Z</time></trkpt><trkpt lat="43.61859060209999" lon="11.293044683229729"><ele>189.66666666666669</ele><time>2026-03-28T16:01:45Z</time></trkpt><trkpt lat="43.61868815726594" lon="11.293300408419364"><ele>192.33333333333334</ele><time>2026-03-28T16:01:46Z</time></trkpt><trkpt lat="43.61879371678172" lon="11.293566170714715"><ele>195.0</ele><time>2026-03-28T16:01:47.001Z</time></trkpt><trkpt lat="43.61890987498098" lon="11.29384524562631"><ele>194.66666666666669</ele><time>2026-03-28T16:01:48.001Z</time></trkpt><trkpt lat="43.619018218184266" lon="11.2941156812593"><ele>194.33333333333334</ele><time>2026-03-28T16:01:49.001Z</time></trkpt><trkpt lat="43.619116269751174" lon="11.294334438968807"><ele>194.0</ele><time>2026-03-28T16:01:50.001Z</time></trkpt><trkpt lat="43.61923430327295" lon="11.29451332831104"><ele>194.0</ele><time>2026-03-28T16:01:51.001Z</time></trkpt><trkpt lat="43.61939236729602" lon="11.294664517579932"><ele>194.0</ele><time>2026-03-28T16:01:52.001Z</time></trkpt><trkpt lat="43.61957282594891" lon="11.29479843716727"><ele>194.0</ele><time>2026-03-28T16:01:53.001Z</time></trkpt><trkpt lat="43.619711472761686" lon="11.294926288428213"><ele>195.75</ele><time>2026-03-28T16:01:54.001Z</time></trkpt><trkpt lat="43.61980719297409" lon="11.295060086626988"><ele>197.5</ele><time>2026-03-28T16:01:55.001Z</time></trkpt><trkpt lat="43.619878565230756" lon="11.295213015370715"><ele>199.25</ele><time>2026-03-28T16:01:56.001Z</time></trkpt><trkpt lat="43.61991404050891" lon="11.295430764098397"><ele>201.0</ele><time>2026-03-28T16:01:57.001Z</time></trkpt><trkpt lat="43.619995776198444" lon="11.295655597625228"><ele>201.66666666666669</ele><time>2026-03-28T16:01:58.001Z</time></trkpt><trkpt lat="43.620089834743155" lon="11.295893429071981"><ele>202.33333333333334</ele><time>2026-03-28T16:01:59.001Z</time></trkpt><trkpt lat="43.620175922137506" lon="11.296149606139753"><ele>203.0</ele><time>2026-03-28T16:02:00.001Z</time></trkpt><trkpt lat="43.62023100933343" lon="11.296412252923526"><ele>204.33333333333334</ele><time>2026-03-28T16:02:01.001Z</time></trkpt><trkpt lat="43.620275656194046" lon="11.296681260927484"><ele>205.66666666666669</ele><time>2026-03-28T16:02:02.001Z</time></trkpt><trkpt lat="43.62032075021335" lon="11.296889103613049"><ele>207.0</ele><time>2026-03-28T16:02:03.001Z</time></trkpt><trkpt lat="43.620344693645706" lon="11.297041716267566"><ele>207.6</ele><time>2026-03-28T16:02:04.001Z</time></trkpt><trkpt lat="43.620354706433346" lon="11.29717616143803"><ele>208.2</ele><time>2026-03-28T16:02:05.001Z</time></trkpt><trkpt lat="43.620325484541304" lon="11.297280175610657"><ele>208.8</ele><time>2026-03-28T16:02:06.001Z</time></trkpt><trkpt lat="43.620223222403816" lon="11.297324136425521"><ele>209.4</ele><time>2026-03-28T16:02:07.001Z</time></trkpt><trkpt lat="43.62012660779269" lon="11.297404147766487"><ele>210.0</ele><time>2026-03-28T16:02:08.001Z</time></trkpt><trkpt lat="43.619996300457814" lon="11.29736863966476"><ele>210.0</ele><time>2026-03-28T16:02:09.001Z</time></trkpt><trkpt lat="43.61984555948369" lon="11.297263975880186"><ele>210.0</ele><time>2026-03-28T16:02:10.001Z</time></trkpt><trkpt lat="43.61971742676812" lon="11.297127891228078"><ele>210.0</ele><time>2026-03-28T16:02:11.001Z</time></trkpt><trkpt lat="43.61967179313336" lon="11.296928851174071"><ele>209.25</ele><time>2026-03-28T16:02:12.001Z</time></trkpt><trkpt lat="43.619586569424385" lon="11.296754541783693"><ele>208.5</ele><time>2026-03-28T16:02:13.001Z</time></trkpt><trkpt lat="43.61951250713241" lon="11.296608205462373"><ele>207.75</ele><time>2026-03-28T16:02:14.001Z</time></trkpt><trkpt lat="43.6193856535016" lon="11.296531039696772"><ele>207.0</ele><time>2026-03-28T16:02:15.001Z</time></trkpt><trkpt lat="43.619217883331714" lon="11.29650154028553"><ele>209.33333333333331</ele><time>2026-03-28T16:02:16.001Z</time></trkpt><trkpt lat="43.61903241318744" lon="11.296481019379968"><ele>211.66666666666666</ele><time>2026-03-28T16:02:17.001Z</time></trkpt><trkpt lat="43.618830683426076" lon="11.296462396336423"><ele>214.0</ele><time>2026-03-28T16:02:18.001Z</time></trkpt><trkpt lat="43.61864155073115" lon="11.296344415456282"><ele>214.0</ele><time>2026-03-28T16:02:19.001Z</time></trkpt><trkpt lat="43.61846174635379" lon="11.296191986547274"><ele>214.0</ele><time>2026-03-28T16:02:20.001Z</time></trkpt><trkpt lat="43.61828266921848" lon="11.296056550416038"><ele>214.0</ele><time>2026-03-28T16:02:21.001Z</time></trkpt><trkpt lat="43.6181477432432" lon="11.295950423987222"><ele>214.0</ele><time>2026-03-28T16:02:22.001Z</time></trkpt><trkpt lat="43.61801976053339" lon="11.29588170738726"><ele>214.0</ele><time>2026-03-28T16:02:23.001Z</time></trkpt><trkpt lat="43.61786318332632" lon="11.295882696328535"><ele>214.0</ele><time>2026-03-28T16:02:24.001Z</time></trkpt><trkpt lat="43.61767017925288" lon="11.295912946461199"><ele>217.0</ele><time>2026-03-28T16:02:25.001Z</time></trkpt><trkpt lat="43.61745283720408" lon="11.295982856756767"><ele>220.0</ele><time>2026-03-28T16:02:26.001Z</time></trkpt><trkpt lat="43.617228031213116" lon="11.296037217824164"><ele>220.0</ele><time>2026-03-28T16:02:27.001Z</time></trkpt><trkpt lat="43.617014831749024" lon="11.296079146250936"><ele>220.0</ele><time>2026-03-28T16:02:28.001Z</time></trkpt><trkpt lat="43.616834083734744" lon="11.296128333103505"><ele>220.0</ele><time>2026-03-28T16:02:29.001Z</time></trkpt><trkpt lat="43.61667031805404" lon="11.29620718791583"><ele>219.66666666666666</ele><time>2026-03-28T16:02:30.001Z</time></trkpt><trkpt lat="43.61651794066406" lon="11.296354983476036"><ele>219.33333333333331</ele><time>2026-03-28T16:02:31.001Z</time></trkpt><trkpt lat="43.61637658400217" lon="11.296581325893541"><ele>219.0</ele><time>2026-03-28T16:02:32.001Z</time></trkpt><trkpt lat="43.616216197764906" lon="11.296812559345902"><ele>220.33333333333331</ele><time>2026-03-28T16:02:33.001Z</time></trkpt><trkpt lat="43.61604898721949" lon="11.297038686663594"><ele>221.66666666666666</ele><time>2026-03-28T16:02:34.001Z</time></trkpt><trkpt lat="43.615884518572614" lon="11.297191547876306"><ele>223.0</ele><time>2026-03-28T16:02:35.001Z</time></trkpt><trkpt lat="43.61571572462594" lon="11.297287522070725"><ele>227.0</ele><time>2026-03-28T16:02:36.001Z</time></trkpt><trkpt lat="43.61551086735361" lon="11.297372134944968"><ele>231.0</ele><time>2026-03-28T16:02:37.001Z</time></trkpt><trkpt lat="43.615294092378164" lon="11.29747513774926"><ele>235.0</ele><time>2026-03-28T16:02:38.001Z</time></trkpt><trkpt lat="43.615061524841394" lon="11.29755668651981"><ele>235.0</ele><time>2026-03-28T16:02:39.001Z</time></trkpt><trkpt lat="43.61482040646295" lon="11.297644821362626"><ele>235.0</ele><time>2026-03-28T16:02:40.001Z</time></trkpt><trkpt lat="43.614572498308284" lon="11.29773886976781"><ele>235.5</ele><time>2026-03-28T16:02:41.001Z</time></trkpt><trkpt lat="43.61432725727085" lon="11.297818664409277"><ele>236.0</ele><time>2026-03-28T16:02:42.001Z</time></trkpt><trkpt lat="43.61412436705858" lon="11.297871352292063"><ele>236.0</ele><time>2026-03-28T16:02:43.001Z</time></trkpt><trkpt lat="43.61397155645889" lon="11.297892594790783"><ele>236.0</ele><time>2026-03-28T16:02:44.001Z</time></trkpt><trkpt lat="43.613852549992096" lon="11.297900315128814"><ele>236.0</ele><time>2026-03-28T16:02:45.001Z</time></trkpt><trkpt lat="43.61375777455079" lon="11.297886934977614"><ele>236.0</ele><time>2026-03-28T16:02:46.001Z</time></trkpt><trkpt lat="43.613671880313746" lon="11.297866234186822"><ele>237.20000000000002</ele><time>2026-03-28T16:02:47.001Z</time></trkpt><trkpt lat="43.61358263381628" lon="11.297832044154564"><ele>238.40000000000003</ele><time>2026-03-28T16:02:48.001Z</time></trkpt><trkpt lat="43.61347334660348" lon="11.297783312724874"><ele>239.6</ele><time>2026-03-28T16:02:49.001Z</time></trkpt><trkpt lat="43.613355288635404" lon="11.2977341205242"><ele>240.8</ele><time>2026-03-28T16:02:50.001Z</time></trkpt><trkpt lat="43.6132435628298" lon="11.29775553002902"><ele>242.0</ele><time>2026-03-28T16:02:51.001Z</time></trkpt><trkpt lat="43.613142462373254" lon="11.29782711882415"><ele>242.0</ele><time>2026-03-28T16:02:52.001Z</time></trkpt><trkpt lat="43.61306185992181" lon="11.297933214069976"><ele>242.0</ele><time>2026-03-28T16:02:53.001Z</time></trkpt><trkpt lat="43.613016882980965" lon="11.29808659730005"><ele>242.0</ele><time>2026-03-28T16:02:54.001Z</time></trkpt><trkpt lat="43.613009735068076" lon="11.298262120050229"><ele>242.0</ele><time>2026-03-28T16:02:55.001Z</time></trkpt><trkpt lat="43.61304748364953" lon="11.29842470681411"><ele>241.33333333333334</ele><time>2026-03-28T16:02:56.001Z</time></trkpt><trkpt lat="43.61312348099678" lon="11.298590242114562"><ele>240.66666666666669</ele><time>2026-03-28T16:02:57.001Z</time></trkpt><trkpt lat="43.61325502473213" lon="11.298788273574928"><ele>240.0</ele><time>2026-03-28T16:02:58.001Z</time></trkpt><trkpt lat="43.6133855033941" lon="11.299021818148756"><ele>240.0</ele><time>2026-03-28T16:02:59.001Z</time></trkpt><trkpt lat="43.613499450010586" lon="11.2992393503125"><ele>240.0</ele><time>2026-03-28T16:03:00.001Z</time></trkpt><trkpt lat="43.61359745735635" lon="11.299409728790332"><ele>240.0</ele><time>2026-03-28T16:03:01.001Z</time></trkpt><trkpt lat="43.6137159028763" lon="11.299567802338533"><ele>239.33333333333331</ele><time>2026-03-28T16:03:02Z</time></trkpt><trkpt lat="43.61389441931" lon="11.299693284187075"><ele>238.66666666666666</ele><time>2026-03-28T16:03:03Z</time></trkpt><trkpt lat="43.61407480621841" lon="11.299792208879085"><ele>238.0</ele><time>2026-03-28T16:03:04Z</time></trkpt><trkpt lat="43.61420492138416" lon="11.299888306656706"><ele>238.0</ele><time>2026-03-28T16:03:05Z</time></trkpt><trkpt lat="43.61429793101604" lon="11.299933982251874"><ele>238.0</ele><time>2026-03-28T16:03:06Z</time></trkpt><trkpt lat="43.61434575646895" lon="11.300018067588091"><ele>238.0</ele><time>2026-03-28T16:03:07Z</time></trkpt><trkpt lat="43.614355021371765" lon="11.300147985411751"><ele>238.0</ele><time>2026-03-28T16:03:08Z</time></trkpt><trkpt lat="43.614311229014376" lon="11.300269658517868"><ele>238.0</ele><time>2026-03-28T16:03:09Z</time></trkpt><trkpt lat="43.61420673631109" lon="11.300337288670336"><ele>238.0</ele><time>2026-03-28T16:03:10Z</time></trkpt><trkpt lat="43.61407428101672" lon="11.300284672014941"><ele>238.0</ele><time>2026-03-28T16:03:11Z</time></trkpt><trkpt lat="43.613904710641705" lon="11.300171744697169"><ele>238.0</ele><time>2026-03-28T16:03:12Z</time></trkpt><trkpt lat="43.61369525217389" lon="11.30006312324018"><ele>233.0</ele><time>2026-03-28T16:03:13Z</time></trkpt><trkpt lat="43.613480804496035" lon="11.299940575310364"><ele>228.0</ele><time>2026-03-28T16:03:14Z</time></trkpt><trkpt lat="43.613239823251384" lon="11.299808317356714"><ele>228.5</ele><time>2026-03-28T16:03:15Z</time></trkpt><trkpt lat="43.61297591682957" lon="11.29966581885246"><ele>229.0</ele><time>2026-03-28T16:03:16Z</time></trkpt><trkpt lat="43.61273520672319" lon="11.299543185408114"><ele>229.0</ele><time>2026-03-28T16:03:17Z</time></trkpt><trkpt lat="43.61251384761356" lon="11.29943386737526"><ele>229.0</ele><time>2026-03-28T16:03:18Z</time></trkpt><trkpt lat="43.61233179724314" lon="11.299345345267572"><ele>229.0</ele><time>2026-03-28T16:03:19Z</time></trkpt><trkpt lat="43.61218943847319" lon="11.299280680598395"><ele>229.0</ele><time>2026-03-28T16:03:20Z</time></trkpt><trkpt lat="43.61206537840283" lon="11.299240838789784"><ele>229.0</ele><time>2026-03-28T16:03:21Z</time></trkpt><trkpt lat="43.61192252781297" lon="11.299238671336227"><ele>229.0</ele><time>2026-03-28T16:03:22Z</time></trkpt><trkpt lat="43.61176394979849" lon="11.299319456022882"><ele>229.0</ele><time>2026-03-28T16:03:23Z</time></trkpt><trkpt lat="43.61161724861103" lon="11.299441976524031"><ele>228.5</ele><time>2026-03-28T16:03:24Z</time></trkpt><trkpt lat="43.61149263526709" lon="11.299522695811707"><ele>228.0</ele><time>2026-03-28T16:03:25Z</time></trkpt><trkpt lat="43.611354749138" lon="11.299545899818812"><ele>227.5</ele><time>2026-03-28T16:03:26Z</time></trkpt><trkpt lat="43.61120894230553" lon="11.299489347406181"><ele>227.0</ele><time>2026-03-28T16:03:27Z</time></trkpt><trkpt lat="43.61106203728177" lon="11.299396150544405"><ele>225.75</ele><time>2026-03-28T16:03:28Z</time></trkpt><trkpt lat="43.610920319871056" lon="11.299368384616185"><ele>224.5</ele><time>2026-03-28T16:03:29Z</time></trkpt><trkpt lat="43.61077733810211" lon="11.299398055729622"><ele>223.25</ele><time>2026-03-28T16:03:30Z</time></trkpt><trkpt lat="43.610636270762484" lon="11.299480147395105"><ele>222.0</ele><time>2026-03-28T16:03:31Z</time></trkpt><trkpt lat="43.610483607813016" lon="11.299587478562602"><ele>222.33333333333331</ele><time>2026-03-28T16:03:32Z</time></trkpt><trkpt lat="43.61032212969509" lon="11.29968918512372"><ele>222.66666666666666</ele><time>2026-03-28T16:03:33Z</time></trkpt><trkpt lat="43.61016083349491" lon="11.299791260227993"><ele>223.0</ele><time>2026-03-28T16:03:34Z</time></trkpt><trkpt lat="43.61000284615936" lon="11.299871687202888"><ele>219.0</ele><time>2026-03-28T16:03:35Z</time></trkpt><trkpt lat="43.60984955021611" lon="11.299923874351094"><ele>215.0</ele><time>2026-03-28T16:03:36Z</time></trkpt><trkpt lat="43.60968975926488" lon="11.299931184236447"><ele>211.0</ele><time>2026-03-28T16:03:37Z</time></trkpt><trkpt lat="43.60951420685564" lon="11.299896043168069"><ele>212.33333333333331</ele><time>2026-03-28T16:03:38Z</time></trkpt><trkpt lat="43.60932647400126" lon="11.299802870082594"><ele>213.66666666666669</ele><time>2026-03-28T16:03:39Z</time></trkpt><trkpt lat="43.60915066778546" lon="11.299749250718548"><ele>215.0</ele><time>2026-03-28T16:03:40.001Z</time></trkpt><trkpt lat="43.60901132663597" lon="11.299697838325395"><ele>215.0</ele><time>2026-03-28T16:03:41.001Z</time></trkpt><trkpt lat="43.60889882081476" lon="11.299679826915526"><ele>215.0</ele><time>2026-03-28T16:03:42.001Z</time></trkpt><trkpt lat="43.6087908303232" lon="11.299724594748167"><ele>215.0</ele><time>2026-03-28T16:03:43.001Z</time></trkpt><trkpt lat="43.60869538305606" lon="11.299824941377706"><ele>215.0</ele><time>2026-03-28T16:03:44.001Z</time></trkpt><trkpt lat="43.60859999827246" lon="11.299984596112118"><ele>212.66666666666669</ele><time>2026-03-28T16:03:45.001Z</time></trkpt><trkpt lat="43.608508448990214" lon="11.300190265880646"><ele>210.33333333333331</ele><time>2026-03-28T16:03:46.001Z</time></trkpt><trkpt lat="43.60838948320761" lon="11.300374404518868"><ele>208.0</ele><time>2026-03-28T16:03:47.001Z</time></trkpt><trkpt lat="43.608288545381825" lon="11.300592903461155"><ele>208.0</ele><time>2026-03-28T16:03:48.001Z</time></trkpt><trkpt lat="43.60819925389886" lon="11.300783654631804"><ele>208.0</ele><time>2026-03-28T16:03:49.001Z</time></trkpt><trkpt lat="43.608120157909084" lon="11.30098796936931"><ele>208.0</ele><time>2026-03-28T16:03:50.001Z</time></trkpt><trkpt lat="43.608052506362505" lon="11.301198001933903"><ele>208.0</ele><time>2026-03-28T16:03:51.001Z</time></trkpt><trkpt lat="43.6079865553685" lon="11.301408973986879"><ele>208.0</ele><time>2026-03-28T16:03:52.001Z</time></trkpt><trkpt lat="43.607937545563686" lon="11.301632650755042"><ele>208.0</ele><time>2026-03-28T16:03:53.001Z</time></trkpt><trkpt lat="43.60791589706867" lon="11.301862954046232"><ele>207.5</ele><time>2026-03-28T16:03:54.001Z</time></trkpt><trkpt lat="43.6078914436293" lon="11.302066142833553"><ele>207.0</ele><time>2026-03-28T16:03:55.001Z</time></trkpt><trkpt lat="43.60787664224096" lon="11.302263866783974"><ele>206.5</ele><time>2026-03-28T16:03:56.001Z</time></trkpt><trkpt lat="43.60784246445426" lon="11.302449362887426"><ele>206.0</ele><time>2026-03-28T16:03:57.001Z</time></trkpt><trkpt lat="43.60776716776058" lon="11.302624081661838"><ele>206.0</ele><time>2026-03-28T16:03:58.001Z</time></trkpt><trkpt lat="43.60768009240621" lon="11.302792212339405"><ele>206.0</ele><time>2026-03-28T16:03:59.001Z</time></trkpt><trkpt lat="43.60758949084722" lon="11.302961981979383"><ele>206.0</ele><time>2026-03-28T16:04:00.001Z</time></trkpt><trkpt lat="43.60750058916627" lon="11.303136220038578"><ele>207.0</ele><time>2026-03-28T16:04:01.001Z</time></trkpt><trkpt lat="43.6074086915884" lon="11.303311636724935"><ele>208.0</ele><time>2026-03-28T16:04:02.001Z</time></trkpt><trkpt lat="43.60731754750583" lon="11.303491287147525"><ele>209.0</ele><time>2026-03-28T16:04:03.001Z</time></trkpt><trkpt lat="43.60722224680792" lon="11.303671904293351"><ele>209.0</ele><time>2026-03-28T16:04:04.001Z</time></trkpt><trkpt lat="43.60713352083966" lon="11.303851602923983"><ele>209.0</ele><time>2026-03-28T16:04:05.001Z</time></trkpt><trkpt lat="43.60704054119413" lon="11.304027008647912"><ele>209.0</ele><time>2026-03-28T16:04:06.001Z</time></trkpt><trkpt lat="43.60694779476096" lon="11.304197713931407"><ele>209.0</ele><time>2026-03-28T16:04:07.001Z</time></trkpt><trkpt lat="43.60685101838091" lon="11.304366618147814"><ele>209.0</ele><time>2026-03-28T16:04:08.001Z</time></trkpt><trkpt lat="43.606752647397094" lon="11.304528550293849"><ele>209.0</ele><time>2026-03-28T16:04:09.001Z</time></trkpt><trkpt lat="43.60662934875536" lon="11.304663781451378"><ele>211.33333333333334</ele><time>2026-03-28T16:04:10.001Z</time></trkpt><trkpt lat="43.6064937755756" lon="11.304784189940117"><ele>213.66666666666669</ele><time>2026-03-28T16:04:11.001Z</time></trkpt><trkpt lat="43.606353564436525" lon="11.304903410405945"><ele>216.0</ele><time>2026-03-28T16:04:12.001Z</time></trkpt><trkpt lat="43.60620947919116" lon="11.305021229756376"><ele>213.33333333333331</ele><time>2026-03-28T16:04:13.001Z</time></trkpt><trkpt lat="43.606063689496075" lon="11.305148241233349"><ele>210.66666666666666</ele><time>2026-03-28T16:04:14.001Z</time></trkpt><trkpt lat="43.6059215257788" lon="11.305283023422684"><ele>208.0</ele><time>2026-03-28T16:04:15.001Z</time></trkpt><trkpt lat="43.60576878507593" lon="11.305412094208348"><ele>208.0</ele><time>2026-03-28T16:04:16.001Z</time></trkpt><trkpt lat="43.605614170894356" lon="11.305541339973201"><ele>208.0</ele><time>2026-03-28T16:04:17.001Z</time></trkpt><trkpt lat="43.605453643620926" lon="11.305673949507964"><ele>208.0</ele><time>2026-03-28T16:04:18.001Z</time></trkpt><trkpt lat="43.605289852898515" lon="11.30581417430451"><ele>208.0</ele><time>2026-03-28T16:04:19.001Z</time></trkpt><trkpt lat="43.60511337410618" lon="11.305965836446509"><ele>208.0</ele><time>2026-03-28T16:04:20.001Z</time></trkpt><trkpt lat="43.604930642052494" lon="11.306119089367936"><ele>208.0</ele><time>2026-03-28T16:04:21.001Z</time></trkpt><trkpt lat="43.60474975489305" lon="11.306276884725682"><ele>208.33333333333331</ele><time>2026-03-28T16:04:22.001Z</time></trkpt><trkpt lat="43.60457166719816" lon="11.306426106982114"><ele>208.66666666666669</ele><time>2026-03-28T16:04:23.001Z</time></trkpt><trkpt lat="43.60442275603092" lon="11.306558016354575"><ele>209.0</ele><time>2026-03-28T16:04:24.001Z</time></trkpt><trkpt lat="43.60430187462887" lon="11.306696125478679"><ele>209.0</ele><time>2026-03-28T16:04:25.001Z</time></trkpt><trkpt lat="43.60421987098649" lon="11.30685834053226"><ele>209.0</ele><time>2026-03-28T16:04:26.001Z</time></trkpt><trkpt lat="43.60417247163429" lon="11.307070267604216"><ele>209.0</ele><time>2026-03-28T16:04:27.001Z</time></trkpt><trkpt lat="43.60415520088274" lon="11.307323905968484"><ele>210.66666666666669</ele><time>2026-03-28T16:04:28.001Z</time></trkpt><trkpt lat="43.604153218895256" lon="11.307583049310193"><ele>212.33333333333331</ele><time>2026-03-28T16:04:29.001Z</time></trkpt><trkpt lat="43.60415819020704" lon="11.307852610567716"><ele>214.0</ele><time>2026-03-28T16:04:30.001Z</time></trkpt><trkpt lat="43.60415219853454" lon="11.308125705684759"><ele>214.66666666666666</ele><time>2026-03-28T16:04:31.001Z</time></trkpt><trkpt lat="43.60413122831955" lon="11.308358771566771"><ele>215.33333333333331</ele><time>2026-03-28T16:04:32.001Z</time></trkpt><trkpt lat="43.60409242240124" lon="11.308560008604447"><ele>216.0</ele><time>2026-03-28T16:04:33.001Z</time></trkpt><trkpt lat="43.60403100332946" lon="11.308756781092084"><ele>216.0</ele><time>2026-03-28T16:04:34.001Z</time></trkpt><trkpt lat="43.6039439297865" lon="11.308942546971998"><ele>216.0</ele><time>2026-03-28T16:04:35.001Z</time></trkpt><trkpt lat="43.60383519588232" lon="11.309086904956661"><ele>216.0</ele><time>2026-03-28T16:04:36.001Z</time></trkpt><trkpt lat="43.60370716910058" lon="11.30921436474743"><ele>215.0</ele><time>2026-03-28T16:04:37.001Z</time></trkpt><trkpt lat="43.60355573841812" lon="11.30933204662738"><ele>214.0</ele><time>2026-03-28T16:04:38.001Z</time></trkpt><trkpt lat="43.603388376004744" lon="11.309435690872254"><ele>213.0</ele><time>2026-03-28T16:04:39.001Z</time></trkpt><trkpt lat="43.60320126982285" lon="11.30954118307907"><ele>213.0</ele><time>2026-03-28T16:04:40.001Z</time></trkpt><trkpt lat="43.60300160448559" lon="11.309651878403535"><ele>213.0</ele><time>2026-03-28T16:04:41.001Z</time></trkpt><trkpt lat="43.602794904768345" lon="11.309763058525109"><ele>213.0</ele><time>2026-03-28T16:04:42.001Z</time></trkpt><trkpt lat="43.60259258762889" lon="11.30987052558519"><ele>213.33333333333331</ele><time>2026-03-28T16:04:43.001Z</time></trkpt><trkpt lat="43.60238739520015" lon="11.309980063851835"><ele>213.66666666666666</ele><time>2026-03-28T16:04:44.001Z</time></trkpt><trkpt lat="43.60217908869973" lon="11.310096635100116"><ele>214.0</ele><time>2026-03-28T16:04:45.001Z</time></trkpt><trkpt lat="43.60196906242133" lon="11.310216202784767"><ele>213.0</ele><time>2026-03-28T16:04:46.001Z</time></trkpt><trkpt lat="43.60175780677816" lon="11.310336185606115"><ele>212.0</ele><time>2026-03-28T16:04:47.001Z</time></trkpt><trkpt lat="43.601541080630355" lon="11.310455294507712"><ele>212.0</ele><time>2026-03-28T16:04:48.001Z</time></trkpt><trkpt lat="43.60133598369501" lon="11.310569483336048"><ele>212.0</ele><time>2026-03-28T16:04:49.001Z</time></trkpt><trkpt lat="43.60115210873224" lon="11.31068503943298"><ele>212.0</ele><time>2026-03-28T16:04:50.001Z</time></trkpt><trkpt lat="43.600976402026696" lon="11.310808680161161"><ele>213.0</ele><time>2026-03-28T16:04:51.001Z</time></trkpt><trkpt lat="43.60082388552061" lon="11.310964762248084"><ele>214.0</ele><time>2026-03-28T16:04:52.001Z</time></trkpt><trkpt lat="43.600689317458" lon="11.311161108348113"><ele>215.0</ele><time>2026-03-28T16:04:53.001Z</time></trkpt><trkpt lat="43.600560389598776" lon="11.311376725363388"><ele>214.33333333333334</ele><time>2026-03-28T16:04:54.001Z</time></trkpt><trkpt lat="43.600433016268056" lon="11.311612804996349"><ele>213.66666666666669</ele><time>2026-03-28T16:04:55.001Z</time></trkpt><trkpt lat="43.600303356435454" lon="11.311861865056054"><ele>213.0</ele><time>2026-03-28T16:04:56.001Z</time></trkpt><trkpt lat="43.60017107076975" lon="11.31210884268044"><ele>213.0</ele><time>2026-03-28T16:04:57.001Z</time></trkpt><trkpt lat="43.60003970160843" lon="11.312348098575473"><ele>213.0</ele><time>2026-03-28T16:04:58.001Z</time></trkpt><trkpt lat="43.59990592121174" lon="11.312585915098765"><ele>213.0</ele><time>2026-03-28T16:04:59.001Z</time></trkpt><trkpt lat="43.59977778141173" lon="11.312830259718377"><ele>213.0</ele><time>2026-03-28T16:05:00.001Z</time></trkpt><trkpt lat="43.59964704291008" lon="11.313068835223193"><ele>213.0</ele><time>2026-03-28T16:05:01.001Z</time></trkpt><trkpt lat="43.59951479837447" lon="11.313307683886462"><ele>213.0</ele><time>2026-03-28T16:05:02.001Z</time></trkpt><trkpt lat="43.59938343911993" lon="11.313544744907968"><ele>213.33333333333331</ele><time>2026-03-28T16:05:03.001Z</time></trkpt><trkpt lat="43.5992524334058" lon="11.31378201079486"><ele>213.66666666666666</ele><time>2026-03-28T16:05:04.001Z</time></trkpt><trkpt lat="43.59912187001551" lon="11.314015473786508"><ele>214.0</ele><time>2026-03-28T16:05:05.001Z</time></trkpt><trkpt lat="43.598994364871984" lon="11.31425680725484"><ele>214.66666666666666</ele><time>2026-03-28T16:05:06.001Z</time></trkpt><trkpt lat="43.59886629073119" lon="11.314495159300794"><ele>215.33333333333331</ele><time>2026-03-28T16:05:07.001Z</time></trkpt><trkpt lat="43.598737528310586" lon="11.314733398216855"><ele>216.0</ele><time>2026-03-28T16:05:08.001Z</time></trkpt><trkpt lat="43.59860720976182" lon="11.314970569574239"><ele>216.0</ele><time>2026-03-28T16:05:09.001Z</time></trkpt><trkpt lat="43.59847654456185" lon="11.315209042818594"><ele>216.0</ele><time>2026-03-28T16:05:10.001Z</time></trkpt><trkpt lat="43.59834502889343" lon="11.315449785337687"><ele>216.0</ele><time>2026-03-28T16:05:11.001Z</time></trkpt><trkpt lat="43.59821477669206" lon="11.315686931802722"><ele>217.33333333333331</ele><time>2026-03-28T16:05:12.001Z</time></trkpt><trkpt lat="43.59809133419109" lon="11.31590707672622"><ele>218.66666666666666</ele><time>2026-03-28T16:05:13.001Z</time></trkpt><trkpt lat="43.59797406824671" lon="11.31609544657966"><ele>220.0</ele><time>2026-03-28T16:05:14.001Z</time></trkpt><trkpt lat="43.597843781910065" lon="11.316223316967802"><ele>220.0</ele><time>2026-03-28T16:05:15.001Z</time></trkpt><trkpt lat="43.59771996893985" lon="11.316370894587523"><ele>220.0</ele><time>2026-03-28T16:05:16.001Z</time></trkpt><trkpt lat="43.597565690490875" lon="11.316435700248176"><ele>220.0</ele><time>2026-03-28T16:05:17.001Z</time></trkpt><trkpt lat="43.5974391561411" lon="11.31654013910025"><ele>220.0</ele><time>2026-03-28T16:05:18.001Z</time></trkpt><trkpt lat="43.59730091076375" lon="11.316608488444107"><ele>220.0</ele><time>2026-03-28T16:05:19.001Z</time></trkpt><trkpt lat="43.59718124353995" lon="11.316689145722702"><ele>220.0</ele><time>2026-03-28T16:05:20.001Z</time></trkpt><trkpt lat="43.597056013414786" lon="11.316766733179112"><ele>220.0</ele><time>2026-03-28T16:05:21Z</time></trkpt><trkpt lat="43.59693663275571" lon="11.316843720430857"><ele>219.5</ele><time>2026-03-28T16:05:22Z</time></trkpt><trkpt lat="43.596815886870814" lon="11.3168983274709"><ele>219.0</ele><time>2026-03-28T16:05:23Z</time></trkpt><trkpt lat="43.596682938847536" lon="11.316945315450429"><ele>218.5</ele><time>2026-03-28T16:05:24Z</time></trkpt><trkpt lat="43.596543884476645" lon="11.316942343155967"><ele>218.0</ele><time>2026-03-28T16:05:25Z</time></trkpt><trkpt lat="43.59639250386359" lon="11.316954059594947"><ele>218.0</ele><time>2026-03-28T16:05:26Z</time></trkpt><trkpt lat="43.59623329904528" lon="11.316898958505059"><ele>218.0</ele><time>2026-03-28T16:05:27Z</time></trkpt><trkpt lat="43.59607037597246" lon="11.316847717232886"><ele>218.0</ele><time>2026-03-28T16:05:28Z</time></trkpt><trkpt lat="43.59590502437772" lon="11.316813345915895"><ele>218.0</ele><time>2026-03-28T16:05:29Z</time></trkpt><trkpt lat="43.59576153193544" lon="11.316750638222752"><ele>218.0</ele><time>2026-03-28T16:05:30Z</time></trkpt><trkpt lat="43.59561977217282" lon="11.316702268083857"><ele>218.0</ele><time>2026-03-28T16:05:31Z</time></trkpt><trkpt lat="43.5954895635537" lon="11.316661527514519"><ele>218.0</ele><time>2026-03-28T16:05:32Z</time></trkpt><trkpt lat="43.59535846758733" lon="11.316634036224606"><ele>219.0</ele><time>2026-03-28T16:05:33Z</time></trkpt><trkpt lat="43.59523634683193" lon="11.316625794555943"><ele>220.0</ele><time>2026-03-28T16:05:34Z</time></trkpt><trkpt lat="43.59511676177351" lon="11.316634018481253"><ele>221.0</ele><time>2026-03-28T16:05:35Z</time></trkpt><trkpt lat="43.59499362783952" lon="11.316653243135653"><ele>222.0</ele><time>2026-03-28T16:05:36Z</time></trkpt><trkpt lat="43.5948556569928" lon="11.316667197994514"><ele>222.0</ele><time>2026-03-28T16:05:37Z</time></trkpt><trkpt lat="43.594717046546364" lon="11.316672171385065"><ele>222.0</ele><time>2026-03-28T16:05:38Z</time></trkpt><trkpt lat="43.59458052811027" lon="11.316636846337383"><ele>222.0</ele><time>2026-03-28T16:05:39Z</time></trkpt><trkpt lat="43.59445240174994" lon="11.316574134894156"><ele>222.0</ele><time>2026-03-28T16:05:40Z</time></trkpt><trkpt lat="43.59433851280308" lon="11.316503924314011"><ele>221.33333333333331</ele><time>2026-03-28T16:05:41Z</time></trkpt><trkpt lat="43.59422458094931" lon="11.316429650024308"><ele>220.66666666666666</ele><time>2026-03-28T16:05:42Z</time></trkpt><trkpt lat="43.59407765881384" lon="11.316313853213225"><ele>220.0</ele><time>2026-03-28T16:05:43Z</time></trkpt><trkpt lat="43.593920685975306" lon="11.316204850709974"><ele>220.0</ele><time>2026-03-28T16:05:44Z</time></trkpt><trkpt lat="43.59375592372335" lon="11.316110475309143"><ele>220.0</ele><time>2026-03-28T16:05:45Z</time></trkpt><trkpt lat="43.593605008061225" lon="11.315998147697366"><ele>220.0</ele><time>2026-03-28T16:05:46.001Z</time></trkpt><trkpt lat="43.59346485299262" lon="11.315908248161325"><ele>221.33333333333331</ele><time>2026-03-28T16:05:47.001Z</time></trkpt><trkpt lat="43.5933294950096" lon="11.315800342669624"><ele>222.66666666666669</ele><time>2026-03-28T16:05:48.001Z</time></trkpt><trkpt lat="43.593159321130194" lon="11.315707127769334"><ele>224.0</ele><time>2026-03-28T16:05:49.001Z</time></trkpt><trkpt lat="43.592973788084734" lon="11.315647178478882"><ele>223.0</ele><time>2026-03-28T16:05:50.001Z</time></trkpt><trkpt lat="43.592787935786454" lon="11.315559250705222"><ele>222.0</ele><time>2026-03-28T16:05:51.001Z</time></trkpt><trkpt lat="43.59259799097859" lon="11.315487193303412"><ele>221.0</ele><time>2026-03-28T16:05:52.001Z</time></trkpt><trkpt lat="43.59243422170097" lon="11.315386029347284"><ele>221.0</ele><time>2026-03-28T16:05:53.001Z</time></trkpt><trkpt lat="43.59230803268263" lon="11.315299718814634"><ele>221.0</ele><time>2026-03-28T16:05:54.001Z</time></trkpt><trkpt lat="43.59221295356769" lon="11.315238653022664"><ele>221.0</ele><time>2026-03-28T16:05:55.001Z</time></trkpt><trkpt lat="43.592134784110485" lon="11.315155359192586"><ele>221.0</ele><time>2026-03-28T16:05:56.001Z</time></trkpt><trkpt lat="43.592063237154" lon="11.315037637605487"><ele>221.25</ele><time>2026-03-28T16:05:57.001Z</time></trkpt><trkpt lat="43.59196400442967" lon="11.314952100522447"><ele>221.5</ele><time>2026-03-28T16:05:58.001Z</time></trkpt><trkpt lat="43.591819890611816" lon="11.314951187719787"><ele>221.75</ele><time>2026-03-28T16:05:59.001Z</time></trkpt><trkpt lat="43.59167382488202" lon="11.314837009685947"><ele>222.0</ele><time>2026-03-28T16:06:00.001Z</time></trkpt><trkpt lat="43.591505604477" lon="11.314742896292728"><ele>222.0</ele><time>2026-03-28T16:06:01.001Z</time></trkpt><trkpt lat="43.591313556843104" lon="11.314637338893462"><ele>222.0</ele><time>2026-03-28T16:06:02.001Z</time></trkpt><trkpt lat="43.59110872673204" lon="11.314545416458003"><ele>222.0</ele><time>2026-03-28T16:06:03.001Z</time></trkpt><trkpt lat="43.59089453880663" lon="11.314468116033451"><ele>222.0</ele><time>2026-03-28T16:06:04.001Z</time></trkpt><trkpt lat="43.59068804829913" lon="11.314410780210089"><ele>222.0</ele><time>2026-03-28T16:06:05.001Z</time></trkpt><trkpt lat="43.5905017341937" lon="11.314389061318675"><ele>222.0</ele><time>2026-03-28T16:06:06.001Z</time></trkpt><trkpt lat="43.5903204791112" lon="11.31439809968008"><ele>222.33333333333331</ele><time>2026-03-28T16:06:07.001Z</time></trkpt><trkpt lat="43.59013187159703" lon="11.314423744574121"><ele>222.66666666666666</ele><time>2026-03-28T16:06:08.001Z</time></trkpt><trkpt lat="43.589932036592685" lon="11.314465578373591"><ele>223.0</ele><time>2026-03-28T16:06:09.001Z</time></trkpt><trkpt lat="43.589717372483626" lon="11.314489045750019"><ele>223.0</ele><time>2026-03-28T16:06:10.001Z</time></trkpt><trkpt lat="43.589509354361894" lon="11.3145267197831"><ele>223.0</ele><time>2026-03-28T16:06:11.001Z</time></trkpt><trkpt lat="43.58932009376349" lon="11.314582966713074"><ele>223.0</ele><time>2026-03-28T16:06:12.001Z</time></trkpt><trkpt lat="43.58914389950016" lon="11.314608184366689"><ele>223.66666666666666</ele><time>2026-03-28T16:06:13.001Z</time></trkpt><trkpt lat="43.588978384174965" lon="11.314639315950586"><ele>224.33333333333331</ele><time>2026-03-28T16:06:14.001Z</time></trkpt><trkpt lat="43.588818460173016" lon="11.314664796375181"><ele>225.0</ele><time>2026-03-28T16:06:15.001Z</time></trkpt><trkpt lat="43.58867127986566" lon="11.314687291055483"><ele>225.25</ele><time>2026-03-28T16:06:16.001Z</time></trkpt><trkpt lat="43.58853142653166" lon="11.314718157395438"><ele>225.5</ele><time>2026-03-28T16:06:17.001Z</time></trkpt><trkpt lat="43.58840790146296" lon="11.314725226692099"><ele>225.75</ele><time>2026-03-28T16:06:18.001Z</time></trkpt><trkpt lat="43.58827722234176" lon="11.314749325253166"><ele>226.0</ele><time>2026-03-28T16:06:19.001Z</time></trkpt><trkpt lat="43.588130800177005" lon="11.314776424394466"><ele>226.33333333333331</ele><time>2026-03-28T16:06:20.001Z</time></trkpt><trkpt lat="43.587977451932964" lon="11.314823032031768"><ele>226.66666666666669</ele><time>2026-03-28T16:06:21.001Z</time></trkpt><trkpt lat="43.58781125548228" lon="11.314831699240594"><ele>227.0</ele><time>2026-03-28T16:06:22.001Z</time></trkpt><trkpt lat="43.58765028149335" lon="11.314861369575514"><ele>227.0</ele><time>2026-03-28T16:06:23.001Z</time></trkpt><trkpt lat="43.58748470642844" lon="11.314893262855293"><ele>227.0</ele><time>2026-03-28T16:06:24.001Z</time></trkpt><trkpt lat="43.58731892860338" lon="11.314927778081534"><ele>227.0</ele><time>2026-03-28T16:06:25.001Z</time></trkpt><trkpt lat="43.587144390280464" lon="11.314961138477207"><ele>227.33333333333334</ele><time>2026-03-28T16:06:26.001Z</time></trkpt><trkpt lat="43.586968791364896" lon="11.314998662103134"><ele>227.66666666666669</ele><time>2026-03-28T16:06:27.001Z</time></trkpt><trkpt lat="43.586794358390875" lon="11.315037210395008"><ele>228.0</ele><time>2026-03-28T16:06:28.001Z</time></trkpt><trkpt lat="43.58662384226936" lon="11.315069625684933"><ele>228.0</ele><time>2026-03-28T16:06:29.001Z</time></trkpt><trkpt lat="43.58646699382825" lon="11.315098688242461"><ele>228.0</ele><time>2026-03-28T16:06:30.001Z</time></trkpt><trkpt lat="43.58633005309381" lon="11.315129253366507"><ele>228.0</ele><time>2026-03-28T16:06:31.001Z</time></trkpt><trkpt lat="43.586198338918415" lon="11.315158764687078"><ele>228.0</ele><time>2026-03-28T16:06:32.001Z</time></trkpt><trkpt lat="43.58606965768508" lon="11.315182874332013"><ele>228.0</ele><time>2026-03-28T16:06:33.001Z</time></trkpt><trkpt lat="43.58594237913039" lon="11.315199759377238"><ele>228.0</ele><time>2026-03-28T16:06:34.001Z</time></trkpt><trkpt lat="43.58582257923703" lon="11.315225926646205"><ele>228.0</ele><time>2026-03-28T16:06:35.001Z</time></trkpt><trkpt lat="43.585708285313444" lon="11.315254573647822"><ele>228.0</ele><time>2026-03-28T16:06:36.001Z</time></trkpt><trkpt lat="43.58559426544748" lon="11.315286717528325"><ele>228.0</ele><time>2026-03-28T16:06:37.001Z</time></trkpt><trkpt lat="43.58546839983842" lon="11.315316027148715"><ele>228.0</ele><time>2026-03-28T16:06:38.001Z</time></trkpt><trkpt lat="43.58535953622405" lon="11.315300066378862"><ele>228.0</ele><time>2026-03-28T16:06:39.001Z</time></trkpt><trkpt lat="43.58527583075609" lon="11.315316014229223"><ele>228.0</ele><time>2026-03-28T16:06:40.001Z</time></trkpt><trkpt lat="43.58519947580586" lon="11.315330561602172"><ele>228.0</ele><time>2026-03-28T16:06:41.001Z</time></trkpt><trkpt lat="43.585129670579754" lon="11.315343752049062"><ele>228.4</ele><time>2026-03-28T16:06:42.001Z</time></trkpt><trkpt lat="43.58504895020704" lon="11.3153798278231"><ele>228.8</ele><time>2026-03-28T16:06:43.001Z</time></trkpt><trkpt lat="43.584943904167645" lon="11.315387972583807"><ele>229.2</ele><time>2026-03-28T16:06:44.001Z</time></trkpt><trkpt lat="43.58482219677014" lon="11.315422083379705"><ele>229.6</ele><time>2026-03-28T16:06:45.001Z</time></trkpt><trkpt lat="43.584693099703294" lon="11.315469076411448"><ele>230.0</ele><time>2026-03-28T16:06:46.001Z</time></trkpt><trkpt lat="43.58454921389538" lon="11.315528637280028"><ele>230.25</ele><time>2026-03-28T16:06:47.001Z</time></trkpt><trkpt lat="43.584405958623655" lon="11.315586303612143"><ele>230.5</ele><time>2026-03-28T16:06:48.001Z</time></trkpt><trkpt lat="43.58427875385625" lon="11.315652132719995"><ele>230.75</ele><time>2026-03-28T16:06:49.001Z</time></trkpt><trkpt lat="43.584178164915755" lon="11.31573819351713"><ele>231.0</ele><time>2026-03-28T16:06:50.001Z</time></trkpt><trkpt lat="43.58408575174425" lon="11.315849403930205"><ele>231.0</ele><time>2026-03-28T16:06:51.001Z</time></trkpt><trkpt lat="43.58400613031851" lon="11.31598874805516"><ele>231.0</ele><time>2026-03-28T16:06:52.001Z</time></trkpt><trkpt lat="43.583954699854694" lon="11.316152323100393"><ele>231.0</ele><time>2026-03-28T16:06:53.001Z</time></trkpt><trkpt lat="43.58388366565413" lon="11.316289807214456"><ele>231.0</ele><time>2026-03-28T16:06:54.001Z</time></trkpt><trkpt lat="43.583816881082726" lon="11.316442789335964"><ele>230.75</ele><time>2026-03-28T16:06:55.001Z</time></trkpt><trkpt lat="43.583745034187665" lon="11.316607369218382"><ele>230.5</ele><time>2026-03-28T16:06:56.001Z</time></trkpt><trkpt lat="43.58368345083342" lon="11.316783068072281"><ele>230.25</ele><time>2026-03-28T16:06:57.001Z</time></trkpt><trkpt lat="43.58360925174725" lon="11.316926391413306"><ele>230.0</ele><time>2026-03-28T16:06:58.001Z</time></trkpt><trkpt lat="43.5835428328985" lon="11.317067033885747"><ele>230.8</ele><time>2026-03-28T16:06:59.001Z</time></trkpt><trkpt lat="43.58348492038619" lon="11.31720663604729"><ele>231.6</ele><time>2026-03-28T16:07:00.001Z</time></trkpt><trkpt lat="43.58341366438221" lon="11.317310732262932"><ele>232.39999999999998</ele><time>2026-03-28T16:07:01.001Z</time></trkpt><trkpt lat="43.58333206528844" lon="11.317382267186154"><ele>233.2</ele><time>2026-03-28T16:07:02.001Z</time></trkpt><trkpt lat="43.58326884690675" lon="11.31744377705096"><ele>234.0</ele><time>2026-03-28T16:07:03.001Z</time></trkpt><trkpt lat="43.583213552380776" lon="11.317511350611944"><ele>234.0</ele><time>2026-03-28T16:07:04.001Z</time></trkpt><trkpt lat="43.58313654344174" lon="11.317567875121512"><ele>233.99999999999997</ele><time>2026-03-28T16:07:06.001Z</time></trkpt><trkpt lat="43.5830243902261" lon="11.31762156572684"><ele>233.99999999999997</ele><time>2026-03-28T16:07:15.001Z</time></trkpt><trkpt lat="43.58292982656735" lon="11.317662221346792"><ele>234.0</ele><time>2026-03-28T16:07:16.001Z</time></trkpt><trkpt lat="43.58284325253891" lon="11.317702948915455"><ele>234.0</ele><time>2026-03-28T16:07:17.001Z</time></trkpt><trkpt lat="43.582753134354235" lon="11.317745071611874"><ele>234.39999999999998</ele><time>2026-03-28T16:07:18.001Z</time></trkpt><trkpt lat="43.58262986498686" lon="11.317791859930296"><ele>234.79999999999998</ele><time>2026-03-28T16:07:19.001Z</time></trkpt><trkpt lat="43.582526184800535" lon="11.317840480528718"><ele>235.20000000000002</ele><time>2026-03-28T16:07:20.001Z</time></trkpt><trkpt lat="43.58243639141672" lon="11.317864187255246"><ele>235.60000000000002</ele><time>2026-03-28T16:07:21.001Z</time></trkpt><trkpt lat="43.58234426765081" lon="11.317902099980056"><ele>236.0</ele><time>2026-03-28T16:07:22.001Z</time></trkpt><trkpt lat="43.582238795852426" lon="11.317941828206628"><ele>236.0</ele><time>2026-03-28T16:07:23.001Z</time></trkpt><trkpt lat="43.58211640925665" lon="11.317969553183275"><ele>236.0</ele><time>2026-03-28T16:07:24.001Z</time></trkpt><trkpt lat="43.58198102718759" lon="11.317967372456263"><ele>236.0</ele><time>2026-03-28T16:07:25Z</time></trkpt><trkpt lat="43.58184891758041" lon="11.317916742057166"><ele>236.0</ele><time>2026-03-28T16:07:26Z</time></trkpt><trkpt lat="43.58174832768005" lon="11.317898039342664"><ele>236.75</ele><time>2026-03-28T16:07:27Z</time></trkpt><trkpt lat="43.58163215580678" lon="11.317873959131934"><ele>237.5</ele><time>2026-03-28T16:07:28Z</time></trkpt><trkpt lat="43.581499586375934" lon="11.317866624765175"><ele>238.25</ele><time>2026-03-28T16:07:29Z</time></trkpt><trkpt lat="43.58136134511667" lon="11.317868950205604"><ele>239.0</ele><time>2026-03-28T16:07:30Z</time></trkpt><trkpt lat="43.58121235455024" lon="11.317869453734659"><ele>238.5</ele><time>2026-03-28T16:07:31Z</time></trkpt><trkpt lat="43.58109254906503" lon="11.317886911050987"><ele>238.0</ele><time>2026-03-28T16:07:32Z</time></trkpt><trkpt lat="43.580979323682314" lon="11.317889804986041"><ele>237.5</ele><time>2026-03-28T16:07:33Z</time></trkpt><trkpt lat="43.580872423761555" lon="11.317820244479154"><ele>237.0</ele><time>2026-03-28T16:07:34Z</time></trkpt><trkpt lat="43.580757180796255" lon="11.317717509865535"><ele>237.0</ele><time>2026-03-28T16:07:35Z</time></trkpt><trkpt lat="43.580630202787034" lon="11.317617112617938"><ele>237.0</ele><time>2026-03-28T16:07:36Z</time></trkpt><trkpt lat="43.58049172726241" lon="11.317509387356713"><ele>237.0</ele><time>2026-03-28T16:07:37Z</time></trkpt><trkpt lat="43.580352354826374" lon="11.317391972572011"><ele>236.75</ele><time>2026-03-28T16:07:38Z</time></trkpt><trkpt lat="43.58023416774944" lon="11.31726268284809"><ele>236.5</ele><time>2026-03-28T16:07:39Z</time></trkpt><trkpt lat="43.580151162412406" lon="11.317133399343744"><ele>236.25</ele><time>2026-03-28T16:07:40Z</time></trkpt><trkpt lat="43.58003320948338" lon="11.317034517275301"><ele>236.0</ele><time>2026-03-28T16:07:41Z</time></trkpt><trkpt lat="43.579881983860496" lon="11.316973188900201"><ele>237.0</ele><time>2026-03-28T16:07:42Z</time></trkpt><trkpt lat="43.579718719398244" lon="11.316914284108256"><ele>238.0</ele><time>2026-03-28T16:07:43Z</time></trkpt><trkpt lat="43.57954893368137" lon="11.316852029487194"><ele>239.0</ele><time>2026-03-28T16:07:44Z</time></trkpt><trkpt lat="43.579366503116546" lon="11.31679213724726"><ele>239.0</ele><time>2026-03-28T16:07:45Z</time></trkpt><trkpt lat="43.57918219144006" lon="11.316733701876872"><ele>239.0</ele><time>2026-03-28T16:07:46Z</time></trkpt><trkpt lat="43.57901369143867" lon="11.316670719165847"><ele>239.0</ele><time>2026-03-28T16:07:47Z</time></trkpt><trkpt lat="43.57885859094546" lon="11.316613935102366"><ele>239.0</ele><time>2026-03-28T16:07:48Z</time></trkpt><trkpt lat="43.57872504917969" lon="11.316571056286062"><ele>239.0</ele><time>2026-03-28T16:07:49Z</time></trkpt><trkpt lat="43.57859341364061" lon="11.316538635024669"><ele>239.0</ele><time>2026-03-28T16:07:50Z</time></trkpt><trkpt lat="43.57847734101641" lon="11.316535430573957"><ele>239.0</ele><time>2026-03-28T16:07:51Z</time></trkpt><trkpt lat="43.57837210207819" lon="11.316548858657017"><ele>239.2</ele><time>2026-03-28T16:07:52Z</time></trkpt><trkpt lat="43.578270533802694" lon="11.316569326006544"><ele>239.39999999999998</ele><time>2026-03-28T16:07:53Z</time></trkpt><trkpt lat="43.57817310847656" lon="11.316598264944643"><ele>239.6</ele><time>2026-03-28T16:07:54Z</time></trkpt><trkpt lat="43.57806376984033" lon="11.316630790046236"><ele>239.8</ele><time>2026-03-28T16:07:55Z</time></trkpt><trkpt lat="43.57795455926863" lon="11.316666212405531"><ele>240.0</ele><time>2026-03-28T16:07:56Z</time></trkpt><trkpt lat="43.577860144894494" lon="11.31669464927503"><ele>240.66666666666666</ele><time>2026-03-28T16:07:57Z</time></trkpt><trkpt lat="43.577774502309616" lon="11.316722037741144"><ele>241.33333333333331</ele><time>2026-03-28T16:07:58Z</time></trkpt><trkpt lat="43.57770289451752" lon="11.316748097134921"><ele>242.0</ele><time>2026-03-28T16:07:59Z</time></trkpt><trkpt lat="43.577602512391145" lon="11.316782086159813"><ele>242.66666666666666</ele><time>2026-03-28T16:08:01Z</time></trkpt><trkpt lat="43.57754093161291" lon="11.316800958668335"><ele>243.33333333333331</ele><time>2026-03-28T16:08:04Z</time></trkpt><trkpt lat="43.57745139495987" lon="11.316831662212515"><ele>244.0</ele><time>2026-03-28T16:08:06Z</time></trkpt><trkpt lat="43.5773685777645" lon="11.31688065642603"><ele>244.0</ele><time>2026-03-28T16:08:07Z</time></trkpt><trkpt lat="43.57727569600767" lon="11.316917177060954"><ele>244.0</ele><time>2026-03-28T16:08:08Z</time></trkpt><trkpt lat="43.57716065025901" lon="11.3169639342681"><ele>244.0</ele><time>2026-03-28T16:08:09Z</time></trkpt><trkpt lat="43.57702860817564" lon="11.317016650093914"><ele>244.0</ele><time>2026-03-28T16:08:10.001Z</time></trkpt><trkpt lat="43.576889728975985" lon="11.317079777575664"><ele>242.66666666666666</ele><time>2026-03-28T16:08:11.001Z</time></trkpt><trkpt lat="43.576730192894615" lon="11.317163388102815"><ele>241.33333333333331</ele><time>2026-03-28T16:08:12.001Z</time></trkpt><trkpt lat="43.576567156147846" lon="11.317249085070806"><ele>240.0</ele><time>2026-03-28T16:08:13.001Z</time></trkpt><trkpt lat="43.576401185485736" lon="11.31734077454611"><ele>240.0</ele><time>2026-03-28T16:08:14.001Z</time></trkpt><trkpt lat="43.576234211724646" lon="11.317421107804183"><ele>240.0</ele><time>2026-03-28T16:08:15.001Z</time></trkpt><trkpt lat="43.57607930091526" lon="11.317496329831156"><ele>240.0</ele><time>2026-03-28T16:08:16.001Z</time></trkpt><trkpt lat="43.575925582910926" lon="11.317576703486155"><ele>241.33333333333331</ele><time>2026-03-28T16:08:17.001Z</time></trkpt><trkpt lat="43.57576299758881" lon="11.317661572517595"><ele>242.66666666666666</ele><time>2026-03-28T16:08:18.001Z</time></trkpt><trkpt lat="43.5756066223365" lon="11.317742901157061"><ele>244.0</ele><time>2026-03-28T16:08:19.001Z</time></trkpt><trkpt lat="43.57544263112004" lon="11.317820728324289"><ele>243.66666666666666</ele><time>2026-03-28T16:08:20.001Z</time></trkpt><trkpt lat="43.57525213341192" lon="11.317910595531355"><ele>243.33333333333331</ele><time>2026-03-28T16:08:21.001Z</time></trkpt><trkpt lat="43.57505457068856" lon="11.318003232847152"><ele>243.0</ele><time>2026-03-28T16:08:22.001Z</time></trkpt><trkpt lat="43.574848710798626" lon="11.318106683652498"><ele>243.0</ele><time>2026-03-28T16:08:23.001Z</time></trkpt><trkpt lat="43.574645974640845" lon="11.318205359971211"><ele>243.0</ele><time>2026-03-28T16:08:24.001Z</time></trkpt><trkpt lat="43.5744384279882" lon="11.318307063515446"><ele>243.0</ele><time>2026-03-28T16:08:25.001Z</time></trkpt><trkpt lat="43.574233528314345" lon="11.318400266277164"><ele>248.0</ele><time>2026-03-28T16:08:26.001Z</time></trkpt><trkpt lat="43.57403081056477" lon="11.318497525955635"><ele>253.0</ele><time>2026-03-28T16:08:27.001Z</time></trkpt><trkpt lat="43.57382639505842" lon="11.318602073966169"><ele>258.0</ele><time>2026-03-28T16:08:28.001Z</time></trkpt><trkpt lat="43.57362225722807" lon="11.318713862521394"><ele>253.5</ele><time>2026-03-28T16:08:29.001Z</time></trkpt><trkpt lat="43.57339179258219" lon="11.318816444040493"><ele>249.0</ele><time>2026-03-28T16:08:30.001Z</time></trkpt><trkpt lat="43.573172965869674" lon="11.318954456856366"><ele>249.0</ele><time>2026-03-28T16:08:31.001Z</time></trkpt><trkpt lat="43.57294704656114" lon="11.319071912589356"><ele>249.0</ele><time>2026-03-28T16:08:32.001Z</time></trkpt><trkpt lat="43.57272031935212" lon="11.319185696828232"><ele>252.0</ele><time>2026-03-28T16:08:33.001Z</time></trkpt><trkpt lat="43.572505787367994" lon="11.319287330814765"><ele>255.0</ele><time>2026-03-28T16:08:34.001Z</time></trkpt><trkpt lat="43.57230560645369" lon="11.319380026500573"><ele>258.0</ele><time>2026-03-28T16:08:35.001Z</time></trkpt><trkpt lat="43.572110338547006" lon="11.319476142802136"><ele>255.33333333333331</ele><time>2026-03-28T16:08:36.001Z</time></trkpt><trkpt lat="43.57190344670343" lon="11.319581293635766"><ele>252.66666666666666</ele><time>2026-03-28T16:08:37.001Z</time></trkpt><trkpt lat="43.571697232161576" lon="11.319683489841317"><ele>250.0</ele><time>2026-03-28T16:08:38.001Z</time></trkpt><trkpt lat="43.571479875011725" lon="11.319794760570476"><ele>250.0</ele><time>2026-03-28T16:08:39.001Z</time></trkpt><trkpt lat="43.57127382477047" lon="11.3199051600161"><ele>250.0</ele><time>2026-03-28T16:08:40.001Z</time></trkpt><trkpt lat="43.57105284774291" lon="11.320015453403995"><ele>254.5</ele><time>2026-03-28T16:08:41.001Z</time></trkpt><trkpt lat="43.57083108497684" lon="11.320142150901875"><ele>259.0</ele><time>2026-03-28T16:08:42.001Z</time></trkpt><trkpt lat="43.57062048495837" lon="11.320216747995474"><ele>259.0</ele><time>2026-03-28T16:08:43.001Z</time></trkpt><trkpt lat="43.57041940725975" lon="11.320297506079285"><ele>259.0</ele><time>2026-03-28T16:08:44.001Z</time></trkpt><trkpt lat="43.57019294929903" lon="11.320360454739733"><ele>259.0</ele><time>2026-03-28T16:08:45.001Z</time></trkpt><trkpt lat="43.569959293549964" lon="11.320422205756902"><ele>260.0</ele><time>2026-03-28T16:08:46.001Z</time></trkpt><trkpt lat="43.56975309838491" lon="11.32047359173786"><ele>261.0</ele><time>2026-03-28T16:08:47.001Z</time></trkpt><trkpt lat="43.56960033880338" lon="11.320529843336386"><ele>262.0</ele><time>2026-03-28T16:08:48.001Z</time></trkpt><trkpt lat="43.56945668707967" lon="11.320571009095888"><ele>263.0</ele><time>2026-03-28T16:08:49.001Z</time></trkpt><trkpt lat="43.56934831587235" lon="11.320642975731914"><ele>264.0</ele><time>2026-03-28T16:08:50.001Z</time></trkpt><trkpt lat="43.56926181030439" lon="11.32073535813597"><ele>265.0</ele><time>2026-03-28T16:08:51.001Z</time></trkpt><trkpt lat="43.569219522531085" lon="11.320859268811056"><ele>266.0</ele><time>2026-03-28T16:08:52.001Z</time></trkpt><trkpt lat="43.56919173488005" lon="11.321016379221174"><ele>267.0</ele><time>2026-03-28T16:08:53.001Z</time></trkpt><trkpt lat="43.56918888590562" lon="11.321234691456281"><ele>265.6666666666667</ele><time>2026-03-28T16:08:54.001Z</time></trkpt><trkpt lat="43.56918390250717" lon="11.321484149062787"><ele>264.33333333333337</ele><time>2026-03-28T16:08:55.001Z</time></trkpt><trkpt lat="43.569107496732556" lon="11.321703435521409"><ele>263.0</ele><time>2026-03-28T16:08:56.001Z</time></trkpt><trkpt lat="43.569005236398404" lon="11.32194263607603"><ele>263.0</ele><time>2026-03-28T16:08:57.001Z</time></trkpt><trkpt lat="43.568877462631924" lon="11.322185953622249"><ele>263.0</ele><time>2026-03-28T16:08:58.001Z</time></trkpt><trkpt lat="43.56875681724408" lon="11.322395788153823"><ele>263.0</ele><time>2026-03-28T16:08:59.001Z</time></trkpt><trkpt lat="43.56867833662186" lon="11.322530502921706"><ele>268.33333333333337</ele><time>2026-03-28T16:09:00.001Z</time></trkpt><trkpt lat="43.56849718117304" lon="11.322547233442183"><ele>273.6666666666667</ele><time>2026-03-28T16:09:01.001Z</time></trkpt><trkpt lat="43.56827153311881" lon="11.32259472278496"><ele>279.0</ele><time>2026-03-28T16:09:02.001Z</time></trkpt><trkpt lat="43.568079592405304" lon="11.322633365427125"><ele>282.5</ele><time>2026-03-28T16:09:03.001Z</time></trkpt><trkpt lat="43.56783355186415" lon="11.322682428988925"><ele>286.0</ele><time>2026-03-28T16:09:04.001Z</time></trkpt><trkpt lat="43.56760524036487" lon="11.322728955071183"><ele>286.0</ele><time>2026-03-28T16:09:05.001Z</time></trkpt><trkpt lat="43.56742846640886" lon="11.322750712803892"><ele>286.0</ele><time>2026-03-28T16:09:06.001Z</time></trkpt><trkpt lat="43.56725667154367" lon="11.322714122341372"><ele>286.0</ele><time>2026-03-28T16:09:07.001Z</time></trkpt><trkpt lat="43.567059405540924" lon="11.32259347885022"><ele>284.66666666666663</ele><time>2026-03-28T16:09:08.001Z</time></trkpt><trkpt lat="43.56686202679969" lon="11.322457313726721"><ele>283.3333333333333</ele><time>2026-03-28T16:09:09.001Z</time></trkpt><trkpt lat="43.56665970989106" lon="11.322341250231172"><ele>282.0</ele><time>2026-03-28T16:09:10.001Z</time></trkpt><trkpt lat="43.56643360524522" lon="11.322296245300421"><ele>282.0</ele><time>2026-03-28T16:09:11.001Z</time></trkpt><trkpt lat="43.56622956635097" lon="11.322303832160685"><ele>282.0</ele><time>2026-03-28T16:09:12.001Z</time></trkpt><trkpt lat="43.56601606035827" lon="11.322356302794011"><ele>282.0</ele><time>2026-03-28T16:09:13.001Z</time></trkpt><trkpt lat="43.565782538493785" lon="11.32244693718014"><ele>283.5</ele><time>2026-03-28T16:09:14.001Z</time></trkpt><trkpt lat="43.56554277618453" lon="11.322518486905427"><ele>285.0</ele><time>2026-03-28T16:09:15.001Z</time></trkpt><trkpt lat="43.565319732723175" lon="11.322540003508646"><ele>288.3333333333333</ele><time>2026-03-28T16:09:16.001Z</time></trkpt><trkpt lat="43.56512830186094" lon="11.322570699099106"><ele>291.66666666666663</ele><time>2026-03-28T16:09:17.001Z</time></trkpt><trkpt lat="43.56493954853968" lon="11.322673823087948"><ele>295.0</ele><time>2026-03-28T16:09:18.001Z</time></trkpt><trkpt lat="43.564739214965584" lon="11.322807635780478"><ele>295.0</ele><time>2026-03-28T16:09:19.001Z</time></trkpt><trkpt lat="43.56456139228315" lon="11.322962969377087"><ele>295.0</ele><time>2026-03-28T16:09:20.001Z</time></trkpt><trkpt lat="43.56443291558714" lon="11.323014519176938"><ele>295.0</ele><time>2026-03-28T16:09:21.001Z</time></trkpt><trkpt lat="43.564256350745524" lon="11.323045253026404"><ele>295.3333333333333</ele><time>2026-03-28T16:09:22.001Z</time></trkpt><trkpt lat="43.56404060883933" lon="11.323115899996912"><ele>295.6666666666667</ele><time>2026-03-28T16:09:23.001Z</time></trkpt><trkpt lat="43.563828590078096" lon="11.323163086278505"><ele>296.0</ele><time>2026-03-28T16:09:24.001Z</time></trkpt><trkpt lat="43.56361337099038" lon="11.323252132190401"><ele>301.5</ele><time>2026-03-28T16:09:25.001Z</time></trkpt><trkpt lat="43.56337646479964" lon="11.323412739811666"><ele>307.0</ele><time>2026-03-28T16:09:26.001Z</time></trkpt><trkpt lat="43.56316668558521" lon="11.323597409742618"><ele>307.0</ele><time>2026-03-28T16:09:27.001Z</time></trkpt><trkpt lat="43.56299954065637" lon="11.323726415236289"><ele>307.0</ele><time>2026-03-28T16:09:28.001Z</time></trkpt><trkpt lat="43.56282202671266" lon="11.323798366631548"><ele>307.0</ele><time>2026-03-28T16:09:29.001Z</time></trkpt><trkpt lat="43.56258640475872" lon="11.32381262592009"><ele>305.0</ele><time>2026-03-28T16:09:30.001Z</time></trkpt><trkpt lat="43.5623524961002" lon="11.323866316384509"><ele>303.0</ele><time>2026-03-28T16:09:31.001Z</time></trkpt><trkpt lat="43.56214386823463" lon="11.323980613004888"><ele>307.3333333333333</ele><time>2026-03-28T16:09:32Z</time></trkpt><trkpt lat="43.56195442212396" lon="11.324155306517287"><ele>311.66666666666663</ele><time>2026-03-28T16:09:33Z</time></trkpt><trkpt lat="43.56174989399949" lon="11.3242499817066"><ele>316.0</ele><time>2026-03-28T16:09:34Z</time></trkpt><trkpt lat="43.56153019046844" lon="11.324310401150347"><ele>316.0</ele><time>2026-03-28T16:09:35Z</time></trkpt><trkpt lat="43.56130153154137" lon="11.324367417032027"><ele>316.0</ele><time>2026-03-28T16:09:36Z</time></trkpt><trkpt lat="43.56110996720264" lon="11.324371448804332"><ele>316.0</ele><time>2026-03-28T16:09:37Z</time></trkpt><trkpt lat="43.56088519755293" lon="11.324328927223041"><ele>314.3333333333333</ele><time>2026-03-28T16:09:38Z</time></trkpt><trkpt lat="43.56067301476079" lon="11.324257993743567"><ele>312.6666666666667</ele><time>2026-03-28T16:09:39Z</time></trkpt><trkpt lat="43.560476705281935" lon="11.324156087778448"><ele>311.0</ele><time>2026-03-28T16:09:40Z</time></trkpt><trkpt lat="43.560283754343416" lon="11.324017495734436"><ele>319.5</ele><time>2026-03-28T16:09:41Z</time></trkpt><trkpt lat="43.56009439145402" lon="11.323836366064974"><ele>328.0</ele><time>2026-03-28T16:09:42Z</time></trkpt><trkpt lat="43.559907713131246" lon="11.323641233854842"><ele>328.0</ele><time>2026-03-28T16:09:43Z</time></trkpt><trkpt lat="43.55972944014726" lon="11.323456150114103"><ele>328.0</ele><time>2026-03-28T16:09:44Z</time></trkpt><trkpt lat="43.5595935860139" lon="11.323304354140344"><ele>328.0</ele><time>2026-03-28T16:09:45Z</time></trkpt><trkpt lat="43.55951024533324" lon="11.3231734664218"><ele>329.66666666666663</ele><time>2026-03-28T16:09:46Z</time></trkpt><trkpt lat="43.55945818387722" lon="11.323004148534553"><ele>331.3333333333333</ele><time>2026-03-28T16:09:47Z</time></trkpt><trkpt lat="43.559386508099145" lon="11.322776262127729"><ele>333.0</ele><time>2026-03-28T16:09:48Z</time></trkpt><trkpt lat="43.55931036205356" lon="11.322582274579812"><ele>333.0</ele><time>2026-03-28T16:09:49Z</time></trkpt><trkpt lat="43.55920970431105" lon="11.322442633731589"><ele>333.0</ele><time>2026-03-28T16:09:50Z</time></trkpt><trkpt lat="43.55907893681616" lon="11.322359636862672"><ele>333.0</ele><time>2026-03-28T16:09:51Z</time></trkpt><trkpt lat="43.5589217451519" lon="11.322367391934742"><ele>333.0</ele><time>2026-03-28T16:09:52Z</time></trkpt><trkpt lat="43.55874223630297" lon="11.322418673450397"><ele>335.5</ele><time>2026-03-28T16:09:53Z</time></trkpt><trkpt lat="43.55853380232021" lon="11.32251266470734"><ele>338.0</ele><time>2026-03-28T16:09:54Z</time></trkpt><trkpt lat="43.55829897528183" lon="11.32258337869448"><ele>338.0</ele><time>2026-03-28T16:09:55Z</time></trkpt><trkpt lat="43.558053346017374" lon="11.322663199207572"><ele>338.0</ele><time>2026-03-28T16:09:56Z</time></trkpt><trkpt lat="43.55780599379415" lon="11.322760918052094"><ele>341.6666666666667</ele><time>2026-03-28T16:09:57Z</time></trkpt><trkpt lat="43.55757021432744" lon="11.322835241134444"><ele>345.3333333333333</ele><time>2026-03-28T16:09:58Z</time></trkpt><trkpt lat="43.55738036090681" lon="11.322911556655306"><ele>349.0</ele><time>2026-03-28T16:09:59Z</time></trkpt><trkpt lat="43.557213354917764" lon="11.323030363238459"><ele>348.66666666666663</ele><time>2026-03-28T16:10:00Z</time></trkpt><trkpt lat="43.55706509263416" lon="11.323212086022584"><ele>348.3333333333333</ele><time>2026-03-28T16:10:01Z</time></trkpt><trkpt lat="43.55690229457808" lon="11.323424120564122"><ele>348.0</ele><time>2026-03-28T16:10:02Z</time></trkpt><trkpt lat="43.5566998233908" lon="11.323614924215617"><ele>348.0</ele><time>2026-03-28T16:10:03Z</time></trkpt><trkpt lat="43.55647731555524" lon="11.323802213378082"><ele>348.0</ele><time>2026-03-28T16:10:04Z</time></trkpt><trkpt lat="43.556252941794185" lon="11.323998195480245"><ele>350.0</ele><time>2026-03-28T16:10:05Z</time></trkpt><trkpt lat="43.55603946642812" lon="11.3241865141621"><ele>352.0</ele><time>2026-03-28T16:10:06Z</time></trkpt><trkpt lat="43.555854626198894" lon="11.324349701385168"><ele>352.0</ele><time>2026-03-28T16:10:07Z</time></trkpt><trkpt lat="43.555697132160546" lon="11.324490122411326"><ele>352.0</ele><time>2026-03-28T16:10:08Z</time></trkpt><trkpt lat="43.555561442732746" lon="11.324605918133189"><ele>352.0</ele><time>2026-03-28T16:10:09Z</time></trkpt><trkpt lat="43.55542811315875" lon="11.324677155789248"><ele>356.3333333333333</ele><time>2026-03-28T16:10:10Z</time></trkpt><trkpt lat="43.55527081117359" lon="11.324690124132482"><ele>360.6666666666667</ele><time>2026-03-28T16:10:11Z</time></trkpt><trkpt lat="43.55507945118662" lon="11.324642896697215"><ele>365.0</ele><time>2026-03-28T16:10:12Z</time></trkpt><trkpt lat="43.55488687387087" lon="11.324545248671223"><ele>365.0</ele><time>2026-03-28T16:10:13Z</time></trkpt><trkpt lat="43.55473535055763" lon="11.324473169317113"><ele>365.0</ele><time>2026-03-28T16:10:14Z</time></trkpt><trkpt lat="43.55459206179642" lon="11.324469588910024"><ele>365.0</ele><time>2026-03-28T16:10:15Z</time></trkpt><trkpt lat="43.55444520182404" lon="11.324552051359891"><ele>365.0</ele><time>2026-03-28T16:10:16Z</time></trkpt><trkpt lat="43.55431366597966" lon="11.32469265405315"><ele>365.0</ele><time>2026-03-28T16:10:17Z</time></trkpt><trkpt lat="43.55417321115496" lon="11.32488676976767"><ele>365.0</ele><time>2026-03-28T16:10:18Z</time></trkpt><trkpt lat="43.554014651149195" lon="11.3250884488962"><ele>365.0</ele><time>2026-03-28T16:10:19Z</time></trkpt><trkpt lat="43.55385538964062" lon="11.325230380668742"><ele>365.0</ele><time>2026-03-28T16:10:20Z</time></trkpt><trkpt lat="43.55373021284461" lon="11.325346176251003"><ele>365.0</ele><time>2026-03-28T16:10:21Z</time></trkpt><trkpt lat="43.55360199361474" lon="11.325404701690903"><ele>365.5</ele><time>2026-03-28T16:10:22Z</time></trkpt><trkpt lat="43.55347432747475" lon="11.32537704606057"><ele>366.0</ele><time>2026-03-28T16:10:23Z</time></trkpt><trkpt lat="43.55337879264134" lon="11.325280637561406"><ele>366.5</ele><time>2026-03-28T16:10:24Z</time></trkpt><trkpt lat="43.55332059872838" lon="11.325112747241553"><ele>367.0</ele><time>2026-03-28T16:10:25Z</time></trkpt><trkpt lat="43.55329319000995" lon="11.32489689300719"><ele>371.66666666666663</ele><time>2026-03-28T16:10:26Z</time></trkpt><trkpt lat="43.55327487432283" lon="11.32463184420901"><ele>376.3333333333333</ele><time>2026-03-28T16:10:27Z</time></trkpt><trkpt lat="43.553220217877936" lon="11.32442472429589"><ele>381.0</ele><time>2026-03-28T16:10:28Z</time></trkpt><trkpt lat="43.553150604525094" lon="11.324269885951566"><ele>381.0</ele><time>2026-03-28T16:10:29Z</time></trkpt><trkpt lat="43.553046839967834" lon="11.324140264027886"><ele>381.0</ele><time>2026-03-28T16:10:30Z</time></trkpt><trkpt lat="43.55288466695272" lon="11.324080597763855"><ele>381.0</ele><time>2026-03-28T16:10:31Z</time></trkpt><trkpt lat="43.55268297460854" lon="11.324085188714493"><ele>379.0</ele><time>2026-03-28T16:10:32Z</time></trkpt><trkpt lat="43.55246863975919" lon="11.324118434309513"><ele>377.0</ele><time>2026-03-28T16:10:33Z</time></trkpt><trkpt lat="43.55222062005175" lon="11.32417406299608"><ele>377.6666666666667</ele><time>2026-03-28T16:10:34Z</time></trkpt><trkpt lat="43.55198555091949" lon="11.32420047707991"><ele>378.3333333333333</ele><time>2026-03-28T16:10:35Z</time></trkpt><trkpt lat="43.55179697079016" lon="11.324186668141634"><ele>379.0</ele><time>2026-03-28T16:10:36Z</time></trkpt><trkpt lat="43.55162750294918" lon="11.324140600414816"><ele>379.0</ele><time>2026-03-28T16:10:37Z</time></trkpt><trkpt lat="43.551428109726544" lon="11.324054548064664"><ele>379.0</ele><time>2026-03-28T16:10:38Z</time></trkpt><trkpt lat="43.55118957720686" lon="11.323972635564916"><ele>384.3333333333333</ele><time>2026-03-28T16:10:39.001Z</time></trkpt><trkpt lat="43.55096223333991" lon="11.323860091501505"><ele>389.66666666666663</ele><time>2026-03-28T16:10:40.001Z</time></trkpt><trkpt lat="43.55077508873988" lon="11.323770675081269"><ele>395.0</ele><time>2026-03-28T16:10:41.001Z</time></trkpt><trkpt lat="43.550610700491994" lon="11.32366163938872"><ele>395.0</ele><time>2026-03-28T16:10:42.001Z</time></trkpt><trkpt lat="43.550459563566825" lon="11.323480873287492"><ele>395.0</ele><time>2026-03-28T16:10:43.001Z</time></trkpt><trkpt lat="43.550303676893236" lon="11.323256662147093"><ele>395.0</ele><time>2026-03-28T16:10:44.001Z</time></trkpt><trkpt lat="43.5501463467207" lon="11.323064311485671"><ele>395.0</ele><time>2026-03-28T16:10:45.001Z</time></trkpt><trkpt lat="43.54999012288599" lon="11.322937198792603"><ele>395.0</ele><time>2026-03-28T16:10:46.001Z</time></trkpt><trkpt lat="43.549822901644696" lon="11.322870909548696"><ele>395.0</ele><time>2026-03-28T16:10:47.001Z</time></trkpt><trkpt lat="43.54965685257292" lon="11.322852348942051"><ele>395.3333333333333</ele><time>2026-03-28T16:10:48.001Z</time></trkpt><trkpt lat="43.549460731550894" lon="11.322892227463836"><ele>395.66666666666663</ele><time>2026-03-28T16:10:49.001Z</time></trkpt><trkpt lat="43.54923704045463" lon="11.322962031929903"><ele>396.0</ele><time>2026-03-28T16:10:50.001Z</time></trkpt><trkpt lat="43.548987225675496" lon="11.32304365448497"><ele>392.5</ele><time>2026-03-28T16:10:51.001Z</time></trkpt><trkpt lat="43.54869564247243" lon="11.323126720622172"><ele>389.0</ele><time>2026-03-28T16:10:52.001Z</time></trkpt><trkpt lat="43.54837829782885" lon="11.323208115195792"><ele>389.0</ele><time>2026-03-28T16:10:53.001Z</time></trkpt><trkpt lat="43.548045617280096" lon="11.323290392713135"><ele>389.0</ele><time>2026-03-28T16:10:54.001Z</time></trkpt><trkpt lat="43.54771108992703" lon="11.323367469546088"><ele>392.0</ele><time>2026-03-28T16:10:55.001Z</time></trkpt><trkpt lat="43.547411524564325" lon="11.323436283773814"><ele>395.0</ele><time>2026-03-28T16:10:56.001Z</time></trkpt><trkpt lat="43.5471507378305" lon="11.323499986077584"><ele>397.66666666666663</ele><time>2026-03-28T16:10:57.001Z</time></trkpt><trkpt lat="43.5469149207344" lon="11.323550337442205"><ele>400.33333333333337</ele><time>2026-03-28T16:10:58.001Z</time></trkpt><trkpt lat="43.54672068528878" lon="11.323593522356711"><ele>403.0</ele><time>2026-03-28T16:10:59.001Z</time></trkpt><trkpt lat="43.54655810064647" lon="11.32362899606136"><ele>403.0</ele><time>2026-03-28T16:11:00.001Z</time></trkpt><trkpt lat="43.54642020002567" lon="11.323683761420922"><ele>403.0</ele><time>2026-03-28T16:11:01.001Z</time></trkpt><trkpt lat="43.54629326171864" lon="11.323780537935384"><ele>403.0</ele><time>2026-03-28T16:11:02.001Z</time></trkpt><trkpt lat="43.54618481890743" lon="11.323951678771426"><ele>402.33333333333337</ele><time>2026-03-28T16:11:03.001Z</time></trkpt><trkpt lat="43.546102692293225" lon="11.324191880441838"><ele>401.66666666666663</ele><time>2026-03-28T16:11:04.001Z</time></trkpt><trkpt lat="43.54603330188545" lon="11.324477622020753"><ele>401.0</ele><time>2026-03-28T16:11:05.001Z</time></trkpt><trkpt lat="43.54595312741529" lon="11.324793928809852"><ele>403.0</ele><time>2026-03-28T16:11:06.001Z</time></trkpt><trkpt lat="43.54586710115238" lon="11.325133247801332"><ele>405.0</ele><time>2026-03-28T16:11:07.001Z</time></trkpt><trkpt lat="43.54576805054967" lon="11.325481262301398"><ele>406.0</ele><time>2026-03-28T16:11:08.001Z</time></trkpt><trkpt lat="43.54566542022303" lon="11.325780369154163"><ele>407.0</ele><time>2026-03-28T16:11:09.001Z</time></trkpt><trkpt lat="43.545579356880175" lon="11.326056160507763"><ele>407.0</ele><time>2026-03-28T16:11:10.001Z</time></trkpt><trkpt lat="43.54546820710434" lon="11.32629162179288"><ele>407.0</ele><time>2026-03-28T16:11:11.001Z</time></trkpt><trkpt lat="43.545328795954525" lon="11.326541687475085"><ele>407.0</ele><time>2026-03-28T16:11:12.001Z</time></trkpt><trkpt lat="43.54518118442332" lon="11.32678305642094"><ele>408.66666666666663</ele><time>2026-03-28T16:11:13.001Z</time></trkpt><trkpt lat="43.5450699521065" lon="11.326962929782463"><ele>410.33333333333337</ele><time>2026-03-28T16:11:14.001Z</time></trkpt><trkpt lat="43.54496058703801" lon="11.327100159297629"><ele>412.0</ele><time>2026-03-28T16:11:15.001Z</time></trkpt><trkpt lat="43.54482502847813" lon="11.327157454816493"><ele>412.0</ele><time>2026-03-28T16:11:16.001Z</time></trkpt><trkpt lat="43.54468828198645" lon="11.32715259455882"><ele>412.0</ele><time>2026-03-28T16:11:17.001Z</time></trkpt><trkpt lat="43.544553533183674" lon="11.32711013486558"><ele>412.0</ele><time>2026-03-28T16:11:18.001Z</time></trkpt><trkpt lat="43.544454308757004" lon="11.326983734970282"><ele>412.0</ele><time>2026-03-28T16:11:19.001Z</time></trkpt><trkpt lat="43.54440587895555" lon="11.326795370271745"><ele>414.6666666666667</ele><time>2026-03-28T16:11:20.001Z</time></trkpt><trkpt lat="43.54436131568141" lon="11.32651054611165"><ele>417.33333333333337</ele><time>2026-03-28T16:11:21.001Z</time></trkpt><trkpt lat="43.544316933898806" lon="11.326214109278938"><ele>420.0</ele><time>2026-03-28T16:11:22.001Z</time></trkpt><trkpt lat="43.54426129940045" lon="11.32590605107205"><ele>420.0</ele><time>2026-03-28T16:11:23.001Z</time></trkpt><trkpt lat="43.54420650700344" lon="11.325579111137014"><ele>420.0</ele><time>2026-03-28T16:11:24.001Z</time></trkpt><trkpt lat="43.544180223306014" lon="11.325269514638244"><ele>420.5</ele><time>2026-03-28T16:11:25.001Z</time></trkpt><trkpt lat="43.54417291643329" lon="11.325022936539641"><ele>421.0</ele><time>2026-03-28T16:11:26Z</time></trkpt><trkpt lat="43.54417007122592" lon="11.324849843065792"><ele>421.5</ele><time>2026-03-28T16:11:27Z</time></trkpt><trkpt lat="43.54417483487486" lon="11.324680142847962"><ele>422.0</ele><time>2026-03-28T16:11:28Z</time></trkpt><trkpt lat="43.54424454405315" lon="11.32451037194386"><ele>424.3333333333333</ele><time>2026-03-28T16:11:29Z</time></trkpt><trkpt lat="43.54437077287071" lon="11.324360855411863"><ele>426.66666666666663</ele><time>2026-03-28T16:11:30Z</time></trkpt><trkpt lat="43.54448000039936" lon="11.324208354358435"><ele>429.0</ele><time>2026-03-28T16:11:31Z</time></trkpt><trkpt lat="43.544565062262876" lon="11.32403746346972"><ele>430.75</ele><time>2026-03-28T16:11:32Z</time></trkpt><trkpt lat="43.5445973264492" lon="11.323836163323975"><ele>432.5</ele><time>2026-03-28T16:11:33Z</time></trkpt><trkpt lat="43.544613788285154" lon="11.323652968163683"><ele>434.25</ele><time>2026-03-28T16:11:34Z</time></trkpt><trkpt lat="43.54459284200637" lon="11.323445163124386"><ele>436.0</ele><time>2026-03-28T16:11:35Z</time></trkpt><trkpt lat="43.54453920204215" lon="11.323242215846463"><ele>435.6666666666667</ele><time>2026-03-28T16:11:36Z</time></trkpt><trkpt lat="43.54446750435849" lon="11.323028174089155"><ele>435.33333333333337</ele><time>2026-03-28T16:11:37Z</time></trkpt><trkpt lat="43.5443809051387" lon="11.322797031040224"><ele>435.0</ele><time>2026-03-28T16:11:38Z</time></trkpt><trkpt lat="43.54428335052568" lon="11.322530861659873"><ele>435.0</ele><time>2026-03-28T16:11:39Z</time></trkpt><trkpt lat="43.54419522200904" lon="11.32230034715315"><ele>435.0</ele><time>2026-03-28T16:11:40Z</time></trkpt><trkpt lat="43.544137220780584" lon="11.322090487132355"><ele>435.0</ele><time>2026-03-28T16:11:41Z</time></trkpt><trkpt lat="43.54408850313048" lon="11.321925986491078"><ele>435.75</ele><time>2026-03-28T16:11:42Z</time></trkpt><trkpt lat="43.54405957408513" lon="11.321765581123715"><ele>436.5</ele><time>2026-03-28T16:11:43Z</time></trkpt><trkpt lat="43.54404958219825" lon="11.32160248494063"><ele>437.25</ele><time>2026-03-28T16:11:44Z</time></trkpt><trkpt lat="43.544135686216215" lon="11.321459710389869"><ele>438.0</ele><time>2026-03-28T16:11:45Z</time></trkpt><trkpt lat="43.54424227069508" lon="11.3213547680174"><ele>442.0</ele><time>2026-03-28T16:11:46Z</time></trkpt><trkpt lat="43.54437418849849" lon="11.321364676392138"><ele>446.0</ele><time>2026-03-28T16:11:47Z</time></trkpt><trkpt lat="43.54453581375743" lon="11.321357460124645"><ele>450.0</ele><time>2026-03-28T16:11:48Z</time></trkpt><trkpt lat="43.544711841581965" lon="11.321327673528403"><ele>450.66666666666663</ele><time>2026-03-28T16:11:49Z</time></trkpt><trkpt lat="43.544929986655866" lon="11.321318882452255"><ele>451.3333333333333</ele><time>2026-03-28T16:11:50Z</time></trkpt><trkpt lat="43.54515513511095" lon="11.321312553952493"><ele>452.0</ele><time>2026-03-28T16:11:51Z</time></trkpt><trkpt lat="43.54540797058078" lon="11.321298367014451"><ele>453.3333333333333</ele><time>2026-03-28T16:11:52Z</time></trkpt><trkpt lat="43.54564333245192" lon="11.321289857819792"><ele>454.66666666666663</ele><time>2026-03-28T16:11:53Z</time></trkpt><trkpt lat="43.54585471934422" lon="11.321287025209578"><ele>456.0</ele><time>2026-03-28T16:11:54Z</time></trkpt><trkpt lat="43.546042454321125" lon="11.3212804723491"><ele>456.0</ele><time>2026-03-28T16:11:55Z</time></trkpt><trkpt lat="43.54619774524506" lon="11.321280779706385"><ele>456.0</ele><time>2026-03-28T16:11:56Z</time></trkpt><trkpt lat="43.54632535743915" lon="11.321289374379605"><ele>457.0</ele><time>2026-03-28T16:11:57Z</time></trkpt><trkpt lat="43.54640819504854" lon="11.321289121717344"><ele>457.0</ele><time>2026-03-28T16:11:58Z</time></trkpt><trkpt lat="43.54647481482439" lon="11.321288570286875"><ele>457.0</ele><time>2026-03-28T16:12:00Z</time></trkpt></trkseg></trk></gpx>